[[{"header":{"parameterUnit":"m.s-1","parameterCategory":1,"la1":30.6,"la2":29.2853,"lo1":-89.7004,"lo2":-87.6739,"dy":0.0162,"dx":0.0183,"nx":112,"ny":82,"refTime":"2023-05-15T12:00:00:Z","depth":0,"parameterNumber":2,"parameterNumberName":"U-component_of_WINDS"},"data":[0.0,0.0,0.0,0.0,0.0,0.0,0.0,0.0,0.0,0.0,0.0,0.0,0.0,0.0,0.0,0.0,0.0,0.0,0.0,0.0,0.0,0.0,0.0,0.0,0.0,0.0,0.0,0.0,0.0,0.0,0.0,0.0,0.0,0.0,0.0,0.0,0.0,0.0,0.0,0.0,0.0,0.0,0.0,0.0,0.0,0.0,0.0,0.0,0.0,0.0,0.0,0.0,0.0,0.0,0.0,0.0,0.0,0.0,0.0,0.0,0.0,0.0,0.0,0.0,0.0,0.0,0.0,0.0,0.0,0.0,0.0,0.0,0.0,0.0,0.0,0.0,0.0,0.0,0.0,0.0,0.0,0.0,0.0,0.0,0.0,0.0,0.0,0.0,0.0,0.0,2.0677,2.1607,2.389,2.5364,2.5486,2.64,2.6583,2.5695,0.0,0.0,0.0,0.0,0.0,0.0,0.0,0.0,0.0,0.0,0.0,0.0,0.0,0.0,0.0,0.0,0.0,0.0,0.0,0.0,0.0,0.0,0.0,0.0,0.0,0.0,0.0,0.0,0.0,0.0,0.0,0.0,0.0,0.0,0.0,0.0,0.0,0.0,0.0,0.0,0.0,0.0,0.0,0.0,0.0,0.0,0.0,0.0,0.0,0.0,0.0,0.0,0.0,0.0,0.0,0.0,0.0,0.0,0.0,0.0,0.0,0.0,0.0,0.0,0.0,0.0,0.0,0.0,0.0,0.0,0.0,0.0,0.0,0.0,0.0,0.0,0.0,0.0,0.0,0.0,0.0,0.0,0.0,0.0,0.0,0.0,0.0,0.0,0.0,0.0,0.0,0.0,0.0,0.0,0.0,0.0,0.0,0.0,0.0,0.0,0.0,0.0,0.0,0.0,2.0563,2.2039,2.4163,2.5344,2.5029,2.4463,2.3809,2.3113,0.0,0.0,0.0,0.0,0.0,0.0,0.0,0.0,0.0,0.0,0.0,0.0,0.0,0.0,0.0,0.0,0.0,0.0,0.0,0.0,0.0,0.0,0.0,0.0,0.0,0.0,0.0,0.0,0.0,0.0,0.0,0.0,0.0,0.0,0.0,0.0,0.0,0.0,0.0,0.0,0.0,0.0,0.0,0.0,0.0,0.0,0.0,0.0,0.0,0.0,0.0,0.0,0.0,0.0,0.0,0.0,0.0,0.0,0.0,0.0,0.0,0.0,0.0,0.0,0.0,0.0,0.0,0.0,0.0,0.0,0.0,0.0,0.0,0.0,0.0,0.0,0.0,0.0,0.0,0.0,0.0,0.0,0.0,0.0,0.0,0.0,0.0,0.0,0.0,0.0,0.0,0.0,0.0,0.0,0.0,0.0,0.0,0.0,0.0,0.0,0.0,0.0,0.0,2.0746,2.1392,2.2224,2.3458,2.4207,2.4145,2.3308,2.3013,2.3497,2.3365,0.0,0.0,0.0,0.0,0.0,0.0,0.0,0.0,0.0,0.0,0.0,0.0,0.0,0.0,0.0,0.0,0.0,0.0,0.0,0.0,0.0,0.0,0.0,0.0,0.0,0.0,0.0,0.0,0.0,0.0,0.0,0.0,0.0,0.0,0.0,0.0,0.0,0.0,0.0,0.0,0.0,0.0,0.0,0.0,0.0,0.0,0.0,0.0,0.0,0.0,0.0,0.0,0.0,0.0,0.0,0.0,0.0,0.0,0.0,0.0,0.0,0.0,0.0,0.0,0.0,0.0,0.0,0.0,0.0,0.0,0.0,0.0,0.0,0.0,0.0,0.0,0.0,0.0,0.0,0.0,0.0,0.0,0.0,0.0,0.0,0.0,0.0,0.0,0.0,0.0,0.0,0.0,0.0,0.0,0.0,0.0,0.0,0.0,0.0,0.0,0.0,0.0,2.1339,2.177,2.2248,2.2773,2.3182,2.3473,2.2454,2.2387,2.3771,2.1601,0.0,0.0,0.0,0.0,0.0,0.0,0.0,0.0,0.0,0.0,0.0,0.0,0.0,0.0,0.0,0.0,0.0,0.0,0.0,0.0,0.0,0.0,0.0,0.0,0.0,0.0,0.0,0.0,0.0,0.0,0.0,0.0,0.0,0.0,0.0,0.0,0.0,0.0,0.0,0.0,0.0,0.0,0.0,0.0,0.0,0.0,0.0,0.0,0.0,0.0,0.0,0.0,0.0,0.0,0.0,0.0,0.0,0.0,0.0,0.0,0.0,0.0,0.0,0.0,0.0,0.0,0.0,0.0,0.0,0.0,0.0,0.0,0.0,0.0,0.0,0.0,0.0,0.0,0.0,0.0,0.0,0.0,0.0,0.0,0.0,0.0,0.0,0.0,0.0,0.0,0.0,0.0,0.0,0.0,0.0,0.0,0.0,0.0,0.0,0.0,0.0,0.0,2.0424,2.0704,2.2158,2.2563,2.2944,2.3451,2.1732,2.1087,2.2189,1.9823,0.0,0.0,0.0,0.0,0.0,0.0,0.0,0.0,0.0,0.0,0.0,0.0,0.0,0.0,0.0,0.0,0.0,0.0,0.0,0.0,0.0,0.0,0.0,0.0,0.0,0.0,0.0,0.0,0.0,0.0,0.0,0.0,0.0,0.0,0.0,0.0,0.0,0.0,0.0,0.0,0.0,0.0,0.0,0.0,0.0,0.0,0.0,0.0,0.0,0.0,0.0,0.0,0.0,0.0,0.0,0.0,0.0,0.0,0.0,0.0,0.0,0.0,0.0,0.0,0.0,0.0,0.0,0.0,0.0,0.0,0.0,0.0,0.0,0.0,0.0,0.0,0.0,0.0,0.0,0.0,0.0,0.0,0.0,0.0,0.0,0.0,0.0,0.0,0.0,0.0,0.0,0.0,0.0,0.0,0.0,0.0,0.0,0.0,0.0,0.0,0.0,0.0,2.0893,2.1336,0.0,2.2537,2.2613,2.233,2.1114,2.0503,2.0837,0.0,0.0,0.0,0.0,0.0,0.0,0.0,0.0,0.0,0.0,0.0,0.0,0.0,0.0,0.0,0.0,0.0,0.0,0.0,0.0,0.0,0.0,0.0,0.0,0.0,0.0,0.0,0.0,0.0,0.0,0.0,0.0,0.0,0.0,0.0,0.0,0.0,0.0,0.0,0.0,0.0,0.0,0.0,0.0,0.0,0.0,0.0,0.0,0.0,0.0,0.0,0.0,0.0,0.0,0.0,0.0,0.0,0.0,0.0,0.0,0.0,0.0,0.0,0.0,0.0,0.0,0.0,0.0,0.0,0.0,0.0,0.0,0.0,0.0,0.0,0.0,0.0,0.0,0.0,0.0,0.0,0.0,0.0,0.0,0.0,0.0,0.0,0.0,0.0,0.0,0.0,0.0,0.0,0.0,0.0,0.0,0.0,0.0,0.0,0.0,0.0,0.0,2.0305,2.0789,2.1199,0.0,2.1951,2.1867,2.0969,1.9966,1.9484,1.9777,0.0,0.0,0.0,0.0,0.0,0.0,0.0,0.0,0.0,0.0,0.0,0.0,0.0,0.0,0.0,0.0,0.0,0.0,0.0,0.0,0.0,0.0,0.0,0.0,0.0,0.0,0.0,0.0,0.0,0.0,0.0,0.0,0.0,0.0,0.0,0.0,0.0,0.0,0.0,0.0,0.0,0.0,0.0,0.0,0.0,0.0,0.0,0.0,0.0,0.0,0.0,0.0,0.0,0.0,0.0,0.0,0.0,0.0,0.0,0.0,0.0,0.0,0.0,0.0,0.0,0.0,0.0,0.0,0.0,0.0,0.0,0.0,0.0,0.0,0.0,0.0,0.0,0.0,0.0,0.0,0.0,0.0,0.0,0.0,0.0,0.0,0.0,0.0,0.0,0.0,0.0,0.0,0.0,0.0,0.0,0.0,0.0,0.0,0.0,0.0,0.0,0.0,1.9509,1.9831,1.9985,2.0002,2.0703,2.0688,1.9482,1.8159,1.7874,0.0,0.0,0.0,0.0,0.0,0.0,0.0,0.0,0.0,0.0,0.0,0.0,0.0,0.0,0.0,0.0,0.0,0.0,0.0,0.0,0.0,0.0,0.0,0.0,0.0,0.0,0.0,0.0,0.0,0.0,0.0,0.0,0.0,0.0,0.0,0.0,0.0,0.0,0.0,0.0,0.0,0.0,0.0,0.0,0.0,0.0,0.0,0.0,0.0,0.0,0.0,0.0,0.0,0.0,0.0,0.0,0.0,0.0,0.0,0.0,0.0,0.0,0.0,0.0,0.0,0.0,0.0,0.0,0.0,0.0,0.0,0.0,0.0,0.0,0.0,0.0,0.0,0.0,0.0,0.0,0.0,0.0,0.0,0.0,0.0,0.0,0.0,0.0,0.0,0.0,0.0,0.0,0.0,0.0,0.0,0.0,0.0,0.0,0.0,0.0,0.0,0.0,0.0,1.9544,1.9564,1.9658,2.0034,1.9781,1.9236,1.8408,1.7251,1.74,1.9409,0.0,0.0,0.0,0.0,0.0,0.0,0.0,0.0,0.0,0.0,0.0,0.0,0.0,0.0,0.0,0.0,0.0,0.0,0.0,0.0,0.0,0.0,0.0,0.0,0.0,0.0,0.0,0.0,0.0,0.0,0.0,0.0,0.0,0.0,0.0,0.0,0.0,0.0,0.0,0.0,0.0,0.0,0.0,0.0,0.0,0.0,0.0,0.0,0.0,0.0,0.0,0.0,0.0,0.0,0.0,0.0,0.0,0.0,0.0,0.0,0.0,0.0,0.0,0.0,0.0,0.0,0.0,0.0,0.0,0.0,0.0,0.0,0.0,0.0,0.0,0.0,0.0,0.0,0.0,0.0,0.0,0.0,0.0,0.0,0.0,0.0,0.0,0.0,0.0,0.0,0.0,0.0,0.0,0.0,0.0,0.0,0.0,0.0,0.0,0.0,0.0,0.0,1.9182,1.9251,1.932,1.9379,1.9096,1.8375,1.7139,1.6438,1.6589,1.7825,0.0,0.0,0.0,0.0,0.0,0.0,0.0,0.0,0.0,0.0,0.0,0.0,0.0,0.0,0.0,0.0,0.0,0.0,0.0,0.0,0.0,0.0,0.0,0.0,0.0,0.0,0.0,0.0,0.0,0.0,0.0,0.0,0.0,0.0,0.0,0.0,0.0,0.0,0.0,0.0,0.0,0.0,0.0,0.0,0.0,0.0,0.0,0.0,0.0,0.0,0.0,0.0,0.0,0.0,0.0,0.0,0.0,0.0,0.0,0.0,0.0,0.0,0.0,0.0,0.0,0.0,0.0,0.0,0.0,0.0,0.0,0.0,0.0,0.0,0.0,0.0,0.0,0.0,0.0,0.0,0.0,0.0,0.0,0.0,0.0,0.0,0.0,0.0,0.0,0.0,0.0,0.0,0.0,0.0,0.0,0.0,0.0,0.0,0.0,0.0,0.0,0.0,1.8642,1.9006,1.9017,1.836,1.8567,1.7912,1.5882,1.5758,1.568,1.5394,0.0,0.0,0.0,0.0,0.0,0.0,0.0,0.0,0.0,0.0,0.0,0.0,0.0,0.0,0.0,0.0,0.0,0.0,0.0,0.0,0.0,0.0,0.0,0.0,0.0,0.0,0.0,0.0,0.0,0.0,0.0,0.0,0.0,0.0,0.0,0.0,0.0,0.0,0.0,0.0,0.0,0.0,0.0,0.0,0.0,0.0,0.0,0.0,0.0,0.0,0.0,0.0,0.0,0.0,0.0,0.0,0.0,0.0,0.0,0.0,1.7773,0.0,0.0,0.0,0.0,0.0,0.0,0.0,0.0,0.0,0.0,0.0,0.0,0.0,0.0,0.0,0.0,0.0,0.0,0.0,0.0,0.0,0.0,0.0,0.0,0.0,0.0,0.0,0.0,0.0,0.0,0.0,0.0,0.0,0.0,0.0,0.0,0.0,0.0,0.0,0.0,0.0,1.8716,1.8895,1.8875,1.8348,1.7809,1.6998,1.5797,1.5295,1.5506,1.662,1.6289,0.0,0.0,0.0,0.0,0.0,0.0,0.0,0.0,0.0,0.0,0.0,0.0,0.0,0.0,0.0,0.0,0.0,0.0,0.0,0.0,0.0,0.0,0.0,0.0,0.0,0.0,0.0,0.0,0.0,0.0,0.0,0.0,0.0,0.0,0.0,0.0,0.0,0.0,0.0,0.0,0.0,0.0,0.0,0.0,0.0,0.0,0.0,0.0,0.0,0.0,0.0,0.0,0.0,0.0,0.0,0.0,0.0,0.0,0.0,0.0,1.7461,0.0,0.0,0.0,0.0,0.0,0.0,0.0,0.0,0.0,0.0,0.0,0.0,0.0,0.0,0.0,0.0,0.0,0.0,0.0,0.0,0.0,0.0,0.0,0.0,0.0,0.0,0.0,0.0,0.0,0.0,0.0,0.0,0.0,0.0,0.0,0.0,0.0,0.0,0.0,0.0,1.9379,1.9471,1.9452,1.9151,1.8231,1.7248,1.6348,1.5923,1.5793,1.599,1.6165,0.0,0.0,0.0,0.0,0.0,0.0,0.0,0.0,0.0,0.0,0.0,0.0,0.0,0.0,0.0,0.0,0.0,0.0,0.0,0.0,0.0,0.0,0.0,0.0,0.0,0.0,0.0,0.0,0.0,0.0,0.0,0.0,0.0,0.0,0.0,0.0,0.0,0.0,0.0,0.0,0.0,0.0,0.0,0.0,0.0,0.0,0.0,0.0,0.0,0.0,0.0,0.0,0.0,2.074,2.1251,2.149,2.1352,2.0971,2.0353,1.9438,1.9077,1.9087,1.8421,0.0,0.0,0.0,0.0,0.0,0.0,0.0,0.0,0.0,0.0,0.0,0.0,0.0,0.0,0.0,0.0,0.0,0.0,0.0,0.0,0.0,0.0,0.0,0.0,2.1662,2.2909,2.1831,0.0,0.0,0.0,0.0,0.0,0.0,0.0,0.0,0.0,0.0,0.0,2.0318,2.0409,2.0354,2.0024,1.9069,1.8052,1.6966,1.6778,1.6183,1.502,1.6124,1.6607,0.0,0.0,0.0,0.0,0.0,0.0,0.0,0.0,0.0,0.0,0.0,0.0,0.0,0.0,0.0,0.0,0.0,0.0,0.0,0.0,0.0,0.0,0.0,0.0,0.0,0.0,0.0,0.0,0.0,0.0,0.0,0.0,1.9262,2.0089,0.0,0.0,0.0,0.0,0.0,0.0,0.0,0.0,0.0,0.0,0.0,0.0,0.0,1.9779,2.0467,2.1453,2.1909,2.184,2.2205,2.2742,2.3392,2.2545,2.2393,2.2784,2.1913,0.0,1.8804,1.8185,0.0,0.0,0.0,0.0,0.0,0.0,0.0,0.0,0.0,0.0,0.0,0.0,0.0,0.0,0.0,0.0,0.0,0.0,0.0,0.0,0.0,0.0,2.2391,2.2311,2.2971,2.3735,0.0,2.2994,2.1972,2.2447,2.1972,0.0,0.0,0.0,0.0,0.0,0.0,0.0,2.1447,2.1581,2.117,2.004,1.9726,1.8833,1.6976,1.6737,1.636,1.555,1.5843,1.6578,1.7728,1.8589,0.0,0.0,0.0,0.0,0.0,0.0,0.0,0.0,0.0,0.0,0.0,0.0,0.0,0.0,0.0,0.0,0.0,0.0,0.0,0.0,0.0,0.0,0.0,0.0,0.0,0.0,0.0,0.0,0.0,1.9921,2.0318,2.0131,2.0216,2.0153,0.0,0.0,0.0,0.0,0.0,0.0,0.0,0.0,0.0,2.1398,2.1284,2.1472,2.2027,2.3409,2.3802,2.3273,2.434,2.4772,2.4626,2.4071,2.3941,2.4076,2.3131,2.2134,2.1097,2.026,1.983,1.9621,0.0,0.0,0.0,0.0,1.8337,1.8628,2.0131,2.0652,0.0,2.1544,0.0,0.0,0.0,0.0,0.0,0.0,0.0,0.0,0.0,0.0,2.3064,2.2759,2.3355,2.4117,2.4535,2.3951,2.3377,0.0,2.2641,2.1966,2.2268,0.0,0.0,0.0,0.0,2.1881,2.2264,2.241,2.2009,2.0759,2.016,1.9215,1.7658,1.7429,1.7063,1.6313,1.6325,1.649,1.6848,1.7818,1.8338,0.0,0.0,0.0,0.0,0.0,0.0,0.0,0.0,0.0,0.0,0.0,0.0,0.0,0.0,0.0,0.0,0.0,0.0,0.0,0.0,0.0,0.0,0.0,0.0,0.0,0.0,0.0,0.0,2.1145,2.1152,2.0374,2.1061,2.113,0.0,0.0,0.0,0.0,0.0,0.0,2.0915,2.1214,2.1734,2.247,2.27,2.3045,2.355,2.5013,2.5311,2.4454,2.5919,2.6131,2.5284,2.5152,2.4974,2.4785,2.4024,2.3561,2.327,2.2009,2.1216,2.0806,2.0851,2.0723,2.0572,2.0698,2.0995,2.1477,2.2819,2.3081,2.2989,2.388,2.3334,2.2245,2.1898,0.0,0.0,0.0,0.0,2.1044,2.0997,2.2255,2.3487,2.3211,2.3694,2.4266,2.4508,2.4192,2.3948,0.0,2.3394,2.284,2.3503,0.0,0.0,0.0,0.0,2.2922,2.301,2.3122,2.2715,2.1462,2.0578,1.9615,1.8456,1.8046,1.7662,1.7118,1.7025,1.6795,1.6409,1.7415,1.7997,1.8039,0.0,0.0,0.0,0.0,0.0,0.0,0.0,0.0,0.0,0.0,0.0,0.0,0.0,0.0,0.0,0.0,0.0,0.0,0.0,0.0,0.0,0.0,0.0,0.0,0.0,0.0,0.0,0.0,0.0,2.1349,2.2163,0.0,0.0,0.0,0.0,2.2098,2.2123,2.2495,2.3284,2.2748,2.3286,2.5139,2.4542,2.458,2.536,2.6216,2.6197,2.534,2.6188,2.6131,2.5303,2.5303,2.5138,2.4902,2.4766,2.4579,2.4173,2.2209,2.1274,2.1062,2.1018,2.0873,2.0813,2.1684,2.2502,2.3265,2.4045,2.4798,2.5274,2.4379,2.2955,2.1816,2.3234,2.1844,0.0,0.0,2.1887,2.1552,2.3193,2.3705,2.386,2.4229,2.4266,2.4302,2.461,2.3779,2.3263,0.0,2.4266,2.3817,2.3006,0.0,2.2813,2.2994,2.2887,2.3087,2.384,2.383,2.3207,2.182,2.1022,2.0159,1.9138,1.8285,1.7816,1.7832,1.7766,1.7743,1.771,1.8005,1.8499,1.9195,2.0184,0.0,0.0,0.0,0.0,0.0,0.0,0.0,0.0,0.0,0.0,0.0,0.0,0.0,0.0,0.0,0.0,0.0,0.0,0.0,0.0,0.0,0.0,0.0,0.0,0.0,0.0,0.0,0.0,2.3083,2.4291,0.0,2.3542,2.3979,2.4465,2.475,2.501,2.5305,2.5614,2.5943,2.5926,2.5543,2.5779,2.5796,2.5568,2.6313,2.6254,2.5415,2.6255,2.6207,2.536,2.536,2.5192,2.4891,2.4858,2.4697,2.4356,2.3722,2.3375,2.3306,2.3449,2.3561,2.3654,2.4176,2.4549,2.4878,2.5154,2.5412,2.5595,2.5147,2.452,2.4011,2.4445,2.384,2.3135,2.3694,2.3545,2.3325,2.3969,2.4096,2.4097,2.4284,2.4284,2.4303,2.4428,2.4136,2.3966,2.4302,2.3409,2.2873,2.3746,2.3349,2.3177,2.3868,2.3812,2.3727,2.3787,2.3759,2.3217,2.1849,2.1464,2.0709,1.9224,1.8767,1.8387,1.7917,1.7833,1.7811,1.7811,1.7883,1.8469,1.9597,2.0091,2.0374,0.0,0.0,0.0,0.0,0.0,0.0,0.0,0.0,0.0,0.0,0.0,0.0,0.0,0.0,0.0,0.0,0.0,0.0,0.0,0.0,0.0,0.0,0.0,0.0,0.0,0.0,2.5614,2.5623,2.6661,2.6917,2.5736,2.6237,2.6684,2.6804,2.7354,2.7539,2.7249,2.7536,2.7329,2.6497,2.6442,2.6305,2.6041,2.652,2.6316,2.5401,2.6273,2.6244,2.5406,2.5406,2.5244,2.4993,2.4993,2.4855,2.461,2.4712,2.4737,2.4741,2.4936,2.5057,2.5196,2.5468,2.5587,2.5636,2.5663,2.5646,2.5629,2.5567,2.5418,2.5264,2.5088,2.4924,2.4747,2.457,2.4408,2.4284,2.4284,2.4266,2.4247,2.4321,2.4321,2.4303,2.4358,2.4358,2.4358,2.4339,2.3371,2.2948,2.4176,2.3749,2.3415,2.401,2.4064,2.3828,2.3298,2.343,2.3127,2.2029,2.1685,2.1083,1.9928,1.9459,1.9056,1.8665,1.8272,1.8262,1.8683,1.785,1.7984,1.9349,2.0564,2.118,2.1198,0.0,0.0,0.0,0.0,0.0,0.0,0.0,0.0,0.0,0.0,0.0,0.0,0.0,0.0,0.0,0.0,0.0,0.0,0.0,0.0,0.0,0.0,0.0,2.6708,2.6738,2.7332,2.8898,2.9164,2.8837,2.7873,2.8752,2.906,2.823,2.8948,2.908,2.8218,2.7457,2.7385,2.8174,2.6656,2.6188,2.6922,2.6941,2.6447,2.5498,2.6348,2.6281,2.5434,2.5434,2.5361,2.5192,2.5192,2.5126,2.5006,2.5006,2.5094,2.521,2.5201,2.5164,2.5158,2.5409,2.5505,2.5522,2.5582,2.5566,2.5512,2.5588,2.5456,2.5274,2.5149,2.4968,2.4762,2.457,2.4425,2.4321,2.4303,2.4303,2.4321,2.4394,2.4339,2.4339,2.4482,2.4393,2.4321,2.4394,2.4284,2.4192,2.4192,2.3901,2.3598,2.3337,2.3537,0.0,2.2455,2.2884,2.3032,2.2394,2.1722,2.1291,2.123,2.0317,1.9855,2.0085,1.9177,1.9192,2.0443,1.7997,1.7249,1.8586,2.1676,2.2752,2.1734,0.0,0.0,0.0,0.0,0.0,0.0,0.0,0.0,0.0,0.0,0.0,0.0,0.0,0.0,0.0,0.0,0.0,0.0,0.0,0.0,0.0,0.0,2.8153,2.7643,2.9025,3.0299,3.0893,3.1564,3.1903,3.1616,3.1395,3.1419,3.1815,3.1003,3.0385,3.0131,2.9922,2.9336,2.8297,2.8436,2.83,2.7857,2.7784,2.7602,2.7282,2.7535,2.7179,2.6337,2.6337,2.5918,2.5205,2.5205,2.5118,2.5006,2.5107,2.5168,2.5199,2.5254,2.5343,2.5479,2.5597,2.5662,2.5653,2.5679,2.5639,2.5576,2.5546,2.5464,2.5351,2.5163,2.5107,2.5049,2.4855,2.4752,2.4708,2.4626,2.4561,2.4495,2.4411,2.4394,2.4375,2.443,2.4447,2.4393,2.421,2.4153,2.4095,2.3998,2.3653,2.3382,2.3318,2.3324,0.0,2.2997,2.2892,2.2877,2.2873,2.2478,2.2029,2.147,2.1167,2.0749,2.0069,1.9765,1.9782,2.0118,1.9664,1.9858,2.0804,2.208,2.1867,0.0,0.0,0.0,0.0,0.0,0.0,0.0,0.0,0.0,0.0,0.0,0.0,0.0,0.0,0.0,0.0,0.0,0.0,0.0,0.0,0.0,0.0,2.9571,3.1321,3.1537,3.2461,3.3432,3.4314,3.4591,3.4564,3.4274,3.3881,3.3535,3.3311,3.2805,3.2187,3.1484,3.1108,3.0435,2.9413,2.9162,2.8945,2.8705,2.8333,2.8097,2.7995,2.7997,2.7718,2.7232,2.7232,2.6734,2.5832,2.5832,2.5601,2.5222,2.5301,2.5339,0.0,0.0,0.0,0.0,0.0,2.5636,2.5663,2.566,2.563,2.5582,2.5519,2.5397,2.5264,2.5173,2.5072,2.4968,2.4847,2.4775,2.4716,2.4613,2.4547,2.4497,2.443,2.4394,2.4412,2.443,2.4465,2.4446,2.4303,2.4077,0.0,2.3795,2.3473,2.3151,2.292,2.303,2.3077,2.284,2.2834,2.2894,2.3133,2.2731,2.2332,2.2039,2.1807,0.0,0.0,0.0,2.0084,1.9488,2.0235,0.0,0.0,0.0,2.1651,2.173,0.0,0.0,0.0,2.1206,2.1161,0.0,0.0,0.0,0.0,0.0,0.0,0.0,0.0,0.0,0.0,0.0,0.0,0.0,0.0,0.0,0.0,3.2904,3.518,3.6776,3.6469,3.6603,3.8022,3.7519,3.6795,3.6165,3.6076,3.5416,3.3866,3.4347,3.4004,3.2422,0.0,0.0,0.0,0.0,2.8906,2.9546,2.8846,2.8424,2.8277,2.8393,2.8335,2.815,2.8247,2.7763,2.6862,2.6862,2.6463,2.5808,2.5704,2.5634,2.5614,2.5619,2.5566,2.5515,2.5527,2.5568,2.5614,2.5607,0.0,0.0,2.553,2.5331,2.5122,2.5171,2.4968,2.4738,2.4707,2.4629,2.4532,2.4446,2.4429,2.443,2.4412,2.4412,2.443,2.4482,2.45,2.45,2.4446,2.4001,2.3628,2.3544,2.3259,2.2885,2.2421,2.2737,2.2885,2.2465,2.2757,2.306,2.3271,0.0,0.0,2.2738,2.231,2.2128,2.2377,2.1502,2.0431,1.926,2.0471,2.1118,2.1033,2.0898,2.2046,2.4521,2.4106,2.3981,2.4062,2.2458,2.2716,0.0,0.0,0.0,0.0,0.0,0.0,0.0,0.0,0.0,0.0,0.0,0.0,0.0,0.0,0.0,3.2184,3.5174,3.7623,3.8642,3.9315,3.933,3.831,3.81,3.7986,3.7912,3.7371,3.6899,3.6548,3.5388,3.4258,3.3223,3.2344,3.1579,3.0919,3.0567,3.0408,3.0443,3.0288,3.0192,3.0095,0.0,0.0,2.907,2.9785,2.9276,2.7828,2.7828,2.7765,2.762,2.6926,2.6248,2.5682,2.567,2.5661,2.5662,2.5663,2.5676,2.5667,2.5619,2.5556,2.553,2.5511,2.5369,2.5154,2.508,2.4994,0.0,2.4753,2.476,2.478,2.4673,2.4645,2.4613,2.4517,2.4482,2.4482,2.45,2.45,2.4429,2.4229,2.3959,2.3649,2.3259,2.2917,2.2667,2.2562,2.2576,2.2738,2.3063,2.3003,2.316,2.3766,2.3536,2.326,2.3033,2.2933,2.2702,2.2344,2.2102,2.2122,2.2323,2.2588,2.2704,2.2573,2.3162,2.3243,2.279,2.4001,2.4429,2.4091,2.3732,2.3826,0.0,0.0,0.0,0.0,0.0,0.0,0.0,0.0,0.0,0.0,0.0,2.767,0.0,0.0,3.3928,3.529,3.7618,3.9392,3.9835,4.0369,4.0408,3.96,3.9593,3.9519,3.9181,3.8827,3.8242,3.7363,3.6484,3.543,3.4121,3.3633,3.3027,3.2183,3.1725,3.1445,3.1347,3.0928,3.0675,3.0598,3.1004,3.0752,2.9959,3.0408,2.9919,2.874,2.8744,2.854,2.8134,2.7264,2.6687,2.6302,2.5879,2.5703,2.5703,2.5701,2.569,2.5689,2.5615,2.5562,2.5511,2.5511,2.5313,2.5084,2.5031,2.4874,2.4734,2.4629,2.4642,2.4685,2.4613,2.4599,2.4582,2.4517,2.45,2.4611,2.502,2.4778,2.4576,2.4857,2.4372,2.378,2.3459,2.3146,2.2876,2.2579,2.2632,2.2833,2.3253,2.3111,2.3276,2.4033,2.3702,2.3379,2.3197,2.2952,2.2671,2.2383,2.2508,2.2747,2.3032,2.3341,2.3497,2.3511,2.3657,2.3724,2.3651,2.4088,2.445,2.4697,2.4697,2.4735,0.0,0.0,0.0,0.0,0.0,0.0,0.0,0.0,2.7268,2.8566,2.9848,3.1389,3.3449,3.5496,3.7194,3.8104,3.9508,4.0508,4.0543,4.0515,4.0511,4.0581,4.0677,4.0579,4.0193,3.9687,3.8945,3.7891,3.748,3.6699,3.5273,3.5039,3.4551,3.3672,3.2807,3.2324,3.226,3.1569,3.1159,3.1101,3.1255,3.1168,3.0866,3.1025,3.0574,2.9679,2.9679,2.9225,2.8426,2.7712,2.7265,2.6926,2.6225,2.5857,2.5703,2.5701,2.5696,2.5679,2.5593,2.5557,2.5511,2.5511,2.5274,2.5,2.5,2.4775,2.4517,2.4517,2.4517,2.4498,2.4498,2.45,2.45,2.45,2.45,2.4685,2.5336,2.4946,2.4703,2.5336,2.469,2.3981,2.3735,2.3491,2.3157,2.2632,2.2738,2.2985,2.33,2.3236,2.3437,2.4152,2.3777,2.3459,2.3346,2.2816,2.2497,2.2497,2.2755,2.2947,2.3074,2.3544,2.3885,2.41,2.3739,2.402,2.501,2.4354,2.4471,2.5303,2.5303,2.5322,2.4265,2.3368,2.4222,2.57,2.6178,2.703,0.0,0.0,3.1088,3.2259,3.3381,3.432,3.4893,3.6558,3.8142,3.9008,3.9912,4.0543,4.0658,4.0127,3.9747,3.9831,3.9838,4.0173,4.0974,3.8945,3.8144,3.9512,3.8164,3.7207,3.7012,3.6289,3.5469,3.457,3.3711,3.3242,3.3241,3.3089,3.2987,3.2919,3.3625,3.3189,3.1792,3.255,3.2085,3.064,3.0642,3.0185,2.9443,2.9344,2.8385,2.6997,2.6882,2.6374,2.5696,2.5705,2.5656,2.5595,2.5531,2.5499,2.5511,2.5511,2.5274,2.4998,2.4998,2.4814,2.4599,2.4599,2.4547,2.4495,2.4495,2.4515,2.45,2.45,2.45,2.4518,2.4611,2.4571,2.4515,2.4611,2.4376,2.4078,2.3756,2.3535,2.3253,2.2842,2.279,2.2985,2.3432,2.3459,2.3674,2.4229,2.4229,2.3961,2.3437,2.2841,2.2615,2.284,2.2873,2.3147,2.3681,2.3764,2.4004,2.4437,2.4396,2.458,2.501,2.4915,2.5023,2.5303,2.5303,2.5303,2.4135,2.4967,2.6767,0.0,2.8297,2.9513,3.2224,3.3217,3.3873,3.4958,3.646,3.765,3.8003,3.9246,4.0162,0.0,4.0758,4.1219,4.0754,3.9663,3.8912,3.8939,3.8112,3.8103,3.955,3.8691,3.8359,3.9082,3.8476,3.8066,3.8066,3.7715,3.7344,3.6973,3.5625,3.4883,3.4863,3.3861,3.3291,3.3209,3.3583,3.3106,3.1923,3.2361,3.1924,3.0835,3.1333,3.1075,3.0294,3.0294,2.9298,2.7717,2.7192,2.6468,2.5693,2.5696,2.5658,2.5591,2.5517,2.5498,2.5511,2.5511,2.5274,2.501,2.501,2.4809,2.4599,2.4599,2.458,2.4564,2.4564,2.453,2.4497,2.4497,2.4498,2.476,2.5744,2.5558,2.5484,2.647,2.6191,2.5706,2.5427,2.4769,2.4221,2.4058,2.3315,2.2927,2.3277,2.3473,2.3759,2.4303,2.421,2.3919,2.3437,2.3032,2.2832,2.2947,2.3141,2.3459,2.3901,2.4078,2.4284,2.4556,2.4632,2.4804,2.5053,2.5141,2.5214,2.5303,2.5303,2.5303,2.5038,0.0,0.0,2.9406,3.0668,3.2224,3.4669,3.5911,3.6803,3.7673,3.8851,3.9783,3.9852,4.0356,4.0623,4.0219,4.0796,4.1074,4.048,3.9039,3.7977,3.7769,3.6284,3.5878,3.7383,3.7734,3.8086,3.8555,3.8594,3.8691,3.8945,3.8965,3.8965,3.8965,3.7266,3.6348,3.6289,3.4824,3.4047,3.3944,3.3971,3.339,3.226,3.1908,3.1539,3.1172,3.1563,3.1524,3.1133,3.0899,2.9943,2.8576,2.7698,2.682,2.6023,2.5779,2.5637,2.5613,2.5788,2.5686,2.5538,2.5762,2.5486,2.5077,2.5053,2.4869,2.4676,2.4629,2.4631,2.4615,2.4615,2.4731,2.4847,2.4866,2.5035,2.5538,2.673,2.6525,2.6451,2.7662,2.7401,2.6878,2.668,2.5917,2.528,2.5121,2.4226,2.3525,2.3372,2.3562,2.3921,2.4393,2.4154,2.3858,2.35,2.3277,2.3165,2.3165,2.3459,2.3798,2.4114,2.4321,2.4498,2.4623,2.4727,2.4877,2.5096,2.5212,2.5264,2.5303,2.5303,2.5303,0.0,0.0,2.8644,3.1715,3.367,3.5504,3.7991,3.9423,4.0307,4.061,4.035,3.9929,3.9423,3.8661,3.8373,3.92,3.9427,3.9515,3.9624,3.8202,3.6865,3.616,3.4549,3.3836,0.0,3.5586,3.6777,3.8476,3.8594,3.8965,3.9824,3.9863,3.9863,3.9863,3.8164,3.7266,3.7266,3.6306,3.5816,3.5818,3.5742,3.4853,3.32,3.1576,3.1289,3.2012,3.1192,3.1309,3.1992,3.1153,3.0313,2.9474,2.8596,2.7737,2.6845,2.5931,2.5601,2.5704,2.6417,2.6157,2.5631,2.6401,2.6043,2.5264,2.5138,2.4987,2.4861,2.4719,2.4695,2.4701,2.4701,2.523,2.5758,2.576,2.6411,2.7008,2.7009,2.7027,2.7062,2.7137,2.7101,2.701,2.674,2.656,2.6245,2.5661,2.5541,2.5066,2.3847,2.3921,2.4192,2.4478,2.4192,2.3883,2.361,2.3588,2.3566,2.3566,2.3842,2.4135,2.4482,2.45,2.4549,2.4692,2.4707,2.4832,2.5096,2.5096,2.5171,2.5303,2.5303,2.5303,2.8544,0.0,3.2743,3.5497,3.7144,3.8627,4.0532,4.1241,4.1299,4.0504,3.9612,3.8627,3.7465,3.6597,3.6517,3.7842,3.8345,3.8838,3.9516,3.8156,3.6601,3.5296,3.4103,0.0,0.0,0.0,0.0,3.7617,3.7734,3.8379,3.9824,3.9902,4.0176,4.0742,3.9629,3.9023,3.9034,3.7565,3.6802,3.6743,3.4979,3.3865,3.3314,3.1587,3.0958,3.125,3.1543,3.1504,3.127,3.1543,3.0841,2.9574,2.9279,2.8635,2.7801,2.7411,2.7293,2.7264,2.6896,2.6939,2.7202,2.7464,2.7286,2.6948,2.6916,2.6364,2.5749,2.5712,2.5213,2.4842,2.5405,2.5693,2.5943,2.6539,2.6859,2.7214,2.7792,2.7923,2.8054,2.8596,2.867,2.8592,2.8509,2.7864,2.6995,2.5893,2.5508,2.5077,2.4331,2.4468,2.4463,2.4016,2.402,2.3941,2.3631,2.3649,2.3717,2.3862,2.3943,2.4154,2.4482,2.45,2.4534,2.4566,2.4645,2.4719,2.4771,2.5,2.5096,2.5099,2.5243,2.5303,3.068,3.3266,3.6162,3.8648,4.0146,4.1255,4.2284,4.2167,4.1317,3.9546,3.8156,3.6767,3.5169,3.4266,3.423,3.5609,3.5683,3.6144,3.7738,3.6504,3.5273,3.4759,3.4205,3.3986,0.0,0.0,0.0,3.6721,3.7693,3.8555,3.9316,4.0,4.0625,4.1172,4.0351,3.9901,3.9893,3.8166,3.7126,3.6735,3.4449,3.3512,3.3788,3.1736,3.1131,3.1738,3.1658,3.1482,3.1289,3.1524,3.0997,3.0001,2.9708,2.9259,2.8719,2.8289,2.8343,2.8544,2.7905,2.7829,2.8062,2.8363,2.8202,2.7856,2.7806,2.7321,2.6753,2.6664,2.6166,2.5781,2.6266,2.6572,2.6874,2.7417,2.7755,2.811,2.869,2.8802,2.8933,2.9456,2.9453,2.9412,2.9429,2.8676,2.777,2.6934,2.6383,2.5697,2.4686,2.4682,2.4491,2.3847,2.3901,2.386,2.354,2.3649,2.3777,2.3901,2.4001,2.4192,2.45,2.4498,2.4498,2.45,2.4582,2.4629,2.4642,2.4828,2.4956,2.5041,2.5141,2.5243,3.4596,3.6702,3.885,4.1176,4.257,4.3334,4.3228,4.2136,4.0424,3.789,3.6094,3.4448,0.0,0.0,3.167,3.2835,3.1914,3.2015,3.4732,3.377,3.3299,0.0,0.0,0.0,0.0,0.0,0.0,3.6027,0.0,3.9374,3.8516,4.0156,4.1152,4.1191,4.0391,3.9961,3.9961,3.8233,3.6911,3.5971,3.4276,3.3905,3.4608,3.2085,3.1811,3.3239,3.1577,3.1304,3.1973,3.1133,3.0799,3.0723,2.9962,2.965,2.9558,2.8662,2.8811,2.9468,2.9396,2.8836,2.8263,2.9098,2.8799,2.8113,2.7981,2.7911,2.78,2.7551,2.7447,2.7354,2.7206,2.7771,2.8408,2.8372,2.9045,2.9664,2.9607,2.9607,2.9607,2.9607,2.9491,2.9433,2.9492,2.8952,2.8529,2.8578,2.8037,2.6911,2.5051,2.4646,2.4397,2.3958,2.3852,2.3667,2.3417,2.3624,2.3774,2.3735,2.4019,2.4284,2.45,2.4497,2.4497,2.45,2.45,2.4566,2.4692,2.4623,2.4771,2.5072,2.5041,2.5107,3.7488,3.9967,4.231,4.3815,4.4124,4.3714,4.2469,4.0454,3.8249,3.62,3.3781,3.1806,0.0,0.0,0.0,3.288,3.3346,0.0,3.6212,3.6731,0.0,3.5769,0.0,3.6721,3.6953,3.691,0.0,0.0,3.7723,3.8257,3.9453,3.9883,4.043,4.1172,4.0976,4.0879,4.0879,3.9137,3.7507,3.5991,3.4881,3.4471,3.4666,3.3336,3.2634,3.2402,3.1953,3.1524,3.1114,3.0894,3.0794,3.0774,3.0562,3.0484,3.0452,3.0164,3.0193,3.0353,3.0288,3.0114,2.9969,3.0192,3.0114,2.994,2.9893,2.9361,2.8725,2.8568,2.7975,2.7502,2.7935,2.8239,2.8558,2.9195,2.9533,2.9701,2.9683,2.9664,2.9645,2.9607,2.9531,2.9511,2.955,2.8975,2.8554,2.8652,2.8037,2.7198,2.6239,2.5754,2.5131,2.4208,2.3797,2.3531,2.3394,2.3508,2.3728,2.4058,2.4097,2.4229,2.4497,2.4498,2.4498,2.45,2.45,2.45,2.4481,2.4613,2.4685,2.4741,2.4956,2.5103,4.0577,4.2417,4.4033,4.4716,4.4325,4.3299,4.1539,3.8821,3.6055,3.3813,3.1656,0.0,0.0,0.0,0.0,0.0,0.0,0.0,3.5168,3.5712,3.6143,0.0,3.7567,0.0,3.8397,3.8357,3.8461,0.0,3.8431,3.8588,3.963,3.9691,4.0137,4.1074,4.043,3.9857,3.9453,3.85,3.7331,3.5951,3.511,3.4901,3.5232,3.3961,3.3336,3.3222,0.0,3.24,3.1934,3.1948,3.1711,3.1379,3.1362,3.1148,3.0782,3.0712,3.0703,3.0689,3.0622,3.0606,3.0597,3.0598,3.0607,3.0597,3.0597,3.0202,2.9737,2.9586,2.9117,2.8703,2.8974,2.9004,2.9082,2.9588,2.9701,2.9701,2.9701,2.9683,2.9626,2.9569,2.955,2.9511,2.9394,2.8952,2.8578,2.8504,2.7982,2.7472,2.711,2.6214,2.5226,2.434,2.37,2.3319,2.3271,2.3342,2.3576,2.4037,2.4058,2.4192,2.453,2.4549,2.4532,2.4532,2.4517,2.4464,2.4428,2.4532,2.4596,2.4657,2.4855,2.4994,4.3487,4.4307,4.4775,4.4801,4.3783,4.2264,4.0381,3.7139,3.3798,3.1297,0.0,2.8762,2.7974,2.7668,2.7869,2.8837,0.0,2.9209,3.3314,3.3369,3.4357,3.8138,3.868,3.9061,3.9822,3.9789,3.9643,3.9528,3.9471,3.943,3.9422,3.9585,3.9995,4.0664,3.9314,3.8146,3.7207,3.7255,3.6827,3.5889,3.5197,3.5271,3.5952,3.4426,3.4095,3.4666,3.39,3.3509,3.3398,3.3395,3.2943,3.2274,3.2263,3.1814,3.1138,3.1069,3.0969,3.0868,3.0801,3.0696,3.0613,3.0597,3.0606,3.0604,3.0604,3.0593,3.0576,3.0441,3.0297,3.0174,2.9969,2.9822,2.9717,2.9698,2.9717,2.9717,2.9699,2.9645,2.9589,2.9531,2.9569,2.9512,2.9191,2.8888,2.8603,2.8264,2.7943,2.7695,2.759,2.6328,2.526,2.4664,2.3804,2.3312,2.3418,2.3379,2.3554,2.4021,2.4125,2.4284,2.4599,2.4599,2.4599,2.4599,2.4532,2.4498,2.4495,2.4446,2.4498,2.4676,2.4731,2.4847,4.5393,4.5758,4.567,4.5946,4.3446,4.0473,3.8651,3.4923,0.0,0.0,2.8771,2.8128,2.8397,2.8695,2.9249,3.0354,0.0,0.0,0.0,0.0,3.6142,0.0,0.0,0.0,0.0,0.0,0.0,0.0,0.0,3.8832,3.9527,3.9604,3.944,3.9023,3.8694,3.8084,3.7207,3.7206,3.6766,3.5889,3.5802,3.5857,3.5991,3.5692,3.5243,3.4686,3.4541,0.0,3.3395,3.3392,3.3311,3.3175,3.3175,3.3073,3.2947,3.2871,3.2395,3.1757,3.1695,3.1248,3.0672,3.0618,3.0593,3.0602,3.0602,3.0593,3.0567,3.0442,3.029,3.0169,3.0007,2.9888,2.9771,2.9717,2.9735,2.9773,2.9719,2.9682,2.9681,2.9663,2.9681,2.9608,2.9394,2.9038,2.8676,2.8324,2.8045,2.7613,2.6979,2.656,2.6321,2.6209,2.498,2.4408,2.4945,2.4539,2.4444,2.4863,2.4887,2.4834,2.4703,2.4564,2.4547,2.4599,2.4532,2.4498,2.4495,2.4481,2.45,2.4551,2.461,2.4716,4.6192,4.6448,4.5988,4.5476,4.2441,3.9182,3.7757,0.0,0.0,0.0,2.8814,2.8251,2.8496,0.0,0.0,0.0,0.0,0.0,0.0,0.0,0.0,0.0,0.0,0.0,0.0,0.0,0.0,0.0,0.0,3.8469,3.8757,3.8872,3.8419,3.7276,3.7665,3.742,3.647,3.6508,3.6292,3.5859,3.5929,3.5962,3.5991,3.6007,3.5773,3.5389,3.5383,3.5149,3.4755,3.4755,3.4495,3.4078,3.4047,3.3743,3.3338,3.332,3.2744,3.2004,3.1965,3.139,3.0689,3.0656,3.0625,3.0602,3.0602,3.0602,3.0585,3.051,3.0422,3.0278,3.0177,3.0041,2.9888,2.9822,2.9823,2.9825,2.9774,2.9755,2.9735,2.9717,2.9717,2.9608,2.9334,2.9016,2.8676,2.835,2.8101,2.7646,2.6869,2.6735,2.6362,2.5526,2.4839,2.4513,2.4813,2.4272,2.423,2.491,2.5105,2.502,2.4569,2.4957,2.4942,2.4464,2.4481,2.4375,2.4154,2.4211,2.4154,2.4039,2.4229,2.4368,4.6318,4.6687,4.6134,4.4937,4.1345,3.7847,3.6958,3.282,0.0,0.0,2.8995,2.851,2.8484,0.0,0.0,0.0,0.0,0.0,0.0,0.0,0.0,0.0,0.0,0.0,0.0,0.0,0.0,0.0,0.0,0.0,3.78,3.7956,3.7423,3.6049,3.6645,3.662,3.5836,3.5855,3.5852,3.5818,3.5878,3.5938,3.5991,3.5991,3.5991,3.5991,3.5991,3.6004,3.6001,3.6001,3.56,3.4967,3.4894,3.4452,3.3828,3.365,3.3153,3.2502,3.2146,3.1698,3.1205,3.0817,3.065,3.0622,3.0626,3.061,3.061,3.0618,3.051,3.0411,3.0364,3.0182,2.9996,2.9905,2.991,2.9895,2.9823,2.9825,2.9808,2.9753,2.9681,2.9532,2.9212,2.8948,2.8646,2.8316,2.7986,2.7465,2.6685,2.6711,2.6118,2.436,2.4484,2.4776,2.5007,2.4499,2.4492,2.5207,2.555,2.5438,2.4801,2.5486,2.5449,2.4505,2.4543,2.4337,2.3837,2.3901,2.3821,2.3649,2.3886,2.4044,4.562,4.6379,4.6201,4.5351,4.0621,3.6071,3.5735,0.0,0.0,2.8547,2.8616,2.8536,2.8353,2.8525,0.0,0.0,0.0,3.0039,0.0,0.0,0.0,0.0,0.0,0.0,0.0,0.0,0.0,0.0,0.0,0.0,3.7145,3.7193,3.6844,3.603,3.6015,3.5989,3.5884,3.585,3.5838,3.5888,3.5897,3.5933,3.5991,3.5991,3.5991,3.5991,3.6004,3.6001,0.0,3.6001,3.5955,3.5873,3.5813,3.5722,3.5579,3.4765,3.4433,3.415,3.2615,3.2512,3.2792,3.1201,3.0691,3.0691,3.0691,3.0661,3.0618,3.0676,3.0593,3.0491,3.0481,3.0292,3.0064,2.9926,2.9912,2.9893,2.9891,2.9893,2.9895,2.9876,2.9645,2.9353,2.906,2.8803,2.85,2.8164,2.7477,2.6703,2.5896,2.6321,2.587,2.3715,2.4726,2.6065,2.7291,2.696,2.6718,2.678,2.6932,2.6723,2.6067,2.6118,2.5834,2.5136,2.4889,2.4523,2.3976,2.3816,2.3714,2.3692,2.3653,2.3806,4.5034,4.619,4.6221,4.3664,3.9637,3.6142,3.5473,0.0,2.8338,2.9557,2.9151,2.851,2.8458,2.8612,2.8609,0.0,0.0,0.0,0.0,0.0,0.0,0.0,0.0,0.0,0.0,0.0,0.0,0.0,0.0,0.0,3.6425,3.639,3.6253,3.601,3.5968,3.5937,3.5895,3.5861,3.5878,3.5904,3.5891,3.5931,3.6005,3.5996,3.5991,3.5991,3.6007,3.6001,0.0,3.596,3.594,3.5932,3.5916,3.5899,3.5857,3.5515,3.5042,3.4491,3.3844,3.3149,3.2453,3.1777,3.1161,3.07,3.0698,3.0653,3.061,3.0688,3.1006,3.1332,3.1284,3.1437,3.1482,3.0918,3.0763,3.0585,3.007,2.9975,2.9891,2.9644,2.9494,2.9148,2.8396,2.8049,2.7664,2.7096,2.6623,2.6015,2.5265,2.5786,2.5867,2.4931,2.5745,2.6393,2.6425,2.6295,2.6419,2.6908,2.7133,2.6922,2.611,2.6667,2.6517,2.5571,2.5095,2.4631,2.413,2.3718,2.3399,2.3164,2.3301,2.3405,4.3204,4.4672,4.4945,4.1866,3.8581,3.5806,0.0,0.0,2.853,2.9764,2.9206,2.851,2.8536,2.8637,2.8421,0.0,0.0,2.7974,2.8059,0.0,0.0,0.0,0.0,0.0,0.0,0.0,0.0,0.0,0.0,0.0,3.5994,3.572,3.5678,3.5991,3.5991,3.5984,3.5937,3.5918,3.5916,3.5937,3.5899,3.5949,3.5993,3.6001,3.5991,3.5991,3.601,3.6001,0.0,3.5927,3.5909,3.5901,3.5903,3.5896,3.5864,3.5607,3.5295,3.4911,3.4394,3.3777,3.3149,3.2615,3.2187,3.1809,3.1557,3.1084,3.0734,3.1293,3.1848,3.2259,3.2174,3.2429,3.2484,3.1618,3.1363,3.1067,3.0212,3.0022,2.9888,2.9495,2.9378,2.907,2.8239,2.7669,2.7224,2.6922,2.6105,2.5511,2.5464,2.5468,2.5479,2.5454,2.6277,2.6649,2.6303,2.6375,2.665,2.7146,2.7406,2.7233,2.6576,2.7202,2.7079,2.6082,2.5561,2.5052,2.4559,2.3879,2.3393,2.3102,2.31,2.3323,3.9804,4.1338,4.1956,4.0322,3.7411,3.4485,0.0,0.0,2.8562,2.8442,2.8458,2.8518,2.8587,2.8712,2.8512,2.7633,0.0,0.0,2.8067,0.0,0.0,0.0,0.0,0.0,0.0,0.0,0.0,0.0,0.0,0.0,3.5994,3.5181,3.5103,3.5974,3.5991,3.5994,3.5994,3.5937,3.5937,3.5996,3.5932,3.5939,3.5996,3.6003,3.5991,3.5991,3.6004,3.5994,0.0,3.5938,3.5903,3.5901,3.5908,3.5903,3.5802,3.4921,3.5155,3.5633,3.3918,3.4432,3.5569,3.3845,3.3867,3.4392,3.3535,3.2065,3.1049,3.2718,3.3186,3.3151,3.3015,3.2937,3.2667,3.1732,3.1403,3.1077,3.0274,3.0038,2.9907,2.9551,2.9336,2.9123,2.8845,2.7832,2.7368,2.8157,2.6244,2.5265,2.6764,2.5539,2.4523,2.4615,2.5932,2.7091,2.78,2.8053,2.8081,2.7917,2.8014,2.8025,2.79,2.776,2.7361,2.6697,2.6371,2.5912,2.5401,2.4398,2.388,2.3863,2.3119,2.3728,3.8383,3.9276,3.9454,3.7831,3.5292,3.3049,3.2419,0.0,2.8699,2.908,2.881,2.8492,2.8458,2.8637,2.8488,2.7514,2.8118,0.0,0.0,0.0,0.0,0.0,0.0,0.0,0.0,0.0,0.0,0.0,0.0,3.6007,3.5994,3.5732,3.5712,3.5994,3.5428,3.5408,3.5991,3.5984,3.5984,3.5994,3.5973,3.5976,3.5994,3.6009,3.6001,0.0,3.6004,3.5994,3.599,3.5923,3.5894,3.5897,3.5901,3.5908,3.587,3.5583,3.5661,3.5739,3.4588,3.4191,3.4098,3.3486,3.3073,3.299,3.3916,3.2964,3.18,3.2829,3.3595,3.4214,3.472,3.4697,3.4205,3.2863,3.2354,3.18,3.0403,3.0079,2.9918,2.9457,2.926,2.8738,2.7268,2.7103,2.6734,2.5433,2.5008,2.48,2.4746,2.473,2.489,2.5383,2.5667,2.5967,2.6303,2.7236,2.7864,2.8014,2.7882,2.7777,2.7836,2.7789,2.7625,2.7327,2.6714,2.633,2.6142,2.5282,2.4427,2.3613,2.303,2.3015,0.0,3.6304,3.6446,3.5137,3.3607,0.0,0.0,0.0,2.8977,2.8712,2.835,2.7994,2.7637,2.7572,2.7416,2.6935,2.7414,0.0,0.0,0.0,0.0,0.0,0.0,0.0,0.0,0.0,0.0,0.0,3.5206,3.5027,3.5018,3.4713,3.4817,3.5446,3.5251,3.5423,3.5994,3.5966,3.5968,3.6001,3.6005,3.5995,3.6005,3.6005,3.6001,3.5991,3.6001,3.599,0.0,3.5929,3.5898,3.5898,3.5893,3.5895,3.585,3.5529,3.5412,3.529,3.4417,3.3793,3.3395,3.3314,3.2931,3.2634,3.339,3.3517,3.3296,3.279,3.375,3.4999,3.5193,3.5071,3.4571,3.3296,3.2535,3.1746,3.0384,3.0034,2.9817,2.938,2.9198,2.8691,2.7344,2.7175,2.6855,2.5731,2.518,2.4985,2.538,2.5016,2.508,2.6081,2.5914,2.5645,2.5437,2.64,2.7116,2.7309,2.7514,2.7642,2.7689,2.776,2.776,2.763,2.7133,2.6889,2.6889,2.6028,2.4971,2.3837,2.3511,2.3465,0.0,3.2638,0.0,0.0,0.0,0.0,0.0,0.0,0.0,2.7633,2.735,2.714,2.6349,2.587,2.5747,2.6152,0.0,0.0,0.0,0.0,0.0,0.0,0.0,0.0,0.0,0.0,3.4707,3.4707,3.39,3.34,3.34,3.2639,3.2906,3.4463,3.5359,3.5858,3.5982,3.5937,3.5937,3.5994,3.5996,3.5992,3.5988,3.5932,3.5932,0.0,3.5935,3.5947,3.599,3.5932,3.5898,3.5898,3.5907,3.5909,3.5791,3.4934,3.4603,3.4481,3.3595,3.3307,3.3295,3.3306,3.3385,3.3298,3.2366,3.3743,3.5097,3.2604,3.3691,3.5436,3.4625,3.4265,3.3889,3.3106,3.2081,3.1086,3.0278,2.9907,2.9626,2.9359,2.9132,2.8906,2.859,2.7893,2.7608,2.8265,2.6417,2.5727,2.7852,2.6017,2.5108,2.664,2.6381,2.5837,2.5207,2.569,2.6044,2.6014,2.7004,2.756,2.7496,2.7672,2.776,2.7701,2.7569,2.7496,2.7496,2.658,2.5548,2.4433,2.4413,2.4751,2.8905,0.0,3.074,3.1247,3.0359,2.9413,0.0,0.0,0.0,0.0,0.0,2.7073,2.6325,2.587,2.6,2.721,0.0,0.0,0.0,0.0,0.0,0.0,0.0,0.0,0.0,0.0,3.4707,3.4707,3.39,3.34,3.34,3.3205,3.3277,3.3664,3.4421,3.5159,3.5849,3.5879,3.5878,3.5854,3.595,3.596,3.5909,3.5298,3.5369,3.5952,3.5291,3.5381,3.5986,3.5927,3.5899,3.5898,3.5896,3.5893,3.5791,3.4988,3.4647,3.4489,3.3607,3.2867,3.2444,3.3083,3.4172,3.4936,3.3451,3.3825,3.4384,3.2449,3.33,3.4578,3.3735,3.3353,3.2993,3.2193,3.1632,3.1086,3.0278,3.0038,2.9872,2.9476,2.9299,2.8926,2.7994,2.81,2.7978,2.6957,2.6706,2.6602,2.6541,2.5439,2.5184,2.664,2.5317,2.4666,2.5501,2.5664,2.5797,2.5983,2.6247,2.6684,2.7317,2.7595,2.7701,2.763,2.7557,2.7496,2.7496,2.658,2.5698,2.4913,2.4555,2.4228,2.7353,2.8182,2.9152,2.9674,2.9142,2.8567,0.0,0.0,0.0,0.0,0.0,0.0,2.6349,2.5643,0.0,0.0,0.0,0.0,0.0,0.0,0.0,0.0,0.0,0.0,0.0,0.0,3.3945,3.3574,3.2752,3.2256,3.2248,3.2246,3.2417,3.2748,3.3134,3.3955,3.5232,3.562,3.5813,3.5856,3.5927,3.5949,3.5923,3.5087,3.5174,3.5952,3.5077,3.5186,3.5986,3.5923,3.5899,3.5898,3.5897,3.5896,3.5752,3.4555,3.4311,3.4366,3.2686,3.1793,3.1488,3.1942,3.2725,3.3293,3.238,3.2648,3.2992,3.1701,3.2837,3.4119,3.2889,3.24,3.2102,3.1668,3.1107,3.056,3.0133,2.9956,2.9805,2.9589,2.9319,2.8978,2.8352,2.8476,2.8354,2.7531,2.7296,2.7166,2.7104,2.6297,2.6152,2.728,2.5858,2.5085,2.5774,2.5253,2.5059,2.5411,2.5944,2.6495,2.7034,2.7365,2.7565,2.7659,2.7569,2.7526,2.7496,2.6785,2.6115,2.5559,2.511,2.4757,2.6521,2.7204,2.7949,2.811,2.8264,2.837,0.0,0.0,0.0,0.0,0.0,0.0,0.0,0.0,0.0,0.0,0.0,0.0,0.0,0.0,0.0,0.0,0.0,0.0,3.455,3.3883,3.3125,3.2422,3.1465,3.0897,3.0905,3.0888,3.117,3.1771,3.1916,3.2693,3.4174,3.5074,3.5641,3.5877,3.5884,3.5923,3.5968,3.5093,3.5174,3.5952,0.0,0.0,3.5986,3.5919,3.5908,3.5898,3.5894,3.5907,3.5713,3.415,3.4002,3.4244,3.1754,3.0996,3.108,3.0944,3.0996,3.1059,3.0943,3.1413,3.1806,3.0925,3.2231,3.3534,3.197,3.1391,3.1207,3.1207,3.054,2.9924,2.9972,2.9822,2.9662,2.9681,2.9378,2.9107,2.9064,2.8874,2.8725,2.8725,2.7947,2.7615,2.8308,2.7522,2.721,2.7936,2.6766,2.5958,2.6045,2.494,2.4464,2.4914,2.5796,2.6488,2.6841,2.7178,2.7504,2.7701,2.763,2.7557,2.7417,2.6989,2.6539,2.598,2.5652,2.5556,2.6283,2.6417,2.6737,2.736,2.7619,2.7701,0.0,0.0,0.0,0.0,0.0,0.0,0.0,0.0,0.0,0.0,0.0,0.0,0.0,0.0,0.0,0.0,0.0,3.5217,3.4515,3.3809,3.3359,3.3223,3.1777,3.0898,3.0898,3.0857,3.0832,3.0895,3.1553,3.2045,3.2313,3.3884,3.5038,3.5735,3.5855,3.5912,3.5884,3.5064,3.5188,3.5942,0.0,3.5162,3.5909,3.5904,3.589,3.5898,3.5898,3.5899,3.5774,3.4782,3.4497,3.4321,3.2453,3.229,3.2769,3.2031,3.2302,3.2769,3.2031,3.2324,3.2561,3.0984,3.1244,3.1792,3.0791,3.0414,3.03,3.03,3.0087,2.9888,2.9905,2.994,2.9891,2.9735,2.9644,2.9533,2.9359,2.9067,2.886,2.886,2.8449,2.8183,2.8309,2.7549,2.7165,2.7613,2.6173,2.5506,2.627,2.553,2.5175,2.5526,2.5509,2.5982,2.7083,2.7587,2.7766,2.7701,2.763,2.74,2.7002,2.6808,2.6315,2.5577,2.554,2.5406,2.6001,2.6463,2.6726,2.653,2.6368,2.63,0.0,0.0,0.0,0.0,0.0,0.0,0.0,0.0,0.0,0.0,0.0,0.0,0.0,0.0,0.0,0.0,0.0,3.4252,3.4546,3.3851,3.3223,3.2773,3.1601,3.0898,3.0898,3.0843,3.0763,3.07,3.1022,3.1414,3.1835,3.2637,3.3713,3.5055,3.5593,3.5851,3.5866,3.5061,3.5188,3.5949,0.0,3.5182,3.5958,3.5919,3.5892,3.5893,3.5898,3.5903,3.5855,3.5405,3.4372,3.3147,3.2815,3.2353,3.1821,3.1433,3.1569,3.1814,3.1338,3.1381,3.1394,3.0525,3.0893,3.1348,3.0471,3.0169,3.0109,3.0109,3.0049,3.0007,3.0007,2.9988,2.9972,2.9924,2.9805,2.968,2.9625,2.9258,2.8975,2.8997,2.8633,2.8353,2.8353,2.7924,2.7644,2.7648,2.6127,2.5493,2.6489,2.5496,2.513,2.5819,2.5771,2.6101,2.6971,2.7369,2.76,2.7659,2.7461,2.7195,2.6856,2.6385,2.5924,2.5503,2.5291,2.5246,2.5811,2.6399,2.661,2.5948,0.0,0.0,0.0,0.0,0.0,0.0,0.0,0.0,0.0,0.0,0.0,0.0,0.0,0.0,0.0,0.0,0.0,0.0,3.3368,3.3603,3.4886,3.3867,3.2949,3.2519,3.1504,3.0898,3.0898,3.081,3.0755,3.0704,3.0626,3.0898,3.1516,3.1719,3.2715,3.4502,3.5177,3.5645,3.5869,3.5264,3.5357,3.5965,3.5291,3.5377,3.5977,3.5919,3.5903,3.5901,3.5898,3.5899,3.5869,3.5803,3.4412,3.2652,3.313,3.228,3.0944,3.0731,3.0665,3.0632,3.0521,3.0389,3.0234,3.015,3.0633,3.0997,3.0333,3.0261,3.0335,3.0141,3.0087,3.0087,3.0102,3.0053,3.0038,3.0083,2.9907,2.9695,2.9536,2.9209,2.892,2.8784,2.8548,2.838,2.8398,2.8237,2.7996,2.7624,2.6225,2.5601,2.6303,2.5428,2.5163,2.5997,2.6101,2.6332,2.6691,2.7019,2.7241,2.7338,2.7164,2.6889,2.6539,2.5924,2.5572,2.5368,2.5146,2.5162,2.5737,2.569,2.5528,2.5953,0.0,0.0,0.0,0.0,0.0,0.0,0.0,0.0,0.0,0.0,0.0,0.0,0.0,0.0,0.0,0.0,0.0,3.5756,3.5067,3.4903,3.582,3.3711,3.2578,3.3262,3.1816,3.0898,3.0898,3.0771,3.0697,3.0704,3.0626,3.0635,3.0692,3.1439,3.2715,3.4502,3.4563,3.5047,3.5908,3.5836,3.589,3.6005,3.5927,3.5914,3.5914,3.5889,3.5908,3.5908,3.5898,3.5864,3.5793,3.5727,3.5127,3.4216,3.346,3.2587,3.1676,3.0862,3.0567,3.0501,3.0501,3.0321,3.0136,3.0182,3.019,3.0179,3.0057,3.0611,3.1029,3.0278,3.0038,3.0022,3.0087,3.0102,3.0083,3.0094,2.9934,2.9555,2.8815,2.8776,2.8581,2.7897,2.8087,2.8327,2.838,2.8063,2.7683,2.7365,2.633,2.5573,2.533,2.562,2.5892,2.6168,2.6241,2.6295,2.633,2.6724,2.6839,2.659,2.6674,2.6401,2.5758,2.5594,2.5346,2.5045,2.5068,2.5146,2.5767,2.5639,2.5211,2.5122,0.0,0.0,0.0,0.0,0.0,0.0,0.0,0.0,0.0,0.0,0.0,0.0,0.0,0.0,0.0,3.4456,3.4562,3.5117,3.4414,3.4023,3.4355,3.3066,3.2324,3.2637,3.1562,3.0898,3.0898,3.0816,3.0743,3.0704,3.0636,3.0607,3.0597,3.0888,3.1661,3.2831,3.392,3.4933,3.584,3.5885,3.5943,3.6001,3.5997,3.599,3.5962,3.5958,3.5966,3.5893,3.5311,3.5073,3.4977,3.4367,3.3604,3.2837,3.2518,3.1823,3.1039,3.0709,3.0567,3.055,3.0406,3.0681,3.0906,3.0257,3.0811,3.1483,3.0997,3.0742,3.0681,3.0905,3.0528,3.0128,3.0161,3.0128,3.0083,2.9984,2.9855,2.9603,2.9175,2.8929,2.8727,2.8484,2.8402,2.8174,2.7601,2.7642,2.736,2.6402,2.6034,2.5679,2.5297,2.5704,2.6099,2.645,2.6206,2.617,2.6452,2.6556,2.6607,2.6641,2.6419,2.6156,2.5828,2.553,2.5486,2.5751,2.5791,2.5791,2.5128,2.5029,2.4525,0.0,0.0,0.0,0.0,0.0,0.0,0.0,0.0,0.0,0.0,0.0,0.0,0.0,0.0,0.0,3.3624,3.3583,3.3613,3.4219,3.3535,3.3125,3.3379,3.2422,3.1894,3.2187,3.1387,3.0898,3.0898,3.084,3.0762,3.07,3.0635,3.0608,3.0598,3.0588,3.112,3.2222,3.3426,3.4497,3.5412,3.5457,3.566,3.6007,3.6001,3.5997,3.5994,3.6009,3.5822,3.5489,3.4842,3.4417,3.4074,3.3448,3.2826,3.2275,3.1978,3.1486,3.0935,3.0683,3.0568,3.0501,3.0355,3.0689,3.0969,3.0202,3.0823,3.1656,3.1447,3.0982,3.0638,3.0977,3.0596,3.0219,3.05,3.0255,3.0029,3.0213,2.9832,2.9362,2.8984,2.8787,2.8621,2.8479,2.8319,2.8004,2.7388,2.7332,2.694,2.5899,2.6071,2.6158,2.5963,2.6419,2.6813,2.7136,2.6651,2.6383,2.645,2.6295,2.6295,2.6349,2.6101,2.5848,2.5712,2.5635,2.5807,2.6204,2.6303,2.6188,2.3653,2.3661,0.0,0.0,0.0,0.0,0.0,0.0,0.0,0.0,0.0,0.0,0.0,0.0,0.0,0.0,0.0,0.0,3.2051,3.2871,3.3379,3.3398,3.2676,3.25,3.3301,3.1875,3.1269,3.2129,3.1387,3.0898,3.0898,3.084,3.0774,3.0696,3.0649,3.0598,3.0598,3.053,3.136,3.3079,3.3079,3.3616,3.4594,3.4522,3.504,3.5981,3.5981,3.5974,3.5986,3.5986,3.543,3.459,3.4588,3.401,3.3187,3.3186,3.3172,3.3035,3.2116,3.1797,3.1661,3.0868,3.051,3.0394,3.0318,3.0213,3.0113,3.0019,3.0007,3.0212,3.1142,3.1324,3.1086,3.0289,3.0049,3.0266,3.1184,3.0511,2.9943,3.0827,2.9917,2.8758,2.803,2.8173,2.8188,2.7592,2.7683,2.7847,2.7954,2.7189,2.642,2.6046,2.6611,2.7092,2.728,2.7833,2.8246,2.8373,2.7677,2.6949,2.6253,2.6007,2.5824,2.5616,2.5616,2.5486,2.531,2.5895,2.6204,2.6195,2.6463,2.6314,2.4344,2.365,0.0,0.0,0.0,0.0,0.0,0.0,0.0,0.0,0.0,0.0,0.0,0.0,0.0,0.0,0.0,0.0,3.1999,3.1854,3.1855,3.2422,3.1777,3.1387,3.1621,3.1191,3.1016,3.1269,3.1055,3.0898,3.0898,3.0879,3.0839,3.0775,3.0722,3.0644,3.0606,3.0528,3.076,3.1262,3.1323,3.246,3.4535,3.4508,3.4372,3.4212,3.482,3.4739,3.417,3.417,3.4003,3.3703,3.3086,3.2643,3.2283,3.1669,3.1405,3.1331,3.1052,3.0965,3.0926,3.0675,3.0559,3.053,3.0406,3.0695,3.0934,3.0261,3.0405,3.0703,3.0427,3.0319,3.0433,3.0849,3.0502,3.0141,3.0377,3.0042,2.9736,2.9851,2.9402,2.8874,2.8463,2.8449,2.817,2.7266,2.7566,2.7648,2.7031,2.6067,2.5541,2.5762,2.6428,2.6946,2.7151,2.7142,2.7179,2.7334,2.6247,2.5988,2.6784,2.6233,2.5844,2.568,2.5637,2.5782,2.6133,2.6021,2.643,2.7259,2.7041,2.6749,2.27,0.0,0.0,0.0,0.0,0.0,0.0,0.0,0.0,0.0,0.0,0.0,0.0,0.0,0.0,0.0,0.0,3.0326,3.1003,3.0698,3.0565,3.1055,3.0684,3.0254,2.9902,3.0176,3.0371,3.0371,3.0703,3.0898,3.0898,3.0898,3.0879,3.0801,3.0724,3.0673,3.0593,3.0563,3.0689,3.0989,3.1071,3.1945,3.3464,3.3492,3.3478,3.3437,3.3964,3.3886,3.3398,3.3398,3.3202,3.2834,3.2301,3.1854,3.1415,3.0885,3.0657,3.0597,3.0607,3.0598,3.0598,3.0598,3.0598,3.0559,3.0439,3.0674,3.0847,3.0238,3.033,3.0517,3.004,2.9907,3.0075,3.0614,3.038,3.0079,3.0307,2.9924,2.9569,2.9704,2.9218,2.8755,2.8587,2.8484,2.8092,2.7067,2.6743,2.6411,2.5933,2.5309,2.5168,2.5835,2.6744,2.7234,2.7054,2.7297,2.7332,2.7001,2.6109,2.5853,2.643,2.577,2.5307,2.5198,2.513,2.5417,2.5961,2.5994,2.6494,2.7442,2.7294,2.7003,0.0,0.0,0.0,0.0,0.0,0.0,0.0,0.0,0.0,0.0,0.0,0.0,0.0,0.0,0.0,0.0,2.8761,2.9264,2.9451,2.9485,2.9482,2.9472,2.9473,2.918,2.8379,2.9023,2.9473,2.9473,3.0293,3.0781,3.0781,3.0781,3.0781,3.0801,3.0664,3.0606,3.0616,3.0598,3.0933,3.1595,3.1739,3.1798,3.1805,3.1932,3.2467,3.328,3.3202,3.3202,3.328,3.3202,3.2714,3.1992,3.1979,3.1465,3.0699,3.0697,3.0656,3.0598,3.0598,3.0598,3.0598,3.0598,3.0598,3.0588,3.0449,3.0316,3.0169,3.0052,2.9953,2.9876,2.9891,2.9924,2.9956,2.9872,2.9855,3.0047,3.0641,2.9976,2.9413,2.9963,2.921,2.8492,2.8492,2.8362,2.7888,2.688,2.5432,2.4596,2.4876,2.4853,2.5182,2.6148,2.7356,2.7814,2.7175,2.7956,2.8041,2.7137,2.6635,2.606,2.5308,2.4891,2.4605,2.4405,2.4379,2.4678,2.5213,2.5725,2.6336,2.7035,2.7166,2.7015,0.0,0.0,0.0,0.0,0.0,0.0,0.0,0.0,0.0,0.0,0.0,0.0,0.0,0.0,0.0,2.8943,2.8663,2.8403,2.8559,2.857,2.8572,2.8582,2.8572,2.8516,2.832,2.8476,2.8574,2.8574,2.9394,2.9883,2.9883,2.9883,3.0195,3.0859,3.0156,3.0046,3.0664,3.0627,3.0689,3.0839,3.0914,3.0948,3.0984,3.1739,3.2198,3.2343,3.166,3.1758,3.2324,3.1699,3.1328,3.1157,3.109,3.0919,3.0693,3.0632,3.0606,3.0598,3.0598,3.0598,3.0598,3.0598,3.0598,3.0598,3.0579,3.0352,3.0122,3.0155,2.9965,2.9735,2.9753,2.9753,2.9717,2.9494,2.9589,2.9737,2.9738,2.9283,2.8938,2.9009,2.871,2.8406,2.8406,2.8183,2.7547,2.6204,2.4684,2.4012,2.4928,2.4939,2.5346,2.6606,2.7463,2.8127,2.86,2.7779,2.7173,2.6945,2.5543,2.4433,2.379,2.4756,2.5004,2.4343,2.4354,2.4636,2.5111,2.5001,2.5482,2.6523,2.6276,2.6353,0.0,0.0,0.0,0.0,0.0,0.0,0.0,0.0,0.0,0.0,0.0,0.0,0.0,0.0,0.0,2.8036,2.7725,2.7502,2.7615,2.7653,2.7675,2.767,2.7675,2.7519,2.7109,2.7422,2.7676,2.7676,2.8496,2.8984,2.8984,2.8984,2.9375,3.0254,2.9805,2.9736,3.0127,3.0091,3.0031,2.9989,3.0088,3.015,3.0193,3.1071,3.1276,3.0899,3.0821,3.1075,3.1487,3.1049,3.0859,3.0858,3.0782,3.0704,3.0658,3.0613,3.055,3.0471,3.0471,3.0439,3.0417,3.0449,3.0439,3.0417,3.0449,3.026,3.0075,3.009,2.9953,2.9789,2.9754,2.9681,2.957,2.9397,2.9436,2.9455,2.9148,2.8906,2.8718,2.8565,2.8466,2.8353,2.8353,2.7368,2.6249,2.5364,2.3812,2.3331,2.4929,2.5008,2.5499,2.697,2.7601,2.7736,2.7275,2.6681,2.6045,2.5361,2.4851,2.4185,2.3363,2.4627,2.4821,2.3741,2.3882,2.4185,2.4657,2.4743,2.5269,2.6194,2.5727,2.571,0.0,0.0,0.0,0.0,0.0,0.0,0.0,0.0,0.0,0.0,0.0,0.0,0.0,0.0,2.7286,2.6782,2.6611,2.6588,2.6659,2.6715,2.6757,2.6777,2.6777,2.6484,2.5762,2.6348,2.6777,2.6777,2.7578,2.8086,2.8086,2.8086,2.8476,2.9355,2.9238,2.9191,2.9279,2.9294,2.9238,2.9116,2.9236,2.9234,2.9181,3.0001,3.0003,2.9402,3.0066,3.0378,3.0442,3.0527,3.0552,3.0576,3.0657,3.0658,3.0598,3.0559,3.0441,3.0294,3.0283,3.0241,3.0196,3.0266,3.0241,3.0196,3.0247,3.0122,2.9972,3.0003,2.9943,2.9825,2.9736,2.9589,2.9437,2.9258,2.9233,2.9141,2.8749,2.8658,2.859,2.8406,2.8192,2.804,2.8083,2.6297,2.4816,2.4672,2.3274,2.2973,2.5062,2.5188,2.5746,2.7462,2.7732,2.7227,2.587,2.5633,2.5068,2.3919,2.4454,2.4388,2.3334,2.4393,2.4373,2.3007,2.3334,2.3629,2.3888,2.4334,2.4883,2.5508,2.504,2.4826,0.0,0.0,0.0,0.0,0.0,0.0,0.0,0.0,0.0,0.0,0.0,0.0,0.0,0.0,2.588,2.6588,2.606,2.5622,2.5757,2.5787,2.5814,2.5879,2.5879,2.582,2.5703,2.5801,2.5879,2.5879,2.668,2.7168,2.7168,2.7168,2.7578,2.8457,2.7734,2.7675,2.8376,2.8435,2.8415,2.8357,2.8427,2.8062,2.7383,2.8244,2.8545,2.8398,2.8496,2.8554,2.8603,2.9303,2.9588,2.9663,3.035,3.0615,3.0588,3.04,3.0317,3.0294,3.0228,3.0182,3.0122,3.0196,3.0182,3.0122,3.0196,3.0022,2.9851,3.003,2.9907,2.9683,2.9492,2.9394,2.9191,2.8664,2.8533,2.8533,2.8597,2.8482,2.8309,2.8237,2.753,2.6979,2.7134,2.5402,2.4176,2.478,2.3877,2.3792,2.5667,2.5875,2.659,2.8519,2.7788,2.7408,2.7838,2.6063,2.4878,2.4802,2.4415,2.3888,2.3156,2.3891,2.3783,2.2572,2.3187,2.3231,2.2637,2.2787,2.3112,2.3644,2.3266,2.3409,0.0,0.0,0.0,0.0,0.0,0.0,0.0,0.0,0.0,0.0,0.0,0.0,0.0,2.5482,2.5447,2.5851,2.5633,2.5425,2.5482,2.5548,2.562,2.5643,2.5683,2.5703,2.5703,2.5703,2.5703,2.5703,2.6055,2.6269,2.6269,2.6269,2.668,2.7539,2.7207,2.7168,2.7519,2.7567,2.7552,2.7524,2.7552,2.7354,2.6934,2.6875,2.707,2.75,2.7988,2.8196,2.8216,2.854,2.8671,2.8759,2.956,2.9525,2.909,2.9481,2.9255,2.8708,2.864,2.8589,2.862,2.9174,2.9311,2.9361,2.9878,2.9918,2.9805,2.9872,2.9698,2.9513,2.9414,2.9166,2.8837,2.8525,2.8335,2.8228,2.8264,2.8228,2.8109,2.7858,2.7443,2.7039,2.6723,2.5571,2.4768,2.4978,2.4281,2.4329,2.5867,2.6007,2.6421,2.7454,2.6901,2.6346,2.6072,2.4986,2.429,2.4204,2.4473,2.4326,2.3759,2.3941,2.3572,2.2532,2.2942,2.2859,2.2249,2.2555,2.2865,2.3049,2.2669,2.2606,0.0,0.0,0.0,0.0,0.0,0.0,0.0,0.0,0.0,0.0,0.0,0.0,2.4885,2.5107,2.5234,2.5284,2.533,2.5374,2.5393,2.5488,2.5559,2.5602,2.5644,2.5684,2.5703,2.5703,2.5703,2.5703,2.5703,2.5703,2.5703,2.5703,2.5996,2.6641,2.668,2.668,2.668,2.668,2.6679,2.6678,2.668,2.6637,2.6561,2.5956,2.6,2.6571,2.7238,2.751,2.7537,2.7684,2.775,2.7821,2.8607,2.8454,2.7862,2.8472,2.8186,2.7462,2.7399,2.7327,2.7361,2.8099,2.8445,2.8678,2.933,2.9636,2.9755,2.9717,2.9533,2.9338,2.9293,2.8948,2.854,2.8414,2.8191,2.8042,2.8014,2.8042,2.795,2.7542,2.7295,2.6982,2.6454,2.5665,2.5129,2.524,2.4729,2.4829,2.6092,2.6196,2.6287,2.6695,2.6138,2.5425,2.4652,2.4158,2.3872,2.3805,2.4378,2.4513,2.397,2.3897,2.3264,2.2074,2.232,2.2282,2.186,2.2332,2.2568,2.2519,2.2038,2.1837,0.0,0.0,0.0,0.0,0.0,0.0,0.0,0.0,0.0,0.0,0.0,0.0,2.4775,2.493,2.5088,2.5264,2.5293,2.5332,2.539,2.5409,2.5459,2.5584,2.5605,2.5625,2.5684,2.5703,2.5703,2.5703,2.5703,2.5703,2.5703,2.5703,2.5723,2.5762,2.5762,2.5762,2.5762,2.5762,2.5762,2.5762,2.578,2.577,2.5761,2.5648,2.5595,2.5571,2.5615,2.5634,2.5703,2.6455,2.6768,2.6848,2.7586,2.7853,2.7783,2.7637,2.7514,2.7399,2.7327,2.7234,2.7133,2.7328,2.784,2.8426,2.8534,2.9062,2.9645,2.9755,2.9494,2.9188,2.906,2.8755,2.8414,2.8109,2.7975,2.7917,2.7986,2.7996,2.7911,2.7487,2.6762,2.6179,2.6199,2.5146,2.458,2.5513,2.537,2.5522,2.6618,2.6604,2.6704,2.7272,2.596,2.5142,2.5315,2.4217,2.3762,2.4342,2.4156,2.3844,2.3387,2.332,2.254,2.0911,2.1153,2.1286,2.1229,2.1547,2.1609,2.1464,2.0987,2.0801,0.0,0.0,0.0,0.0,0.0,0.0,0.0,0.0,0.0,0.0,0.0,2.4099,2.4543,2.4818,2.5077,2.5264,2.5303,2.5303,2.5322,2.537,2.5416,2.5467,2.5559,2.5605,2.5625,2.5664,2.5703,2.5703,2.5703,2.5703,2.5703,2.5703,2.5703,2.5703,2.5703,2.5693,2.5698,2.5659,2.5629,2.5645,2.5634,2.5601,2.557,2.5557,2.5511,2.5505,2.5505,2.5503,2.5519,2.5817,2.5873,2.588,2.6698,2.6614,2.6041,2.6313,2.611,2.5699,2.5456,2.5475,2.5649,2.6212,2.6979,2.7802,2.8273,2.9006,2.9645,2.9513,2.9254,2.8971,2.8731,2.8448,2.8191,2.7986,2.7677,2.743,2.7365,2.7487,2.7487,2.7161,2.6635,2.6219,2.5928,2.5565,2.5582,2.6421,2.6467,2.6447,2.661,2.6541,2.6222,2.5503,2.4795,2.4316,2.4273,2.4045,2.4043,2.4264,2.4757,2.4661,2.3773,2.3386,2.2566,2.1198,2.0856,2.0723,2.0749,2.0848,2.0898,2.0947,2.0712,2.0612,0.0,0.0,0.0,0.0,0.0,0.0,0.0,0.0,0.0,0.0,0.0,2.3842,2.4391,2.4678,2.4911,2.5152,2.5264,2.5303,2.5303,2.5341,2.537,2.5409,2.5479,2.5542,2.5605,2.5644,2.5684,2.5703,2.5703,0.0,2.5703,2.5703,2.5703,2.5703,2.5703,2.5696,2.5712,2.5665,2.5622,2.559,2.5574,2.5538,2.5509,2.5495,2.5511,2.5511,2.5511,2.5511,2.5484,2.5429,2.5359,2.536,2.5836,2.5576,2.4977,2.523,2.5022,2.458,2.4339,2.4338,2.4571,2.5198,2.5997,2.6851,2.7412,2.8179,2.88,2.8536,2.8455,2.8388,2.8128,2.8049,2.7957,2.7724,2.7369,2.7083,2.6872,2.7002,2.7066,2.669,2.6488,2.6279,2.5848,2.5844,2.618,2.6902,2.6765,2.6515,2.6493,2.6039,2.5302,2.4348,2.3925,2.3668,2.3566,2.3748,2.3952,2.4141,2.4529,2.434,2.3473,2.2954,2.2127,2.0978,2.0578,2.0448,2.0511,2.0461,2.0498,2.0599,2.0448,2.0498,0.0,0.0,0.0,0.0,0.0,0.0,0.0,0.0,0.0,0.0,2.3419,2.386,2.4373,2.4495,2.4604,2.4949,2.5163,2.5284,2.5303,2.5303,2.5322,2.539,2.5409,2.5444,2.5583,2.5605,2.5625,2.5684,2.5703,2.5703,2.5703,2.5703,2.5703,2.5703,2.5703,2.5693,2.5701,2.5704,2.5663,2.5592,2.5528,2.5495,2.5509,2.5495,2.5511,2.5511,2.5511,2.5511,2.5476,2.5284,2.5244,2.5264,2.5006,2.4855,2.4747,2.4484,2.4336,2.4266,2.4135,2.4057,2.4037,2.432,2.493,2.5634,2.5899,2.6531,2.7117,2.686,2.7156,2.7515,2.7241,2.7549,2.7754,2.7307,2.7083,2.6888,2.6556,2.6556,2.6539,2.6175,2.6262,2.6279,2.5954,2.5897,2.6163,2.6961,2.6168,2.5689,2.6405,2.5133,2.4151,2.4078,2.3494,2.3246,2.3466,2.3393,2.354,2.4048,2.3512,2.2902,2.2301,2.1987,2.1224,2.0003,2.0309,2.0511,2.0461,2.0435,2.0422,2.0422,2.0283,2.0334,2.0876,0.0,0.0,0.0,0.0,0.0,0.0,0.0,0.0,2.1721,2.2617,2.3459,2.3842,2.4229,2.4575,2.4814,2.4981,2.5122,2.5274,2.5303,2.5303,2.5322,2.537,2.5398,2.5444,2.5508,2.5559,0.0,2.5625,2.5644,2.5703,2.5703,2.5703,2.5703,2.5654,2.5635,2.5639,2.5592,2.5522,2.5453,2.544,2.5421,2.544,2.5476,2.5511,2.5511,2.5511,2.5432,2.5351,2.5293,2.5253,2.5209,2.4936,2.467,2.4416,2.4155,2.404,2.3963,2.3759,2.3801,2.402,2.4136,2.4725,2.5407,2.5467,2.602,2.6565,2.6289,2.634,2.6507,2.6783,2.7093,2.7355,2.7115,2.6674,2.6193,2.5961,2.5811,2.5738,2.5977,2.5832,2.5642,2.553,2.5621,2.5961,2.6755,2.659,2.6253,2.6036,2.5819,2.519,2.3816,2.3733,2.3626,2.3363,2.3672,2.3888,2.3923,2.3892,2.3376,2.2328,2.2065,2.1288,1.9875,2.0296,2.036,2.0144,2.0233,2.0334,2.0448,2.0296,2.0489,0.0,0.0,0.0,0.0,0.0,0.0,2.0144,2.0639,2.1175,0.0,2.2449,2.33,2.3649,2.4136,2.4578,2.4775,2.4917,2.5077,2.5274,2.5303,2.5303,2.5303,2.5322,2.537,2.5409,2.5437,2.5492,2.555,2.5554,2.5597,2.5644,2.5684,2.5703,2.5703,2.5668,2.5626,2.5601,2.5557,2.5481,2.5401,2.5429,2.5429,2.5401,2.5464,2.5511,2.5503,2.5432,2.5369,2.5303,2.5141,2.5091,2.505,2.4752,2.4487,2.4265,2.3941,2.3777,2.3699,2.3518,2.358,2.3735,2.3881,2.4231,2.4613,2.4697,2.5027,2.5287,2.5023,2.513,2.5405,2.593,2.6161,2.6241,2.6213,2.578,2.5402,2.5433,2.5301,2.5278,2.5626,2.553,2.5416,2.5454,2.5454,2.5712,2.6444,2.6062,2.5645,2.5481,2.5175,2.4537,2.3467,2.3449,2.3385,2.3142,2.3418,2.3591,2.3499,2.3152,2.2641,2.1947,2.1488,2.0836,1.9875,2.0296,2.036,1.999,2.0093,2.0144,2.0195,2.008,2.0297,0.0,0.0,0.0,0.0,0.0,0.0,2.0177,2.0526,2.0969,0.0,0.0,2.2894,2.3236,2.3742,2.4131,2.4248,2.4601,2.4941,2.5264,2.5303,2.5303,2.5303,2.5303,2.5322,2.539,2.539,2.5428,2.5486,2.5498,2.5527,2.5605,2.5664,2.5684,2.5703,2.5684,2.5654,2.5611,2.56,2.5534,2.5401,2.5464,2.5464,2.5401,2.5464,2.5511,2.5484,2.5351,2.5293,2.5236,2.4937,2.4855,2.4874,2.4524,2.432,2.4229,2.3819,2.3606,2.3495,2.3412,2.336,2.336,2.358,2.3606,2.3588,2.378,2.3824,2.3762,2.3482,2.385,2.4384,2.4885,2.4913,2.4842,2.4913,2.4691,2.4515,2.4898,2.4879,2.491,2.5201,2.5317,2.5378,2.5492,2.5355,2.5424,2.595,2.502,2.4392,2.4785,2.3896,2.3171,2.3097,2.2989,2.2913,2.2902,2.2888,2.2888,2.2888,2.2072,2.1533,2.1417,2.0775,2.0322,2.0027,2.0348,2.031,1.999,1.999,1.9926,1.9798,1.9798,2.0016,0.0,0.0,0.0,0.0,0.0,0.0,1.86,1.8765,1.9042,0.0,1.9701,2.0277,2.0803,2.1233,2.14,2.1078,2.2611,2.4214,2.5165,2.5303,2.5303,2.5303,2.5303,2.5303,2.5322,2.5322,2.5341,2.5409,2.5475,2.5525,2.5605,2.5605,2.5644,2.5703,2.5644,2.5615,2.5605,2.5549,2.5506,2.5484,2.5484,2.5484,2.5484,2.5484,2.5511,2.5484,2.5351,2.5214,2.5046,2.4917,2.4915,2.4921,2.4424,2.4173,2.402,2.3674,2.3491,2.3412,2.3336,2.3336,2.3383,2.3453,2.3365,2.3295,2.3371,2.3348,2.323,2.306,2.3562,2.4085,2.3876,2.4032,2.4193,2.395,2.3608,2.3462,2.403,2.3904,2.3998,2.4894,2.5084,2.5084,2.5123,2.4846,2.4733,2.5044,2.4503,2.4055,2.396,2.3956,2.3714,2.2991,2.3305,2.336,2.2946,2.2888,2.2888,2.2888,2.2932,2.2484,2.1431,2.1659,2.1367,2.0329,2.0501,2.0393,1.999,1.999,1.9926,1.9798,1.9798,1.9914,0.0,0.0,0.0,1.9797,0.0,0.0,0.0,1.8327,1.8453,1.8408,1.8945,1.9448,1.9607,0.0,2.0302,2.0038,2.1803,2.3089,2.2753,2.4107,2.5152,2.5152,2.5152,2.5118,2.5068,2.5107,2.5152,2.519,2.5349,2.5451,2.5498,2.5522,2.5574,2.5644,2.5625,2.5599,2.5601,2.5575,2.5537,2.5511,2.5476,2.5456,2.5511,2.5511,2.5492,2.5492,2.5254,2.5111,2.5034,2.4814,2.4764,2.4817,2.4442,2.4174,2.3963,2.3756,2.3558,2.3448,2.336,2.336,2.3383,2.3313,2.3241,2.3168,2.3193,2.3119,2.297,2.2842,2.298,2.3148,2.2852,2.2789,2.2799,2.2899,2.2657,2.2643,2.3312,2.3319,2.336,2.3994,2.423,2.441,2.4686,2.4482,2.4234,2.4147,2.3852,2.361,2.3334,2.3466,2.3373,2.2931,2.3132,2.319,2.2917,2.2797,2.2661,2.2463,2.2443,2.2079,2.1218,2.1251,2.0872,2.0026,1.9986,1.9902,1.9681,1.9681,1.9772,1.9875,1.9552,1.9766,0.0,0.0,0.0,0.0,0.0,1.8604,0.0,0.0,0.0,1.7961,1.8282,0.0,0.0,0.0,0.0,0.0,0.0,0.0,0.0,2.1892,0.0,2.3968,2.4626,2.4885,2.4417,2.4317,2.4493,2.496,2.4748,2.4834,2.536,2.5452,2.5517,2.559,2.5584,2.5595,2.5586,2.5592,2.5567,2.5476,2.5429,2.5429,2.5484,2.5484,2.5499,2.548,2.5154,2.5034,2.5053,2.4666,2.458,2.4666,2.4461,2.4229,2.4001,2.384,2.3642,2.3471,2.3407,2.336,2.3313,2.3217,2.3144,2.307,2.307,2.297,2.2816,2.2642,2.2419,2.2254,2.2149,2.1812,2.1617,2.2034,2.1956,2.1952,2.2646,2.2747,2.2772,2.3156,2.3275,2.3551,2.4234,2.4094,2.3782,2.345,2.3334,2.3216,2.2933,2.2888,2.2888,2.2888,2.2843,2.2797,2.2843,2.2615,2.2324,2.1949,2.1803,2.1446,2.0861,2.0523,2.0069,1.9617,1.9519,1.9478,1.942,1.9303,1.946,1.9772,1.9295,1.9575,0.0,0.0,0.0,0.0,1.8998,0.0,0.0,0.0,1.6659,1.669,0.0,0.0,0.0,0.0,0.0,0.0,0.0,0.0,1.6855,1.812,1.9474,2.0301,2.3281,2.4626,2.3019,2.2154,2.2629,2.4822,2.2997,2.2824,2.5264,2.5418,2.5446,2.5511,2.5567,2.5573,2.55,2.5569,2.553,2.5415,2.5393,2.5401,2.5401,2.5464,2.5492,2.5484,2.5143,2.5005,2.4994,2.4704,2.4599,2.4599,2.4321,2.4173,2.4059,2.3798,2.3598,2.3383,2.3336,2.3241,2.3144,2.3119,2.3045,2.2902,2.2902,2.2842,2.2642,2.2281,2.2153,2.2116,2.2183,2.2018,2.1848,2.1922,2.1608,2.1434,2.2011,2.1734,2.1757,2.298,2.274,2.2678,2.3551,2.3595,2.345,2.3406,2.3127,2.2933,2.2888,2.2888,2.2888,2.2888,2.2615,2.2509,2.2615,2.2184,2.1793,2.1664,2.1988,2.1656,2.0348,2.0122,1.992,1.9629,1.9846,1.9751,1.942,1.9028,1.891,1.8922,1.9214,1.9353,0.0,0.0,0.0,0.0,0.0,0.0,1.7277,0.0,1.5919,0.0,0.0,0.0,0.0,0.0,0.0,0.0,1.6089,0.0,0.0,0.0,1.8409,0.0,0.0,0.0,2.185,2.2847,2.3888,2.4922,2.4138,2.4124,2.5274,2.5341,2.537,2.5447,2.5471,2.5492,2.5495,2.5485,2.5465,2.5404,2.5404,2.5412,2.5456,2.5484,2.5448,2.5311,2.5088,2.4962,2.4883,2.4639,2.4564,2.4599,2.4479,2.4266,2.404,2.3921,2.3667,2.3383,2.3241,2.3168,2.3144,2.302,2.2919,2.2842,2.2764,2.2535,2.2226,2.1998,2.1688,2.1531,2.192,2.184,2.1647,2.1628,2.1414,2.1203,2.1282,2.1134,2.1196,2.1981,2.2063,2.2077,2.248,2.2754,2.2889,2.2709,2.2828,2.2843,2.2752,2.2661,2.2706,2.2992,2.2417,2.2217,2.2632,2.1874,2.1251,2.1006,2.0927,2.0608,1.997,1.9934,1.9703,1.9263,1.9376,1.9318,1.9171,1.8755,1.8363,1.8149,1.8159,1.8656,2.2214,0.0,0.0,0.0,0.0,0.0,0.0,0.0,0.0,0.0,0.0,0.0,0.0,0.0,0.0,0.0,0.0,1.5265,0.0,0.0,0.0,0.0,0.0,0.0,0.0,2.1766,2.309,2.3719,0.0,2.4434,2.5194,2.5264,2.5322,2.537,2.539,2.5418,2.5447,2.5428,2.5428,2.5404,2.5404,2.5432,2.5476,2.5476,2.5376,2.5187,2.5061,2.4923,2.478,2.4607,2.4564,2.4599,2.458,2.432,2.3981,2.3981,2.371,2.3289,2.3144,2.3119,2.3077,2.2944,2.2773,2.2598,2.2508,2.2169,2.1794,2.1661,2.1485,2.1471,2.1951,2.2034,2.1957,2.192,2.1697,2.1398,2.1146,2.0954,2.0937,2.1302,2.1458,2.1554,2.1554,2.2077,2.2417,2.2231,2.2509,2.2615,2.237,2.2231,2.2278,2.254,2.1874,2.1636,2.2189,2.1321,2.061,2.0359,1.9871,1.9564,1.9564,1.9564,1.9384,1.8999,1.8881,1.8927,1.9111,1.8506,1.8059,1.7781,1.747,1.8076,0.0,0.0,0.0,2.007,0.0,0.0,0.0,0.0,1.7742,0.0,0.0,0.0,0.0,0.0,0.0,0.0,0.0,0.0,0.0,0.0,0.0,0.0,0.0,0.0,0.0,1.7205,1.8256,0.0,2.0964,2.226,2.4872,2.5184,2.5303,2.5303,2.537,2.537,2.5313,2.5438,2.5456,2.5398,2.5404,2.5393,2.5395,2.5393,2.534,2.5192,2.5056,2.4929,2.479,2.466,2.4599,2.458,2.4528,2.4248,2.3917,2.3976,2.362,2.3119,2.3095,2.302,2.2919,2.2893,2.2554,2.2124,2.2192,2.1836,2.1386,2.1262,2.1682,2.2223,2.2525,2.2917,2.3225,2.3225,2.2645,2.2016,2.1816,2.1364,2.1047,2.1349,2.1104,2.0845,2.0845,2.1589,2.2231,2.2184,2.2231,2.2091,2.1664,2.1616,2.1554,2.1286,2.0746,2.061,2.1042,2.0422,1.9926,1.9668,1.9263,1.9011,1.9011,1.9011,1.9011,1.8987,1.8548,1.8643,1.9291,1.8406,1.8002,1.7966,1.777,1.79,0.0,0.0,2.171,2.1112,0.0,0.0,0.0,0.0,0.0,0.0,0.0,0.0,0.0,0.0,0.0,0.0,0.0,0.0,0.0,0.0,0.0,0.0,0.0,0.0,0.0,0.0,0.0,0.0,2.2371,0.0,2.4948,2.5057,2.5163,2.5303,2.5322,2.5322,2.5303,2.5341,2.538,2.5397,2.5397,2.5387,2.5393,2.5401,2.5255,2.4993,2.4987,2.4861,2.4591,2.4545,2.4528,2.4528,2.4512,2.4192,2.3774,2.3837,2.3513,2.302,2.2944,2.2764,2.2569,2.2569,2.2215,2.1761,2.179,2.1415,2.1086,2.1482,2.1475,2.1501,2.2288,2.2458,2.2357,2.2173,2.1946,2.17,2.1318,2.1108,2.1075,2.1349,2.1055,2.0795,2.0795,2.0858,2.0921,2.1006,2.1286,2.1431,2.1104,2.1006,2.1055,2.1321,2.0547,2.0258,2.0944,2.0207,1.9617,1.9368,1.9105,1.8987,1.8987,1.8987,1.8881,1.8548,1.8387,1.8258,1.8245,1.7628,1.7582,1.7967,1.723,1.7203,2.3924,2.326,0.0,2.1614,2.1029,0.0,1.9244,0.0,0.0,0.0,0.0,0.0,0.0,0.0,0.0,0.0,0.0,0.0,0.0,0.9655,0.0,0.0,0.0,0.0,0.0,0.0,0.0,2.0408,2.2117,2.3614,0.0,2.4943,2.5018,2.5192,2.5149,2.5126,2.5118,2.5149,2.5182,2.5224,2.5243,2.5253,2.5216,2.5216,2.5088,2.4842,2.4869,2.4741,2.4495,2.4495,2.4495,2.4495,2.4461,2.4173,2.3753,2.3774,2.3422,2.2902,2.2703,2.2508,2.2377,2.2248,2.1853,2.143,2.1477,2.1199,2.0945,2.1381,2.1445,2.1505,2.215,2.2278,2.2192,2.2001,2.1837,2.1685,2.1411,2.1213,2.115,2.1183,2.0858,2.056,2.0409,2.0067,1.9926,2.0271,2.066,2.0795,2.0409,2.0359,2.0396,2.0597,2.0003,1.9811,2.0396,1.9862,1.9473,1.9275,1.9179,1.903,1.8774,1.8844,1.8666,1.8214,1.7988,1.8036,1.8349,1.7524,1.7472,1.8145,1.7472,1.7234]},{"header":{"parameterUnit":"m.s-1","parameterCategory":1,"la1":30.6,"la2":29.2853,"lo1":-89.7004,"lo2":-87.6739,"dy":0.0162,"dx":0.0183,"nx":112,"ny":82,"refTime":"2023-05-15T12:00:00:Z","depth":0,"parameterNumber":3,"parameterNumberName":"V-component_of_WINDS"},"data":[0.0,0.0,0.0,0.0,0.0,0.0,0.0,0.0,0.0,0.0,0.0,0.0,0.0,0.0,0.0,0.0,0.0,0.0,0.0,0.0,0.0,0.0,0.0,0.0,0.0,0.0,0.0,0.0,0.0,0.0,0.0,0.0,0.0,0.0,0.0,0.0,0.0,0.0,0.0,0.0,0.0,0.0,0.0,0.0,0.0,0.0,0.0,0.0,0.0,0.0,0.0,0.0,0.0,0.0,0.0,0.0,0.0,0.0,0.0,0.0,0.0,0.0,0.0,0.0,0.0,0.0,0.0,0.0,0.0,0.0,0.0,0.0,0.0,0.0,0.0,0.0,0.0,0.0,0.0,0.0,0.0,0.0,0.0,0.0,0.0,0.0,0.0,0.0,0.0,0.0,-0.7937,-0.8457,-0.9051,-0.9232,-0.8651,-0.5431,-0.4449,-0.6885,0.0,0.0,0.0,0.0,0.0,0.0,0.0,0.0,0.0,0.0,0.0,0.0,0.0,0.0,0.0,0.0,0.0,0.0,0.0,0.0,0.0,0.0,0.0,0.0,0.0,0.0,0.0,0.0,0.0,0.0,0.0,0.0,0.0,0.0,0.0,0.0,0.0,0.0,0.0,0.0,0.0,0.0,0.0,0.0,0.0,0.0,0.0,0.0,0.0,0.0,0.0,0.0,0.0,0.0,0.0,0.0,0.0,0.0,0.0,0.0,0.0,0.0,0.0,0.0,0.0,0.0,0.0,0.0,0.0,0.0,0.0,0.0,0.0,0.0,0.0,0.0,0.0,0.0,0.0,0.0,0.0,0.0,0.0,0.0,0.0,0.0,0.0,0.0,0.0,0.0,0.0,0.0,0.0,0.0,0.0,0.0,0.0,0.0,0.0,0.0,0.0,0.0,0.0,0.0,-0.9371,-1.1842,-1.172,-1.0823,-0.9296,-0.7015,-0.5661,-0.5549,0.0,0.0,0.0,0.0,0.0,0.0,0.0,0.0,0.0,0.0,0.0,0.0,0.0,0.0,0.0,0.0,0.0,0.0,0.0,0.0,0.0,0.0,0.0,0.0,0.0,0.0,0.0,0.0,0.0,0.0,0.0,0.0,0.0,0.0,0.0,0.0,0.0,0.0,0.0,0.0,0.0,0.0,0.0,0.0,0.0,0.0,0.0,0.0,0.0,0.0,0.0,0.0,0.0,0.0,0.0,0.0,0.0,0.0,0.0,0.0,0.0,0.0,0.0,0.0,0.0,0.0,0.0,0.0,0.0,0.0,0.0,0.0,0.0,0.0,0.0,0.0,0.0,0.0,0.0,0.0,0.0,0.0,0.0,0.0,0.0,0.0,0.0,0.0,0.0,0.0,0.0,0.0,0.0,0.0,0.0,0.0,0.0,0.0,0.0,0.0,0.0,0.0,0.0,-0.886,-1.0318,-1.2638,-1.1953,-1.0841,-0.9633,-0.7461,-0.6328,-0.6627,-0.5502,0.0,0.0,0.0,0.0,0.0,0.0,0.0,0.0,0.0,0.0,0.0,0.0,0.0,0.0,0.0,0.0,0.0,0.0,0.0,0.0,0.0,0.0,0.0,0.0,0.0,0.0,0.0,0.0,0.0,0.0,0.0,0.0,0.0,0.0,0.0,0.0,0.0,0.0,0.0,0.0,0.0,0.0,0.0,0.0,0.0,0.0,0.0,0.0,0.0,0.0,0.0,0.0,0.0,0.0,0.0,0.0,0.0,0.0,0.0,0.0,0.0,0.0,0.0,0.0,0.0,0.0,0.0,0.0,0.0,0.0,0.0,0.0,0.0,0.0,0.0,0.0,0.0,0.0,0.0,0.0,0.0,0.0,0.0,0.0,0.0,0.0,0.0,0.0,0.0,0.0,0.0,0.0,0.0,0.0,0.0,0.0,0.0,0.0,0.0,0.0,0.0,0.0,-1.0064,-1.1093,-1.2716,-1.1792,-1.0687,-0.9783,-0.7677,-0.6738,-0.7552,-0.6501,0.0,0.0,0.0,0.0,0.0,0.0,0.0,0.0,0.0,0.0,0.0,0.0,0.0,0.0,0.0,0.0,0.0,0.0,0.0,0.0,0.0,0.0,0.0,0.0,0.0,0.0,0.0,0.0,0.0,0.0,0.0,0.0,0.0,0.0,0.0,0.0,0.0,0.0,0.0,0.0,0.0,0.0,0.0,0.0,0.0,0.0,0.0,0.0,0.0,0.0,0.0,0.0,0.0,0.0,0.0,0.0,0.0,0.0,0.0,0.0,0.0,0.0,0.0,0.0,0.0,0.0,0.0,0.0,0.0,0.0,0.0,0.0,0.0,0.0,0.0,0.0,0.0,0.0,0.0,0.0,0.0,0.0,0.0,0.0,0.0,0.0,0.0,0.0,0.0,0.0,0.0,0.0,0.0,0.0,0.0,0.0,0.0,0.0,0.0,0.0,0.0,0.0,-1.0803,-1.1834,-1.2793,-1.2187,-1.119,-0.9834,-0.8017,-0.6902,-0.6784,-0.6108,0.0,0.0,0.0,0.0,0.0,0.0,0.0,0.0,0.0,0.0,0.0,0.0,0.0,0.0,0.0,0.0,0.0,0.0,0.0,0.0,0.0,0.0,0.0,0.0,0.0,0.0,0.0,0.0,0.0,0.0,0.0,0.0,0.0,0.0,0.0,0.0,0.0,0.0,0.0,0.0,0.0,0.0,0.0,0.0,0.0,0.0,0.0,0.0,0.0,0.0,0.0,0.0,0.0,0.0,0.0,0.0,0.0,0.0,0.0,0.0,0.0,0.0,0.0,0.0,0.0,0.0,0.0,0.0,0.0,0.0,0.0,0.0,0.0,0.0,0.0,0.0,0.0,0.0,0.0,0.0,0.0,0.0,0.0,0.0,0.0,0.0,0.0,0.0,0.0,0.0,0.0,0.0,0.0,0.0,0.0,0.0,0.0,0.0,0.0,0.0,0.0,0.0,-1.0876,-1.1827,0.0,-1.2236,-1.146,-1.0711,-0.8638,-0.7513,-0.7791,0.0,0.0,0.0,0.0,0.0,0.0,0.0,0.0,0.0,0.0,0.0,0.0,0.0,0.0,0.0,0.0,0.0,0.0,0.0,0.0,0.0,0.0,0.0,0.0,0.0,0.0,0.0,0.0,0.0,0.0,0.0,0.0,0.0,0.0,0.0,0.0,0.0,0.0,0.0,0.0,0.0,0.0,0.0,0.0,0.0,0.0,0.0,0.0,0.0,0.0,0.0,0.0,0.0,0.0,0.0,0.0,0.0,0.0,0.0,0.0,0.0,0.0,0.0,0.0,0.0,0.0,0.0,0.0,0.0,0.0,0.0,0.0,0.0,0.0,0.0,0.0,0.0,0.0,0.0,0.0,0.0,0.0,0.0,0.0,0.0,0.0,0.0,0.0,0.0,0.0,0.0,0.0,0.0,0.0,0.0,0.0,0.0,0.0,0.0,0.0,0.0,0.0,-0.9739,-1.0822,-1.1751,0.0,-1.2168,-1.1627,-1.0858,-0.8889,-0.7823,-0.8141,0.0,0.0,0.0,0.0,0.0,0.0,0.0,0.0,0.0,0.0,0.0,0.0,0.0,0.0,0.0,0.0,0.0,0.0,0.0,0.0,0.0,0.0,0.0,0.0,0.0,0.0,0.0,0.0,0.0,0.0,0.0,0.0,0.0,0.0,0.0,0.0,0.0,0.0,0.0,0.0,0.0,0.0,0.0,0.0,0.0,0.0,0.0,0.0,0.0,0.0,0.0,0.0,0.0,0.0,0.0,0.0,0.0,0.0,0.0,0.0,0.0,0.0,0.0,0.0,0.0,0.0,0.0,0.0,0.0,0.0,0.0,0.0,0.0,0.0,0.0,0.0,0.0,0.0,0.0,0.0,0.0,0.0,0.0,0.0,0.0,0.0,0.0,0.0,0.0,0.0,0.0,0.0,0.0,0.0,0.0,0.0,0.0,0.0,0.0,0.0,0.0,0.0,-0.941,-1.0711,-1.1596,-1.1606,-1.1953,-1.1586,-1.0034,-0.8613,-0.7726,0.0,0.0,0.0,0.0,0.0,0.0,0.0,0.0,0.0,0.0,0.0,0.0,0.0,0.0,0.0,0.0,0.0,0.0,0.0,0.0,0.0,0.0,0.0,0.0,0.0,0.0,0.0,0.0,0.0,0.0,0.0,0.0,0.0,0.0,0.0,0.0,0.0,0.0,0.0,0.0,0.0,0.0,0.0,0.0,0.0,0.0,0.0,0.0,0.0,0.0,0.0,0.0,0.0,0.0,0.0,0.0,0.0,0.0,0.0,0.0,0.0,0.0,0.0,0.0,0.0,0.0,0.0,0.0,0.0,0.0,0.0,0.0,0.0,0.0,0.0,0.0,0.0,0.0,0.0,0.0,0.0,0.0,0.0,0.0,0.0,0.0,0.0,0.0,0.0,0.0,0.0,0.0,0.0,0.0,0.0,0.0,0.0,0.0,0.0,0.0,0.0,0.0,0.0,-0.9427,-1.013,-1.0785,-1.1393,-1.1363,-1.0939,-1.0099,-0.8648,-0.8114,-0.8794,0.0,0.0,0.0,0.0,0.0,0.0,0.0,0.0,0.0,0.0,0.0,0.0,0.0,0.0,0.0,0.0,0.0,0.0,0.0,0.0,0.0,0.0,0.0,0.0,0.0,0.0,0.0,0.0,0.0,0.0,0.0,0.0,0.0,0.0,0.0,0.0,0.0,0.0,0.0,0.0,0.0,0.0,0.0,0.0,0.0,0.0,0.0,0.0,0.0,0.0,0.0,0.0,0.0,0.0,0.0,0.0,0.0,0.0,0.0,0.0,0.0,0.0,0.0,0.0,0.0,0.0,0.0,0.0,0.0,0.0,0.0,0.0,0.0,0.0,0.0,0.0,0.0,0.0,0.0,0.0,0.0,0.0,0.0,0.0,0.0,0.0,0.0,0.0,0.0,0.0,0.0,0.0,0.0,0.0,0.0,0.0,0.0,0.0,0.0,0.0,0.0,0.0,-0.9098,-0.9756,-1.0218,-1.0522,-1.0749,-1.0556,-0.9648,-0.8648,-0.8136,-0.8359,0.0,0.0,0.0,0.0,0.0,0.0,0.0,0.0,0.0,0.0,0.0,0.0,0.0,0.0,0.0,0.0,0.0,0.0,0.0,0.0,0.0,0.0,0.0,0.0,0.0,0.0,0.0,0.0,0.0,0.0,0.0,0.0,0.0,0.0,0.0,0.0,0.0,0.0,0.0,0.0,0.0,0.0,0.0,0.0,0.0,0.0,0.0,0.0,0.0,0.0,0.0,0.0,0.0,0.0,0.0,0.0,0.0,0.0,0.0,0.0,0.0,0.0,0.0,0.0,0.0,0.0,0.0,0.0,0.0,0.0,0.0,0.0,0.0,0.0,0.0,0.0,0.0,0.0,0.0,0.0,0.0,0.0,0.0,0.0,0.0,0.0,0.0,0.0,0.0,0.0,0.0,0.0,0.0,0.0,0.0,0.0,0.0,0.0,0.0,0.0,0.0,0.0,-0.8594,-0.9373,-0.9742,-0.9355,-1.0134,-1.0186,-0.8894,-0.8512,-0.7946,-0.7056,0.0,0.0,0.0,0.0,0.0,0.0,0.0,0.0,0.0,0.0,0.0,0.0,0.0,0.0,0.0,0.0,0.0,0.0,0.0,0.0,0.0,0.0,0.0,0.0,0.0,0.0,0.0,0.0,0.0,0.0,0.0,0.0,0.0,0.0,0.0,0.0,0.0,0.0,0.0,0.0,0.0,0.0,0.0,0.0,0.0,0.0,0.0,0.0,0.0,0.0,0.0,0.0,0.0,0.0,0.0,0.0,0.0,0.0,0.0,0.0,-0.3134,0.0,0.0,0.0,0.0,0.0,0.0,0.0,0.0,0.0,0.0,0.0,0.0,0.0,0.0,0.0,0.0,0.0,0.0,0.0,0.0,0.0,0.0,0.0,0.0,0.0,0.0,0.0,0.0,0.0,0.0,0.0,0.0,0.0,0.0,0.0,0.0,0.0,0.0,0.0,0.0,0.0,-0.8431,-0.8462,-0.8602,-0.9248,-0.9271,-0.9134,-0.8847,-0.8218,-0.8029,-0.8423,-0.6914,0.0,0.0,0.0,0.0,0.0,0.0,0.0,0.0,0.0,0.0,0.0,0.0,0.0,0.0,0.0,0.0,0.0,0.0,0.0,0.0,0.0,0.0,0.0,0.0,0.0,0.0,0.0,0.0,0.0,0.0,0.0,0.0,0.0,0.0,0.0,0.0,0.0,0.0,0.0,0.0,0.0,0.0,0.0,0.0,0.0,0.0,0.0,0.0,0.0,0.0,0.0,0.0,0.0,0.0,0.0,0.0,0.0,0.0,0.0,0.0,-0.4071,0.0,0.0,0.0,0.0,0.0,0.0,0.0,0.0,0.0,0.0,0.0,0.0,0.0,0.0,0.0,0.0,0.0,0.0,0.0,0.0,0.0,0.0,0.0,0.0,0.0,0.0,0.0,0.0,0.0,0.0,0.0,0.0,0.0,0.0,0.0,0.0,0.0,0.0,0.0,0.0,-0.8527,-0.8315,-0.8357,-0.8981,-0.909,-0.9123,-0.9062,-0.8781,-0.853,-0.8368,-0.7667,0.0,0.0,0.0,0.0,0.0,0.0,0.0,0.0,0.0,0.0,0.0,0.0,0.0,0.0,0.0,0.0,0.0,0.0,0.0,0.0,0.0,0.0,0.0,0.0,0.0,0.0,0.0,0.0,0.0,0.0,0.0,0.0,0.0,0.0,0.0,0.0,0.0,0.0,0.0,0.0,0.0,0.0,0.0,0.0,0.0,0.0,0.0,0.0,0.0,0.0,0.0,0.0,0.0,-0.5606,-0.6446,-0.7769,-0.8143,-0.8261,-0.8069,-0.5896,-0.5741,-0.6947,-0.5941,0.0,0.0,0.0,0.0,0.0,0.0,0.0,0.0,0.0,0.0,0.0,0.0,0.0,0.0,0.0,0.0,0.0,0.0,0.0,0.0,0.0,0.0,0.0,0.0,-1.0159,-0.9961,-0.6883,0.0,0.0,0.0,0.0,0.0,0.0,0.0,0.0,0.0,0.0,0.0,-0.8468,-0.8349,-0.8379,-0.8759,-0.9198,-0.9397,-0.9356,-0.9493,-0.9156,-0.807,-0.8573,-0.81,0.0,0.0,0.0,0.0,0.0,0.0,0.0,0.0,0.0,0.0,0.0,0.0,0.0,0.0,0.0,0.0,0.0,0.0,0.0,0.0,0.0,0.0,0.0,0.0,0.0,0.0,0.0,0.0,0.0,0.0,0.0,0.0,-0.2579,-0.3002,0.0,0.0,0.0,0.0,0.0,0.0,0.0,0.0,0.0,0.0,0.0,0.0,0.0,-0.5115,-0.5341,-0.5101,-0.5209,-0.5648,-0.5229,-0.525,-0.5724,-0.6041,-0.658,-0.7238,-0.6752,0.0,-0.7885,-0.7072,0.0,0.0,0.0,0.0,0.0,0.0,0.0,0.0,0.0,0.0,0.0,0.0,0.0,0.0,0.0,0.0,0.0,0.0,0.0,0.0,0.0,0.0,-1.1164,-0.9471,-0.9515,-0.929,0.0,-0.803,-0.927,-0.8393,-0.8379,0.0,0.0,0.0,0.0,0.0,0.0,0.0,-0.7542,-0.7748,-0.8179,-0.8818,-0.9042,-0.9237,-0.9459,-0.9566,-0.9398,-0.8887,-0.8602,-0.8676,-0.9131,-0.8521,0.0,0.0,0.0,0.0,0.0,0.0,0.0,0.0,0.0,0.0,0.0,0.0,0.0,0.0,0.0,0.0,0.0,0.0,0.0,0.0,0.0,0.0,0.0,0.0,0.0,0.0,0.0,0.0,0.0,-0.28,-0.3309,-0.3913,-0.3884,-0.41,0.0,0.0,0.0,0.0,0.0,0.0,0.0,0.0,0.0,-0.4353,-0.4963,-0.5105,-0.4682,-0.4656,-0.4681,-0.4735,-0.4676,-0.4703,-0.4843,-0.5392,-0.6025,-0.6733,-0.6907,-0.7406,-0.8098,-0.7879,-0.8468,-0.9359,0.0,0.0,0.0,0.0,-0.3192,-0.2867,-0.3595,-0.4484,0.0,-0.5924,0.0,0.0,0.0,0.0,0.0,0.0,0.0,0.0,0.0,0.0,-1.0572,-0.9311,-0.9082,-0.8718,-0.7326,-0.813,-0.8915,0.0,-0.9494,-1.0654,-1.0384,0.0,0.0,0.0,0.0,-0.829,-0.8269,-0.8212,-0.8393,-0.9026,-0.9029,-0.9165,-0.9638,-0.981,-0.9703,-0.9323,-0.9143,-0.9047,-0.8958,-0.9128,-0.9093,0.0,0.0,0.0,0.0,0.0,0.0,0.0,0.0,0.0,0.0,0.0,0.0,0.0,0.0,0.0,0.0,0.0,0.0,0.0,0.0,0.0,0.0,0.0,0.0,0.0,0.0,0.0,0.0,-0.3207,-0.3873,-0.4563,-0.4621,-0.5024,0.0,0.0,0.0,0.0,0.0,0.0,-0.4829,-0.5338,-0.5268,-0.447,-0.4515,-0.4375,-0.3994,-0.413,-0.4122,-0.4037,-0.4279,-0.4431,-0.4515,-0.5003,-0.5651,-0.6352,-0.6775,-0.7372,-0.8126,-0.8338,-0.8951,-0.9592,-0.7641,-0.7594,-0.8259,-0.5305,-0.4176,-0.3835,-0.2047,-0.3192,-0.5307,-0.4264,-0.6035,-0.8539,-0.8187,0.0,0.0,0.0,0.0,-0.9205,-0.8967,-0.9504,-0.9849,-0.8968,-0.8682,-0.8355,-0.7551,-0.833,-0.8894,0.0,-0.987,-1.1575,-1.1336,0.0,0.0,0.0,0.0,-0.8627,-0.889,-0.8818,-0.8948,-0.9611,-0.9432,-0.9461,-0.9969,-1.0106,-0.9993,-0.9685,-0.973,-0.9502,-0.8909,-0.9554,-0.9419,-0.8316,0.0,0.0,0.0,0.0,0.0,0.0,0.0,0.0,0.0,0.0,0.0,0.0,0.0,0.0,0.0,0.0,0.0,0.0,0.0,0.0,0.0,0.0,0.0,0.0,0.0,0.0,0.0,0.0,0.0,-0.4198,-0.4208,0.0,0.0,0.0,0.0,-0.5664,-0.5876,-0.5922,-0.5752,-0.5724,-0.5323,-0.4546,-0.285,-0.2692,-0.4187,-0.4152,-0.4149,-0.4184,-0.4324,-0.4431,-0.4519,-0.4519,-0.5171,-0.6209,-0.6347,-0.7106,-0.8205,-0.8414,-0.8812,-0.9213,-0.8868,-0.9678,-1.0605,-0.715,-0.8525,-1.0972,-0.2899,-0.1137,-0.2434,-0.2347,-0.5617,-0.9486,-0.8629,-0.8276,0.0,0.0,-1.0323,-0.9259,-0.9488,-0.9577,-0.9399,-0.8461,-0.8415,-0.8309,-0.7348,-0.9068,-1.0175,0.0,-0.8415,-0.9023,-0.9062,0.0,-0.8586,-0.803,-0.8387,-0.8689,-0.8736,-0.9207,-0.991,-1.082,-1.0538,-1.0383,-1.0554,-1.0398,-1.0235,-1.0089,-1.0205,-1.0244,-1.0225,-0.9776,-0.9681,-0.9993,-0.9899,0.0,0.0,0.0,0.0,0.0,0.0,0.0,0.0,0.0,0.0,0.0,0.0,0.0,0.0,0.0,0.0,0.0,0.0,0.0,0.0,0.0,0.0,0.0,0.0,0.0,0.0,0.0,0.0,-0.4591,-0.4722,0.0,-0.6088,-0.5536,-0.5424,-0.6171,-0.5487,-0.5033,-0.4979,-0.4925,-0.4805,-0.4504,-0.2482,-0.1804,-0.2631,-0.3173,-0.3631,-0.3968,-0.4158,-0.4209,-0.4187,-0.4187,-0.4897,-0.6091,-0.614,-0.6907,-0.815,-0.7765,-0.7821,-0.8082,-0.7846,-0.7941,-0.7972,-0.5804,-0.4828,-0.4107,-0.1043,-0.0943,-0.2352,-0.3366,-0.4877,-0.6378,-0.6493,-0.678,-0.7294,-0.8624,-0.8803,-0.8721,-0.8783,-0.889,-0.883,-0.8421,-0.8421,-0.8368,-0.7996,-0.8606,-0.896,-0.8309,-0.9103,-0.9945,-1.0141,-0.9256,-0.8781,-0.9643,-0.92,-0.893,-0.937,-0.9599,-1.0035,-1.0893,-1.0877,-1.0723,-1.0601,-1.0618,-1.0456,-1.0137,-1.0244,-1.0283,-1.0283,-1.0118,-0.982,-0.9453,-0.8945,-0.9125,0.0,0.0,0.0,0.0,0.0,0.0,0.0,0.0,0.0,0.0,0.0,0.0,0.0,0.0,0.0,0.0,0.0,0.0,0.0,0.0,0.0,0.0,0.0,0.0,0.0,0.0,-0.4979,-0.5039,-0.5122,-0.5537,-0.6417,-0.5637,-0.5308,-0.5881,-0.4577,-0.3748,-0.3708,-0.3625,-0.3841,-0.4493,-0.2081,-0.1091,-0.165,-0.2729,-0.3465,-0.3796,-0.4044,-0.4098,-0.4024,-0.4024,-0.4622,-0.5655,-0.5655,-0.6312,-0.7348,-0.6853,-0.6686,-0.6745,-0.6623,-0.59,-0.467,-0.3466,-0.1397,0.0671,0.0168,-0.0952,-0.2411,-0.3878,-0.4425,-0.4625,-0.5218,-0.5869,-0.6573,-0.7278,-0.7931,-0.8421,-0.8421,-0.8474,-0.8527,-0.8374,-0.8374,-0.8368,-0.8268,-0.8268,-0.8268,-0.8321,-0.9147,-0.9919,-1.0076,-0.9415,-0.946,-1.1132,-1.0091,-0.9688,-1.1175,-1.0616,-1.0479,-1.1529,-1.1469,-1.1269,-1.1103,-1.1178,-1.1057,-1.056,-1.0656,-1.0596,-1.0409,-1.0254,-0.9815,-0.8971,-0.774,-0.7709,-0.8944,0.0,0.0,0.0,0.0,0.0,0.0,0.0,0.0,0.0,0.0,0.0,0.0,0.0,0.0,0.0,0.0,0.0,0.0,0.0,0.0,0.0,0.0,0.0,-0.429,-0.4354,-0.4819,-0.5486,-0.5339,-0.528,-0.5734,-0.5199,-0.4798,-0.4787,-0.317,-0.2161,-0.2159,-0.186,-0.2516,-0.4273,-0.1514,-0.04,-0.1293,-0.2832,-0.3658,-0.3811,-0.3938,-0.3986,-0.3971,-0.3971,-0.4301,-0.4897,-0.4897,-0.5226,-0.5773,-0.5773,-0.5563,-0.5301,-0.5529,-0.3929,-0.1374,-0.0277,0.1058,0.2065,0.0447,-0.1004,-0.24,-0.3596,-0.4203,-0.457,-0.5117,-0.5764,-0.6519,-0.7278,-0.7877,-0.8315,-0.8368,-0.8368,-0.8315,-0.8221,-0.8321,-0.8321,-0.7955,-0.8162,-0.8374,-0.8221,-0.8421,-0.8626,-0.8626,-0.9295,-1.0383,-1.2019,-1.0851,0.0,-1.3895,-1.2168,-1.1233,-1.2735,-1.2415,-1.2107,-1.2134,-1.2148,-1.193,-1.1421,-1.1466,-1.1249,-1.0642,-1.0234,-0.9611,-0.8667,-0.6524,-0.6096,-0.743,0.0,0.0,0.0,0.0,0.0,0.0,0.0,0.0,0.0,0.0,0.0,0.0,0.0,0.0,0.0,0.0,0.0,0.0,0.0,0.0,0.0,0.0,-0.5218,-0.4626,-0.5445,-0.5958,-0.5656,-0.5566,-0.5554,-0.5717,-0.5395,-0.5258,-0.5253,-0.2372,-0.0597,-0.0592,-0.0,0.0064,-0.0432,0.031,-0.0185,-0.2009,-0.2431,-0.3084,-0.3895,-0.4054,-0.4062,-0.3877,-0.3877,-0.4163,-0.4728,-0.4728,-0.5167,-0.5773,-0.5222,-0.512,-0.5356,-0.583,-0.5041,-0.3072,0.1566,0.3492,0.3263,-0.1121,-0.23,-0.2125,-0.3477,-0.4033,-0.4242,-0.4948,-0.5222,-0.5496,-0.6312,-0.6632,-0.6794,-0.7295,-0.7509,-0.7723,-0.8109,-0.8221,-0.8215,-0.8115,-0.8062,-0.8162,-0.8573,-0.8791,-0.8949,-0.9152,-0.9858,-1.0533,-1.0997,-1.0753,0.0,-1.1654,-1.1601,-1.1972,-1.3273,-1.3707,-1.3765,-1.3481,-1.3485,-1.2903,-1.1645,-1.1585,-1.1479,-1.1324,-1.0732,-0.9632,-0.7934,-0.8091,-0.7583,0.0,0.0,0.0,0.0,0.0,0.0,0.0,0.0,0.0,0.0,0.0,0.0,0.0,0.0,0.0,0.0,0.0,0.0,0.0,0.0,0.0,0.0,-0.5281,-0.5593,-0.549,-0.609,-0.6423,-0.6051,-0.5944,-0.5629,-0.4664,-0.5064,-0.5386,-0.5425,-0.2078,0.0,0.0,0.0543,0.093,0.1091,0.1018,-0.0063,-0.2196,-0.2853,-0.3388,-0.3872,-0.3997,-0.4019,-0.3827,-0.3827,-0.3995,-0.4323,-0.4323,-0.4514,-0.4846,-0.4064,-0.407,0.0,0.0,0.0,0.0,0.0,0.3946,0.3893,-0.0448,-0.2186,-0.2689,-0.353,-0.4079,-0.4512,-0.4893,-0.5386,-0.5937,-0.6426,-0.6696,-0.6912,-0.7408,-0.7622,-0.7783,-0.8115,-0.8221,-0.8168,-0.8115,-0.8008,-0.8002,-0.8368,-0.8942,0.0,-0.9614,-1.0328,-1.1167,-1.2059,-1.1545,-1.1318,-1.2208,-1.1886,-1.1855,-1.2365,-1.3323,-1.3685,-1.3112,-1.3494,0.0,0.0,0.0,-1.189,-1.1479,-1.0702,0.0,0.0,0.0,-0.7667,-0.6129,0.0,0.0,0.0,-0.5042,-0.5918,0.0,0.0,0.0,0.0,0.0,0.0,0.0,0.0,0.0,0.0,0.0,0.0,0.0,0.0,0.0,0.0,-0.5728,-0.6203,-0.6485,-0.643,-0.6454,-0.6619,-0.6194,-0.5253,-0.3642,-0.427,-0.482,-0.476,-0.18,0.0,0.0,0.0,0.0,0.0,0.0,0.0063,-0.1937,-0.3542,-0.4185,-0.3974,-0.399,-0.3982,-0.3894,-0.3907,-0.384,-0.3656,-0.3656,-0.3543,-0.3283,-0.2645,-0.2751,-0.3258,-0.2073,-0.1732,-0.1616,0.1003,0.2631,0.3258,0.095,0.0,0.0,-0.3588,-0.4239,-0.5054,-0.5007,-0.5937,-0.6977,-0.7085,-0.7354,-0.7735,-0.8002,-0.8055,-0.8115,-0.8168,-0.8168,-0.8115,-0.7955,-0.7901,-0.7901,-0.8002,-0.9033,-0.9969,-1.0115,-1.0846,-1.204,-1.3875,-1.2603,-1.204,-1.3767,-1.2485,-1.1309,-1.0913,0.0,0.0,-1.2026,-1.2881,-1.323,-1.2725,-1.2792,-1.2337,-1.1288,-1.0374,-0.9847,-0.9752,-0.8179,-0.711,-0.6513,-0.5676,-0.4879,-0.4243,-0.6281,-0.6999,0.0,0.0,0.0,0.0,0.0,0.0,0.0,0.0,0.0,0.0,0.0,0.0,0.0,0.0,0.0,-0.553,-0.6123,-0.6634,-0.6814,-0.6932,-0.6847,-0.6669,-0.4931,-0.4244,-0.5581,-0.2859,-0.1047,-0.1037,-0.0386,0.0,0.0,0.0071,0.0413,0.108,0.1067,0.0332,-0.1263,-0.3317,-0.4243,-0.423,0.0,0.0,-0.4085,-0.4186,-0.3724,-0.2802,-0.2802,-0.2429,-0.175,-0.1588,-0.1778,-0.2021,-0.084,-0.0392,-0.0336,0.0224,-0.0616,-0.1964,-0.1511,-0.2348,-0.3588,-0.3585,-0.4132,-0.4889,-0.5445,-0.5828,0.0,-0.6923,-0.675,-0.6524,-0.7133,-0.73,-0.7408,-0.7848,-0.7955,-0.7955,-0.7901,-0.7901,-0.8055,-0.8521,-0.9197,-0.9917,-1.0661,-1.1551,-1.2243,-1.2635,-1.245,-1.2026,-1.1436,-1.1469,-1.1547,-1.1464,-1.2187,-1.2827,-1.3231,-1.3441,-1.3372,-1.29,-1.289,-1.2262,-1.0948,-1.0713,-0.999,-0.8721,-0.8545,-0.7721,-0.6106,-0.6263,-0.5584,-0.4194,-0.4828,-0.4956,0.0,0.0,0.0,0.0,0.0,0.0,0.0,0.0,0.0,0.0,0.0,-0.7285,0.0,0.0,-0.6212,-0.6143,-0.6548,-0.6946,-0.7024,-0.7027,-0.7034,-0.6893,-0.5829,-0.459,-0.3256,-0.1271,0.0,0.0,0.0,0.0,0.0,0.0,0.0144,0.0562,0.09,0.0206,-0.1574,-0.3387,-0.4311,-0.43,-0.4357,-0.4322,-0.4211,-0.3801,-0.3277,-0.2704,-0.2199,-0.1746,-0.129,-0.1071,-0.0815,-0.0574,-0.0,0.0112,0.0056,0.0336,-0.129,-0.3439,-0.2354,-0.2687,-0.3585,-0.3585,-0.4349,-0.5332,-0.5664,-0.6317,-0.6918,-0.7354,-0.7241,-0.702,-0.7408,-0.7521,-0.7574,-0.7848,-0.7901,-0.7937,-0.8069,-0.7991,-0.8045,-0.8438,-0.8931,-0.9547,-1.0261,-1.104,-1.1719,-1.2323,-1.2224,-1.176,-1.072,-1.1023,-1.104,-1.0263,-1.1052,-1.172,-1.2076,-1.2657,-1.2958,-1.2793,-1.2412,-1.1841,-1.1233,-1.0576,-0.9673,-0.8557,-0.8204,-0.731,-0.5733,-0.5839,-0.5309,-0.4355,-0.4466,-0.4473,0.0,0.0,0.0,0.0,0.0,0.0,0.0,0.0,-0.8926,-0.9906,-0.9054,-0.8118,-0.834,-0.7545,-0.681,-0.6719,-0.6966,-0.7143,-0.7058,-0.6871,-0.6779,-0.7064,-0.7081,-0.5252,-0.0438,0.0,0.0,0.0,0.0,0.0,0.0,0.0,0.0,0.0,0.0573,0.0071,-0.1691,-0.3457,-0.4379,-0.4371,-0.4393,-0.4311,-0.4064,-0.3398,-0.2809,-0.2271,-0.1296,-0.0893,-0.0806,-0.0423,0.0119,0.0646,0.0515,0.0338,0.0168,0.0336,-0.1178,-0.321,-0.2577,-0.2912,-0.3585,-0.3585,-0.457,-0.5714,-0.5714,-0.6696,-0.7848,-0.7848,-0.7848,-0.7842,-0.7842,-0.7901,-0.7901,-0.7901,-0.7901,-0.7961,-0.8171,-0.8045,-0.7907,-0.8171,-0.8622,-0.9086,-0.971,-1.0336,-1.1108,-1.2224,-1.2026,-1.146,-1.0618,-1.0712,-1.0312,-0.885,-0.9607,-1.0261,-1.0517,-1.1751,-1.2471,-1.2471,-1.1783,-1.1316,-1.1191,-1.0115,-0.9228,-0.8475,-0.7713,-0.6718,-0.5487,-0.5288,-0.4923,-0.4519,-0.4519,-0.4522,-0.7476,-0.7593,-0.787,-0.9164,-0.9335,-0.9505,0.0,0.0,-1.0857,-1.0249,-0.9572,-0.8796,-0.7656,-0.7023,-0.6725,-0.6878,-0.7037,-0.7058,-0.7078,-0.6087,-0.5852,-0.6934,-0.7114,-0.52,-0.0447,0.0,0.0,0.0,0.0,0.0,0.0,0.0,0.0,0.0,0.0074,0.0,-0.0218,-0.3186,-0.4563,-0.448,-0.4651,-0.4222,-0.3201,-0.3278,-0.2314,-0.0535,0.0401,0.079,0.0771,0.0832,0.0867,0.0884,0.0821,0.0806,0.0617,-0.0954,-0.185,-0.2352,-0.3135,-0.3527,-0.3585,-0.3585,-0.4457,-0.5542,-0.5542,-0.6475,-0.7521,-0.7521,-0.7622,-0.7723,-0.7723,-0.7788,-0.7901,-0.7901,-0.7901,-0.7907,-0.7937,-0.7806,-0.7788,-0.7937,-0.8334,-0.8883,-0.9658,-1.0233,-1.0905,-1.1828,-1.1927,-1.146,-1.0372,-1.0261,-0.9806,-0.858,-0.858,-0.9138,-1.0312,-1.1701,-1.2215,-1.1575,-1.1466,-1.0855,-0.9688,-0.9481,-0.8856,-0.7646,-0.7517,-0.6817,-0.5487,-0.5467,-0.5148,-0.4519,-0.4519,-0.4519,-0.8725,-0.8658,-0.8762,0.0,-1.0369,-1.0451,-1.157,-1.1926,-1.1829,-1.1106,-1.0455,-0.9649,-0.8425,-0.7629,-0.7082,0.0,-0.7187,-0.7268,-0.7094,-0.6637,-0.6512,-0.7041,-0.468,-0.2164,-0.0173,0.0,0.0,0.0,0.0,0.0,0.0,0.0,0.0,0.0,0.0,0.0,0.0,-0.133,-0.2913,-0.4667,-0.3901,-0.3407,-0.3074,-0.1979,-0.0766,0.0538,0.0957,0.1085,0.1058,0.1058,0.1023,0.0968,0.089,0.0924,0.0729,-0.0617,-0.1513,-0.2183,-0.2738,-0.3244,-0.3585,-0.3585,-0.4457,-0.5487,-0.5487,-0.6416,-0.7521,-0.7521,-0.7515,-0.7568,-0.7568,-0.7676,-0.7783,-0.7783,-0.7842,-0.7985,-0.8179,-0.812,-0.8157,-0.8409,-0.8573,-0.8851,-0.957,-1.007,-1.0469,-1.0837,-1.1498,-1.1619,-1.0854,-1.0328,-0.9599,-0.8427,-0.8633,-0.9302,-1.0312,-1.1233,-1.1633,-1.1316,-1.0914,-1.0261,-0.9295,-0.8883,-0.8302,-0.7391,-0.7063,-0.6357,-0.5382,-0.5058,-0.4787,-0.4519,-0.4519,-0.4519,-0.9549,0.0,0.0,-1.1141,-1.139,-1.157,-1.2447,-1.2628,-1.2314,-1.1518,-1.0683,-0.9735,-0.8562,-0.7753,-0.7163,-0.7092,-0.7193,-0.6966,-0.6231,-0.6096,-0.593,-0.5476,-0.2458,-0.0235,-0.0,0.0,0.0,0.0,0.0,0.0,0.0,0.0,0.0,0.0,0.0,0.0,0.0,0.0076,-0.104,-0.3268,-0.2748,-0.2408,-0.2327,-0.0627,0.0482,0.1089,0.1102,0.1101,0.1087,0.1079,0.1046,0.0998,0.0967,0.0937,0.0795,-0.0337,-0.1175,-0.1903,-0.2597,-0.3154,-0.3532,-0.3621,-0.4379,-0.5273,-0.5382,-0.6258,-0.7192,-0.7354,-0.7413,-0.7467,-0.7467,-0.762,-0.7775,-0.7781,-0.7894,-0.8052,-0.8428,-0.8363,-0.834,-0.8655,-0.8639,-0.8798,-0.9382,-0.9819,-1.0214,-1.0599,-1.1361,-1.1601,-1.0836,-1.0123,-0.9242,-0.8162,-0.8732,-0.9458,-1.0218,-1.0669,-1.0864,-1.0864,-1.0261,-0.9555,-0.8896,-0.8374,-0.7842,-0.7235,-0.6799,-0.6145,-0.5277,-0.4901,-0.4625,-0.4519,-0.4519,-0.4519,0.0,0.0,-1.0214,-1.1543,-1.2338,-1.301,-1.3828,-1.3286,-1.2323,-1.1357,-0.9967,-0.8578,-0.7218,-0.6817,-0.6766,-0.6912,-0.6863,-0.6082,-0.399,-0.3678,-0.3063,-0.15,-0.1206,-0.0886,0.0,0.0,0.0,0.0,0.0,0.0,0.0,0.0,0.0,0.0,0.0,0.0,0.0,0.0396,0.0547,0.0391,-0.117,-0.1446,-0.0435,0.062,0.1093,0.1118,0.1089,0.1093,0.1117,0.1088,0.1059,0.1029,0.0999,0.0969,0.0762,-0.0566,-0.1118,-0.1403,-0.3127,-0.3618,-0.3431,-0.371,-0.4125,-0.4625,-0.5171,-0.5769,-0.6372,-0.6972,-0.7198,-0.7317,-0.7317,-0.7593,-0.7937,-0.8061,-0.8138,-0.8257,-0.8451,-0.8263,-0.808,-0.8167,-0.8286,-0.8516,-0.9207,-0.9601,-1.0272,-1.1559,-1.1775,-1.1357,-1.0,-0.9242,-0.8567,-0.7777,-0.8508,-0.9287,-0.9961,-1.0012,-1.0064,-1.0064,-0.9392,-0.8725,-0.7955,-0.7901,-0.7681,-0.7139,-0.7085,-0.648,-0.5277,-0.5277,-0.5007,-0.4519,-0.4519,-0.4519,-1.0319,0.0,-1.0718,-1.1534,-1.1445,-1.1259,-1.191,-1.1923,-1.1356,-0.9911,-0.9693,-0.9363,-0.8049,-0.7529,-0.743,-0.7871,-0.7453,-0.6238,-0.3892,-0.225,-0.1198,-0.1078,-0.1116,0.0,0.0,0.0,0.0,0.0,0.0,0.0,0.0,0.0,0.0,0.0,0.0,0.0255,0.0852,0.0984,0.1044,0.1042,-0.0305,-0.0369,0.0654,0.0965,0.1081,0.1091,0.1102,0.11,0.1092,0.1102,0.1077,0.0968,0.1022,0.1,0.0789,-0.0778,-0.1311,-0.1488,-0.3064,-0.3666,-0.3762,-0.386,-0.4261,-0.4752,-0.4928,-0.5604,-0.636,-0.659,-0.6874,-0.7182,-0.7345,-0.7611,-0.7932,-0.7987,-0.8212,-0.8385,-0.8431,-0.8404,-0.8443,-0.8675,-0.8834,-0.9084,-0.9401,-0.9663,-1.0227,-1.1326,-1.2031,-1.2028,-1.0897,-1.0135,-0.9574,-0.9159,-0.8981,-0.919,-0.9909,-0.9917,-0.9703,-0.934,-0.9131,-0.8672,-0.7955,-0.7901,-0.7794,-0.7628,-0.73,-0.6972,-0.6637,-0.5714,-0.5277,-0.5164,-0.4736,-0.4519,-1.1471,-1.1373,-1.1315,-1.2001,-1.1417,-1.0765,-1.1231,-1.0905,-1.0206,-0.9039,-0.8984,-0.8912,-0.8119,-0.7597,-0.7667,-0.8796,-0.832,-0.7107,-0.5136,-0.2073,-0.0154,-0.0683,-0.097,-0.1113,0.0,0.0,0.0,-0.1122,-0.0411,0.0,0.0,0.0,0.0,0.0,0.0,0.0261,0.087,0.1166,0.1296,0.1283,0.0526,0.0512,0.118,0.1178,0.1155,0.1108,0.1175,0.1168,0.1093,0.1101,0.1082,0.1048,0.1037,0.1022,0.0815,-0.0803,-0.1423,-0.1683,-0.3179,-0.3787,-0.3819,-0.3923,-0.4215,-0.4537,-0.4716,-0.5311,-0.5931,-0.6401,-0.6706,-0.7089,-0.7532,-0.7808,-0.8024,-0.8186,-0.8353,-0.8527,-0.8566,-0.86,-0.8708,-0.8865,-0.9145,-0.9274,-0.935,-0.9944,-1.066,-1.1225,-1.2373,-1.2673,-1.125,-1.0732,-1.0333,-0.9695,-0.9295,-0.9399,-1.0174,-0.9917,-0.9607,-0.9295,-0.9033,-0.8567,-0.7901,-0.7842,-0.7842,-0.7901,-0.7574,-0.7354,-0.7241,-0.6421,-0.5819,-0.5437,-0.5058,-0.4736,-1.2592,-1.2369,-1.1878,-1.2687,-1.2106,-1.1308,-1.1482,-1.0311,-0.9054,-0.8661,-0.7919,-0.7401,0.0,0.0,-0.7384,-0.9493,-0.9302,-0.8504,-0.7382,-0.3252,-0.0291,0.0,0.0,0.0,0.0,0.0,0.0,-0.3231,0.0,-0.0258,-0.0,0.0,0.0,0.0,0.0,0.0,0.0,0.0834,0.1289,0.1335,0.1197,0.1184,0.1209,0.1261,0.125,0.1233,0.1241,0.123,0.1117,0.1087,0.1143,0.1073,0.1046,0.1035,0.0839,-0.0751,-0.1447,-0.1931,-0.3544,-0.3924,-0.3784,-0.4025,-0.4047,-0.4014,-0.462,-0.4796,-0.509,-0.6297,-0.6653,-0.6947,-0.7865,-0.816,-0.828,-0.8606,-0.8604,-0.8576,-0.877,-0.877,-0.877,-0.877,-0.9087,-0.921,-0.9017,-1.0395,-1.1454,-1.1329,-1.2704,-1.3125,-1.1153,-1.1102,-1.0798,-0.968,-0.9577,-0.9925,-1.0549,-1.0028,-0.9666,-0.971,-0.904,-0.8421,-0.7901,-0.7783,-0.7783,-0.7901,-0.7901,-0.7628,-0.7139,-0.7235,-0.6637,-0.5386,-0.5437,-0.5222,-1.2543,-1.2029,-1.1436,-1.0924,-0.9782,-0.8695,-0.8544,-0.7863,-0.7435,-0.7612,-0.7877,-0.83,0.0,0.0,0.0,-0.9118,-0.7852,0.0,-0.9281,-0.7057,0.0,-0.0937,0.0,-0.1122,-0.121,-0.2743,0.0,0.0,-0.4799,-0.3515,-0.0172,0.0,0.0,0.0,0.0,0.0,0.0,0.0512,0.0982,0.1335,0.1218,0.1204,0.1211,0.1237,0.1211,0.1132,0.1116,0.1101,0.1087,0.1214,0.1277,0.1276,0.1201,0.1198,0.0997,-0.0856,-0.1582,-0.1856,-0.3652,-0.4232,-0.4145,-0.4243,-0.4232,-0.4208,-0.4401,-0.465,-0.513,-0.5942,-0.6459,-0.6921,-0.7944,-0.8231,-0.8392,-0.851,-0.8538,-0.8517,-0.8582,-0.8576,-0.8641,-0.877,-0.8958,-0.9022,-0.8894,-1.0332,-1.1392,-1.1142,-1.2704,-1.356,-1.2586,-1.1873,-1.1453,-1.1353,-1.0657,-1.0293,-1.06,-1.0344,-0.9829,-0.8935,-0.883,-0.8461,-0.7783,-0.7842,-0.7842,-0.7901,-0.7901,-0.7901,-0.7895,-0.7408,-0.702,-0.6745,-0.5819,-0.5336,-1.3774,-1.2766,-1.149,-1.0942,-0.922,-0.7732,-0.7699,-0.7458,-0.7254,-0.7651,-0.8334,0.0,0.0,0.0,0.0,0.0,0.0,0.0,-1.1597,-1.0918,-0.76,0.0,-0.0902,0.0,-0.1257,-0.2766,-0.4212,0.0,-0.5401,-0.4653,-0.3032,-0.1126,0.0,0.0,0.0,0.0696,0.2154,0.1092,0.0978,0.1805,0.1379,0.1219,0.123,0.126,0.1237,0.116,0.0,0.1202,0.1115,0.1255,0.1315,0.1301,0.1232,0.1224,0.1075,-0.0804,-0.1542,-0.181,-0.3489,-0.4097,-0.4164,-0.43,-0.4233,-0.4164,-0.4164,-0.4312,-0.4643,-0.5417,-0.599,-0.6693,-0.7628,-0.8112,-0.8339,-0.8345,-0.8376,-0.8376,-0.8376,-0.8511,-0.8705,-0.8829,-0.8894,-0.9022,-0.9268,-1.0395,-1.1329,-1.1516,-1.2826,-1.3622,-1.3296,-1.2503,-1.2032,-1.1937,-1.1241,-1.0812,-1.0913,-1.0761,-1.019,-0.9047,-0.8935,-0.8508,-0.7676,-0.7681,-0.7735,-0.7735,-0.7848,-0.7949,-0.7996,-0.7735,-0.7461,-0.7187,-0.6312,-0.5828,-1.5399,-1.3864,-1.1893,-1.1795,-0.9606,-0.7643,-0.8032,-0.7894,-0.7803,-0.824,0.0,-0.9693,-1.0113,-0.9392,-0.9528,-1.2092,0.0,-0.7012,-1.2622,-1.2476,-0.8965,-0.1415,-0.0928,-0.1279,-0.1304,-0.2434,-0.3992,-0.5731,-0.4672,-0.4841,-0.6774,-0.3115,-0.0611,-0.0,0.0429,0.2083,0.4981,0.2279,0.1447,0.251,0.1614,0.1232,0.1334,0.1353,0.134,0.1211,0.1332,0.1317,0.1166,0.1239,0.1294,0.1409,0.1197,0.118,0.0951,-0.0542,-0.1284,-0.1753,-0.3102,-0.3701,-0.3894,-0.4164,-0.4097,-0.3961,-0.3961,-0.3892,-0.4025,-0.4821,-0.5547,-0.6276,-0.7195,-0.7782,-0.8172,-0.8166,-0.8172,-0.8172,-0.8236,-0.8501,-0.8765,-0.8888,-0.8829,-0.8952,-0.9767,-1.0514,-1.1267,-1.2143,-1.2956,-1.3433,-1.3382,-1.2984,-1.2457,-1.2029,-1.161,-1.137,-1.1422,-1.1277,-1.0672,-0.9523,-0.9201,-0.8599,-0.7521,-0.7521,-0.7521,-0.7521,-0.7735,-0.7842,-0.7723,-0.8002,-0.7842,-0.7192,-0.6858,-0.6426,-1.5078,-1.3663,-1.2024,-1.0925,-0.8938,-0.7228,-0.7513,-0.7423,0.0,0.0,-0.9418,-1.003,-1.1043,-1.0302,-0.9716,-1.023,0.0,0.0,0.0,0.0,-0.2527,0.0,0.0,0.0,0.0,0.0,0.0,0.0,0.0,-0.615,-0.697,-0.6273,-0.4058,-0.0085,0.2706,0.4423,0.4981,0.3419,0.2571,0.251,0.1641,0.1252,0.1335,0.148,0.1462,0.1211,0.1433,0.0,0.1239,0.1312,0.1382,0.1376,0.1376,0.0938,0.0359,-0.0,-0.0707,-0.1595,-0.2286,-0.2734,-0.3021,-0.3692,-0.3892,-0.3825,-0.3825,-0.3892,-0.4092,-0.4686,-0.5477,-0.6207,-0.6859,-0.7521,-0.8047,-0.8172,-0.8107,-0.8117,-0.8382,-0.8371,-0.8301,-0.8366,-0.8301,-0.856,-0.9268,-1.0212,-1.108,-1.195,-1.2781,-1.3245,-1.2941,-1.2954,-1.2909,-1.2783,-1.2049,-1.1707,-1.2166,-1.1704,-1.0883,-0.9731,-0.9615,-0.8916,-0.7376,-0.7568,-0.7622,-0.7521,-0.7735,-0.7842,-0.7723,-0.7895,-0.7901,-0.7741,-0.7348,-0.6912,-1.6244,-1.4868,-1.3295,-1.1761,-0.9701,-0.8239,-0.863,0.0,0.0,0.0,-1.0773,-1.0986,-1.1586,0.0,0.0,0.0,0.0,0.0,0.0,0.0,0.0,0.0,0.0,0.0,0.0,0.0,0.0,0.0,0.0,-0.6437,-0.6834,-0.5896,-0.3869,-0.0813,0.0904,0.2453,0.3914,0.2873,0.2617,0.3137,0.2198,0.157,0.1335,0.1415,0.1406,0.1236,0.139,0.1381,0.1441,0.1441,0.1581,0.1711,0.104,0.0663,0.0291,-0.0218,-0.0786,-0.1327,-0.1326,-0.1508,-0.181,-0.2547,-0.3286,-0.3825,-0.3825,-0.3825,-0.3959,-0.422,-0.4818,-0.5543,-0.6071,-0.6798,-0.7521,-0.7782,-0.7852,-0.7922,-0.8187,-0.8182,-0.8107,-0.8172,-0.8172,-0.849,-0.939,-1.0275,-1.108,-1.1888,-1.2658,-1.3039,-1.2672,-1.268,-1.2645,-1.2312,-1.1847,-1.1758,-1.2035,-1.1447,-1.0788,-1.0191,-0.97,-0.886,-0.7747,-0.7749,-0.7864,-0.7949,-0.7895,-0.8156,-0.8672,-0.8514,-0.8672,-0.8988,-0.8283,-0.78,-1.7548,-1.619,-1.4435,-1.2992,-1.0885,-0.9349,-0.9903,-0.9333,0.0,0.0,-1.1862,-1.1809,-1.1872,0.0,0.0,0.0,0.0,0.0,0.0,0.0,0.0,0.0,0.0,0.0,0.0,0.0,0.0,0.0,0.0,0.0,-0.675,-0.4829,-0.2945,-0.1338,-0.104,0.024,0.2427,0.2429,0.2743,0.337,0.2666,0.2041,0.1335,0.1335,0.1335,0.1335,0.1335,0.1493,0.1572,0.1572,0.1788,0.1909,0.0761,0.0225,0.0148,-0.0367,-0.0868,-0.1064,-0.0351,-0.0277,-0.0613,-0.1615,-0.2614,-0.3489,-0.3625,-0.3758,-0.3758,-0.3692,-0.422,-0.4885,-0.5286,-0.6141,-0.6994,-0.7456,-0.7596,-0.7731,-0.7852,-0.7922,-0.7987,-0.8042,-0.8301,-0.8748,-0.9703,-1.0465,-1.1212,-1.202,-1.2533,-1.2734,-1.2373,-1.2456,-1.2249,-1.1489,-1.1547,-1.1751,-1.2129,-1.1424,-1.0969,-1.0895,-1.0064,-0.9259,-0.86,-0.8528,-0.8515,-0.8618,-0.8511,-0.8798,-0.951,-0.9295,-0.9444,-0.9917,-0.9169,-0.8692,-1.8316,-1.6881,-1.4678,-1.419,-1.1744,-0.9665,-1.05,0.0,0.0,-1.1461,-1.1707,-1.1747,-1.2182,-1.167,0.0,0.0,0.0,-0.8756,0.0,0.0,0.0,0.0,0.0,0.0,0.0,0.0,0.0,0.0,0.0,0.0,-0.6968,-0.5227,-0.3304,-0.1337,-0.0079,0.0707,0.1018,0.3452,0.3767,0.1881,0.2668,0.2434,0.1335,0.1335,0.1335,0.1335,0.1493,0.1572,0.0,0.1572,0.1727,0.1802,0.0703,-0.0156,-0.0699,0.0076,-0.0225,-0.082,0.0356,0.0709,0.0286,-0.1362,-0.2079,-0.2348,-0.3023,-0.3493,-0.3692,-0.336,-0.3892,-0.4625,-0.4691,-0.5683,-0.6872,-0.7531,-0.7666,-0.7661,-0.7591,-0.7661,-0.7731,-0.7727,-0.8501,-0.9396,-1.0148,-1.0912,-1.1732,-1.2613,-1.2522,-1.224,-1.1938,-1.2414,-1.227,-1.0933,-1.1399,-1.2224,-1.3237,-1.2429,-1.1826,-1.1783,-1.1432,-1.0865,-1.0137,-1.0222,-0.9981,-0.9398,-0.993,-0.9846,-0.9263,-0.9562,-0.9762,-0.9814,-0.9858,-0.9377,-1.8309,-1.75,-1.5802,-1.4082,-1.2308,-1.105,-1.1355,0.0,-0.9965,-1.2243,-1.215,-1.1809,-1.1934,-1.156,-1.1197,0.0,0.0,0.0,0.0,0.0,0.0,0.0,0.0,0.0,0.0,0.0,0.0,0.0,0.0,0.0,-0.3588,-0.3344,-0.2615,-0.1336,-0.0785,-0.0157,0.047,0.1644,0.2666,0.3694,0.2746,0.1804,0.0864,0.1178,0.1335,0.1335,0.1415,0.1572,0.0,0.1099,0.1098,0.1333,-0.0392,-0.1175,-0.1252,-0.093,-0.1071,-0.1204,0.0517,0.1013,0.0708,-0.0139,-0.0816,-0.1609,-0.2956,-0.356,-0.3758,-0.3429,-0.3738,-0.4264,-0.4606,-0.5827,-0.6979,-0.6996,-0.7315,-0.7555,-0.7358,-0.7335,-0.7591,-0.8361,-0.8807,-0.933,-0.9916,-1.0697,-1.1247,-1.1293,-1.1507,-1.1582,-1.1249,-1.1616,-1.172,-1.1231,-1.18,-1.2307,-1.2604,-1.2192,-1.197,-1.2121,-1.1657,-1.1152,-1.0815,-1.0639,-1.0646,-1.0789,-1.0459,-1.0455,-1.087,-1.0498,-1.0541,-1.1049,-1.0804,-1.0482,-1.7675,-1.726,-1.6137,-1.411,-1.2909,-1.2154,0.0,0.0,-1.0525,-1.2558,-1.2322,-1.1809,-1.1747,-1.1498,-1.1195,0.0,0.0,-1.0113,-0.9456,0.0,0.0,0.0,0.0,0.0,0.0,0.0,0.0,0.0,0.0,0.0,-0.1257,-0.1716,-0.1792,-0.1335,-0.1335,-0.0942,-0.0157,0.0157,0.1254,0.3144,0.2353,0.1412,0.0471,0.1021,0.1335,0.1335,0.1336,0.1572,0.0,0.0862,0.0784,0.1097,-0.1019,-0.1724,-0.1566,-0.1632,-0.1618,-0.1448,0.015,0.0884,0.1013,0.0356,-0.007,-0.0694,-0.2553,-0.3404,-0.3706,-0.3635,-0.3769,-0.4104,-0.4593,-0.5718,-0.6683,-0.6433,-0.6881,-0.7387,-0.7184,-0.7138,-0.7521,-0.8737,-0.9122,-0.9446,-1.0069,-1.076,-1.1138,-1.0946,-1.1081,-1.1225,-1.1138,-1.1273,-1.1344,-1.14,-1.2045,-1.2497,-1.2405,-1.2159,-1.2215,-1.2586,-1.2059,-1.1771,-1.1763,-1.1546,-1.1634,-1.1955,-1.1448,-1.1483,-1.2111,-1.1454,-1.1473,-1.209,-1.158,-1.1438,-1.6082,-1.5972,-1.5271,-1.4676,-1.3709,-1.2893,0.0,0.0,-1.1685,-1.2073,-1.1934,-1.174,-1.1622,-1.131,-1.1016,-1.0746,0.0,0.0,-0.912,0.0,0.0,0.0,0.0,0.0,0.0,0.0,0.0,0.0,0.0,0.0,-0.1257,-0.0998,-0.0996,-0.1256,-0.1335,-0.1257,-0.1257,-0.0235,-0.0235,-0.1178,0.1333,0.1648,0.0,0.0943,0.1335,0.1335,0.1493,0.1729,0.0,0.1176,0.1019,0.1097,-0.0862,-0.1568,-0.1641,-0.1677,-0.1689,-0.1478,-0.074,0.03,0.1087,-0.0443,-0.0148,0.0375,-0.1611,-0.2805,-0.3538,-0.3728,-0.3928,-0.4217,-0.464,-0.529,-0.5834,-0.5953,-0.6603,-0.7175,-0.692,-0.7073,-0.7526,-0.8613,-0.932,-1.0028,-1.0856,-1.1457,-1.19,-1.2243,-1.1547,-1.1249,-1.1916,-1.1639,-1.137,-1.1218,-1.1955,-1.2705,-1.326,-1.2858,-1.2797,-1.3241,-1.2989,-1.292,-1.3233,-1.339,-1.3271,-1.2805,-1.3292,-1.3203,-1.2389,-1.2432,-1.2498,-1.2489,-1.2099,-1.2025,-1.5216,-1.5077,-1.4263,-1.3583,-1.302,-1.2604,-1.277,0.0,-1.1814,-1.2419,-1.2155,-1.1802,-1.1934,-1.1498,-1.1078,-1.1046,-1.1218,0.0,0.0,0.0,0.0,0.0,0.0,0.0,0.0,0.0,0.0,0.0,0.0,-0.0786,-0.1257,-0.0858,-0.0857,-0.1257,-0.1237,-0.1236,-0.1335,-0.0942,-0.0942,-0.1257,-0.0471,0.0078,0.0393,0.0707,0.1021,0.0,0.1493,0.1729,0.1807,0.1019,0.0548,0.0313,-0.1097,-0.1882,-0.2194,-0.2098,-0.2103,-0.2108,-0.1208,-0.0746,-0.0521,-0.0804,-0.0938,-0.108,-0.2149,-0.2594,-0.2922,-0.3958,-0.4125,-0.405,-0.4417,-0.5418,-0.6108,-0.5499,-0.6436,-0.7342,-0.688,-0.6806,-0.7321,-0.8796,-0.9366,-0.9825,-1.0604,-1.1226,-1.1348,-1.0665,-1.0615,-1.0655,-1.0632,-1.0817,-1.1082,-1.1368,-1.1969,-1.2386,-1.2405,-1.2991,-1.3216,-1.2989,-1.3224,-1.3398,-1.3277,-1.3329,-1.3399,-1.3476,-1.3392,-1.3199,-1.2963,-1.2674,-1.2716,-1.2955,-1.231,-1.2045,0.0,-1.3936,-1.3446,-1.2876,-1.2565,0.0,0.0,0.0,-1.1855,-1.2187,-1.1888,-1.1524,-1.1518,-1.1421,-1.1286,-1.1019,-1.1496,0.0,0.0,0.0,0.0,0.0,0.0,0.0,0.0,0.0,0.0,0.0,-0.0768,-0.0917,-0.1223,-0.0985,-0.0684,-0.0464,-0.0461,-0.0696,-0.1257,-0.0863,-0.0785,-0.1021,-0.0864,-0.0236,0.0864,0.0864,0.1021,0.1335,0.1572,0.1807,0.0,0.0784,0.0235,-0.0157,-0.1332,-0.2117,-0.2507,-0.2329,-0.2321,-0.239,-0.1954,-0.1549,-0.1239,-0.1309,-0.1582,-0.1996,-0.2408,-0.2785,-0.3279,-0.3953,-0.4144,-0.4065,-0.4088,-0.5163,-0.594,-0.5274,-0.6324,-0.7402,-0.6875,-0.7003,-0.7642,-0.8982,-0.9558,-1.0019,-1.084,-1.1256,-1.1261,-1.0658,-1.0559,-1.067,-1.0839,-1.0942,-1.1232,-1.1817,-1.236,-1.2647,-1.2406,-1.3234,-1.3593,-1.3246,-1.3494,-1.3631,-1.358,-1.339,-1.339,-1.37,-1.3602,-1.3479,-1.3479,-1.3191,-1.3277,-1.3555,-1.3099,-1.294,0.0,-1.2692,0.0,0.0,0.0,0.0,0.0,0.0,0.0,-1.1375,-1.1189,-1.1034,-1.0646,-1.1182,-1.1463,-1.0766,0.0,0.0,0.0,0.0,0.0,0.0,0.0,0.0,0.0,0.0,0.0,0.0,-0.0666,-0.1093,-0.1093,-0.1068,-0.0503,0.0827,0.0926,0.0313,-0.1021,-0.0235,-0.0,-0.0393,-0.0079,0.055,0.1414,0.1333,0.1333,0.0,0.1726,0.1884,0.1807,0.0627,0.0078,-0.0157,-0.1489,-0.2196,-0.2503,-0.2443,-0.242,-0.2487,-0.2792,-0.2183,-0.1308,-0.1891,-0.2188,-0.2328,-0.2476,-0.3323,-0.4232,-0.3859,-0.3988,-0.4194,-0.3716,-0.4587,-0.5519,-0.5096,-0.6309,-0.7391,-0.699,-0.7526,-0.8355,-0.9116,-0.9818,-1.0521,-1.1406,-1.1411,-1.1436,-1.1636,-1.1145,-1.112,-1.211,-1.172,-1.1642,-1.2423,-1.3009,-1.3307,-1.3122,-1.3588,-1.3921,-1.3978,-1.3685,-1.3666,-1.401,-1.3571,-1.339,-1.3511,-1.3821,-1.401,-1.401,-1.391,-1.4016,-1.432,-1.4237,-1.4434,-1.2869,0.0,-1.2342,-1.223,-1.2189,-1.2183,0.0,0.0,0.0,0.0,0.0,-1.1145,-1.0703,-1.1182,-1.1373,-1.0377,0.0,0.0,0.0,0.0,0.0,0.0,0.0,0.0,0.0,0.0,0.0,0.0,-0.0666,-0.1093,-0.1093,-0.1087,-0.0508,0.0735,0.1879,0.2304,0.1879,0.0,-0.0157,0.133,0.0706,0.1099,0.2196,0.1541,0.1235,0.1334,0.1695,0.1854,0.1886,0.1883,0.1175,-0.0,-0.0392,-0.1332,-0.2503,-0.2217,-0.2347,-0.2639,-0.2645,-0.2587,-0.2482,-0.2822,-0.314,-0.3364,-0.3295,-0.3481,-0.3766,-0.3841,-0.3794,-0.3787,-0.3769,-0.4762,-0.5669,-0.5243,-0.6364,-0.7391,-0.699,-0.7073,-0.7587,-0.8801,-0.9308,-0.9819,-1.0676,-1.1211,-1.1304,-1.0755,-1.1062,-1.136,-1.1403,-1.1193,-1.1477,-1.2423,-1.2692,-1.3184,-1.4063,-1.4372,-1.4373,-1.4034,-1.3956,-1.3965,-1.4145,-1.3683,-1.3511,-1.37,-1.389,-1.401,-1.401,-1.391,-1.4391,-1.5267,-1.4536,-1.4702,-1.2973,-1.2621,-1.2299,-1.2216,-1.2071,-1.1979,0.0,0.0,0.0,0.0,0.0,0.0,-1.0646,-1.0819,0.0,0.0,0.0,0.0,0.0,0.0,0.0,0.0,0.0,0.0,0.0,0.0,0.0,0.0,-0.0357,-0.0774,-0.1056,-0.1126,-0.0566,0.0643,0.1809,0.2449,0.2386,0.1322,0.0703,0.0469,0.0862,0.1412,0.1961,0.1455,0.1228,0.1334,0.1685,0.1844,0.1886,0.1961,0.1175,-0.0,-0.0313,-0.1254,-0.25,-0.2265,-0.2399,-0.2705,-0.2644,-0.2781,-0.2893,-0.3076,-0.3295,-0.3499,-0.3403,-0.3648,-0.3905,-0.3682,-0.3887,-0.4189,-0.4111,-0.5059,-0.6095,-0.5869,-0.6683,-0.7407,-0.7095,-0.733,-0.7847,-0.8484,-0.9244,-0.9907,-1.0389,-1.1002,-1.1312,-1.0845,-1.1167,-1.1531,-1.1575,-1.1571,-1.1849,-1.2576,-1.2963,-1.3478,-1.4213,-1.458,-1.4835,-1.4968,-1.4828,-1.4686,-1.4678,-1.4094,-1.3743,-1.364,-1.3821,-1.395,-1.401,-1.4317,-1.5002,-1.5894,-1.5691,-1.5848,-1.3079,-1.283,-1.2663,-1.2589,-1.229,-1.2042,0.0,0.0,0.0,0.0,0.0,0.0,0.0,0.0,0.0,0.0,0.0,0.0,0.0,0.0,0.0,0.0,0.0,0.0,-0.166,-0.0517,0.0,0.0,0.0,-0.027,-0.0877,-0.0809,-0.034,0.0624,0.1533,0.2,0.209,0.2914,0.2102,-0.0313,0.1018,0.1568,0.1413,0.1302,0.1228,0.1334,0.0,0.0,0.1886,0.1647,0.0862,-0.0078,-0.0548,-0.1489,-0.2497,-0.2463,-0.2601,-0.277,-0.2778,-0.2916,-0.3061,-0.3048,-0.3121,-0.3264,-0.3252,-0.3787,-0.4258,-0.3592,-0.4172,-0.5012,-0.4635,-0.5535,-0.6491,-0.6491,-0.6981,-0.7461,-0.7265,-0.7782,-0.8296,-0.8231,-0.9122,-0.9952,-1.0078,-1.0724,-1.117,-1.117,-1.1433,-1.1722,-1.2089,-1.2182,-1.24,-1.2879,-1.3418,-1.3875,-1.4289,-1.4691,-1.5287,-1.618,-1.5808,-1.537,-1.5108,-1.4451,-1.3863,-1.3511,-1.37,-1.389,-1.4121,-1.4883,-1.5633,-1.6472,-1.6978,-1.7157,-1.3464,-1.346,-1.3477,-1.3716,-1.3545,-1.3287,0.0,0.0,0.0,0.0,0.0,0.0,0.0,0.0,0.0,0.0,0.0,0.0,0.0,0.0,0.0,0.0,0.0,-0.2849,-0.6787,-0.2809,0.0,0.0,0.0,-0.0067,-0.0135,0.0404,0.0673,0.0472,0.2068,0.3227,0.3825,0.3487,0.3528,0.3992,0.2429,0.1803,0.1959,0.1531,0.1383,0.1569,0.0,0.192,0.2196,0.2275,0.141,-0.0,-0.0078,-0.1175,-0.2737,-0.289,-0.3018,-0.3229,-0.3268,-0.3323,-0.3444,-0.3367,-0.3395,-0.3444,-0.3367,-0.3897,-0.4504,-0.4217,-0.4739,-0.5392,-0.5222,-0.5774,-0.644,-0.644,-0.6946,-0.7521,-0.7456,-0.7396,-0.7591,-0.8107,-0.8291,-0.8538,-0.9116,-1.0009,-1.0647,-1.0647,-1.1494,-1.2181,-1.2236,-1.2122,-1.2451,-1.3468,-1.3336,-1.3849,-1.5474,-1.5492,-1.5808,-1.6815,-1.5863,-1.5076,-1.4628,-1.383,-1.3467,-1.3511,-1.37,-1.4112,-1.4737,-1.5167,-1.5968,-1.709,-1.7146,-1.7379,-1.3752,-1.3923,-1.4136,-1.4255,-1.3726,-1.3041,0.0,0.0,0.0,0.0,0.0,0.0,0.0,0.0,0.0,0.0,0.0,0.0,0.0,0.0,0.0,0.0,0.0,-0.9579,-0.4395,-0.1552,0.0,0.0,0.0,0.0,0.0,0.101,0.1882,0.2484,0.285,0.344,0.4333,0.408,0.4289,0.5005,0.3036,0.2193,0.2272,0.1607,0.1383,0.1412,0.0,0.1921,0.2042,0.2354,0.1803,0.0627,0.0078,-0.1019,-0.2429,-0.3175,-0.331,-0.3192,-0.3377,-0.3472,-0.3485,-0.3442,-0.3457,-0.3554,-0.3917,-0.448,-0.5043,-0.5382,-0.5656,-0.5881,-0.5785,-0.6207,-0.6675,-0.6675,-0.6937,-0.7204,-0.7204,-0.7199,-0.7265,-0.7461,-0.7847,-0.8161,-0.8285,-0.9436,-1.0332,-1.0268,-1.1351,-1.2182,-1.2182,-1.2287,-1.2671,-1.3485,-1.3169,-1.3626,-1.5448,-1.5093,-1.5324,-1.6687,-1.6182,-1.5528,-1.4874,-1.4172,-1.3761,-1.364,-1.3992,-1.446,-1.504,-1.5853,-1.6595,-1.7202,-1.7545,-1.7678,-1.3942,-1.4333,-1.4599,-1.4383,0.0,0.0,0.0,0.0,0.0,0.0,0.0,0.0,0.0,0.0,0.0,0.0,0.0,0.0,0.0,0.0,0.0,0.0,-1.5649,-1.2065,-0.1066,0.0,0.0,0.0,0.0,0.0,0.0,0.1345,0.2758,0.4247,0.3625,0.3657,0.4359,0.4458,0.4671,0.5003,0.3697,0.2884,0.2508,0.1848,0.1544,0.1492,0.1695,0.1931,0.2043,0.2354,0.196,0.1097,0.0078,-0.1175,-0.2508,-0.3526,-0.3693,-0.3432,-0.3555,-0.3606,-0.3594,-0.3569,-0.3629,-0.3897,-0.4425,-0.5017,-0.5672,-0.6203,-0.6372,-0.6447,-0.6378,-0.6709,-0.7003,-0.6889,-0.6946,-0.6946,-0.6881,-0.7007,-0.7073,-0.6876,-0.7526,-0.7957,-0.7639,-0.914,-1.0312,-1.0052,-1.1246,-1.212,-1.2127,-1.2498,-1.2981,-1.3623,-1.3363,-1.3756,-1.5262,-1.4978,-1.5269,-1.6482,-1.6389,-1.5979,-1.541,-1.4746,-1.4332,-1.4231,-1.4519,-1.4982,-1.5633,-1.6595,-1.7168,-1.7435,-1.7854,-1.7865,-1.412,-1.4683,-1.4962,-1.4091,0.0,0.0,0.0,0.0,0.0,0.0,0.0,0.0,0.0,0.0,0.0,0.0,0.0,0.0,0.0,0.0,0.0,-0.1796,-0.1454,-0.1143,-0.0078,0.0,0.0,0.0,0.0,0.0,0.0,0.1344,0.2753,0.4247,0.4236,0.4169,0.4041,0.4349,0.4671,0.5003,0.4857,0.3993,0.2511,0.2427,0.2195,0.1887,0.1883,0.2118,0.2433,0.251,0.1882,0.0862,-0.0157,-0.1958,-0.3999,-0.4229,-0.4313,-0.4201,-0.4108,-0.4001,-0.3889,-0.3789,-0.4092,-0.4558,-0.4558,-0.5415,-0.6268,-0.6141,-0.6486,-0.6898,-0.7077,-0.7279,-0.7378,-0.699,-0.7073,-0.7138,-0.6946,-0.6881,-0.6876,-0.6741,-0.7256,-0.7643,-0.7385,-0.9211,-1.0615,-1.0154,-1.1348,-1.2243,-1.212,-1.2789,-1.3502,-1.4094,-1.4296,-1.469,-1.5446,-1.6165,-1.6574,-1.6431,-1.6239,-1.6114,-1.6056,-1.5274,-1.5031,-1.5429,-1.54,-1.5864,-1.6888,-1.7101,-1.7501,-1.803,-1.7963,-1.7854,-1.4063,-1.4654,-1.4999,-1.4141,0.0,0.0,0.0,0.0,0.0,0.0,0.0,0.0,0.0,0.0,0.0,0.0,0.0,0.0,0.0,-0.4002,-0.1811,-0.0153,0.0,0.0,0.0,0.0,0.0,0.0,0.0,0.0,0.0,0.0538,0.188,0.4247,0.4306,0.4233,0.4164,0.4341,0.445,0.4687,0.5069,0.4444,0.2899,0.2824,0.2277,0.1572,0.165,0.1807,0.1963,0.2042,0.1885,0.1332,-0.0308,-0.1761,-0.3137,-0.3916,-0.4052,-0.3887,-0.3921,-0.3978,-0.3949,-0.3907,-0.4092,-0.4361,-0.5156,-0.5617,-0.6007,-0.6639,-0.7113,-0.7413,-0.7085,-0.6886,-0.6802,-0.6781,-0.6768,-0.6679,-0.6618,-0.6679,-0.6876,-0.7129,-0.7652,-0.8071,-0.8297,-0.975,-1.0669,-1.0367,-1.1403,-1.2104,-1.2001,-1.2816,-1.3716,-1.441,-1.5335,-1.5736,-1.535,-1.614,-1.6467,-1.5972,-1.6296,-1.6353,-1.5894,-1.5642,-1.5517,-1.5459,-1.5796,-1.6265,-1.6853,-1.7301,-1.7846,-1.8453,-1.8396,-1.8396,-1.4289,-1.5113,-1.5775,0.0,0.0,0.0,0.0,0.0,0.0,0.0,0.0,0.0,0.0,0.0,0.0,0.0,0.0,0.0,-0.4054,-0.1833,0.0,0.0,0.0,0.0,0.0,0.0,0.0,0.0,0.0,0.0,0.0,0.0,0.1074,0.3498,0.4169,0.437,0.43,0.4367,0.4512,0.4672,0.507,0.4465,0.3098,0.3024,0.2415,0.1415,0.1572,0.165,0.1729,0.1808,0.1642,0.1162,-0.0304,-0.1578,-0.2682,-0.3516,-0.3813,-0.382,-0.3997,-0.4145,-0.4141,-0.4108,-0.4228,-0.4558,-0.5557,-0.5896,-0.609,-0.6973,-0.74,-0.7527,-0.7044,-0.6798,-0.6722,-0.6726,-0.6643,-0.663,-0.6622,-0.6915,-0.7279,-0.7673,-0.8343,-0.8907,-0.9139,-1.0335,-1.1058,-1.0719,-1.1658,-1.2395,-1.2194,-1.3331,-1.44,-1.518,-1.6291,-1.6665,-1.5833,-1.6508,-1.6836,-1.6386,-1.6653,-1.6566,-1.5972,-1.6114,-1.6114,-1.5989,-1.6389,-1.6786,-1.7099,-1.7701,-1.8239,-1.8691,-1.9023,-1.9114,-1.4852,-1.6262,0.0,0.0,0.0,0.0,0.0,0.0,0.0,0.0,0.0,0.0,0.0,0.0,0.0,0.0,0.0,0.0,-0.0,-0.0,0.0,0.0,0.0,0.0,0.0,0.0,0.0,0.0,0.0,0.0,0.0,0.0,0.0671,0.2012,0.3763,0.4573,0.43,0.4495,0.4757,0.5017,0.5017,0.4276,0.3027,0.3172,0.2604,0.1571,0.1571,0.1728,0.1886,0.1886,0.116,-0.0,-0.0302,-0.1485,-0.2976,-0.3195,-0.3706,-0.4349,-0.4442,-0.4469,-0.445,-0.4338,-0.4628,-0.5223,-0.5756,-0.6284,-0.6745,-0.7068,-0.7204,-0.7184,-0.6975,-0.7232,-0.7391,-0.6854,-0.6937,-0.7127,-0.7056,-0.7607,-0.8234,-0.826,-0.9361,-1.0184,-0.972,-1.1027,-1.182,-1.1008,-1.2253,-1.3208,-1.2887,-1.4305,-1.5718,-1.6513,-1.7117,-1.7343,-1.7046,-1.7561,-1.7822,-1.7729,-1.7295,-1.6839,-1.6405,-1.6648,-1.6931,-1.7278,-1.7278,-1.7434,-1.7723,-1.8385,-1.8691,-1.8771,-1.9761,-1.9829,-1.47,-1.5579,0.0,0.0,0.0,0.0,0.0,0.0,0.0,0.0,0.0,0.0,0.0,0.0,0.0,0.0,0.0,0.0,-0.0908,-0.0347,0.0,0.0,0.0,0.0,0.0,0.0,0.0,0.0,0.0,0.0,0.0,0.0,0.0202,0.0604,0.3297,0.4785,0.4779,0.4767,0.4803,0.4881,0.4472,0.3914,0.3249,0.3323,0.263,0.1344,0.1292,0.1365,0.1417,0.1417,0.1187,0.0735,-0.0,-0.0926,-0.1975,-0.3259,-0.3856,-0.4125,-0.4295,-0.4352,-0.4346,-0.4311,-0.4431,-0.4631,-0.5156,-0.5758,-0.6364,-0.6709,-0.73,-0.7726,-0.7375,-0.7489,-0.7517,-0.7122,-0.6972,-0.6889,-0.7083,-0.763,-0.8177,-0.8701,-0.9624,-1.0438,-1.0926,-1.1494,-1.1813,-1.1644,-1.2418,-1.3485,-1.4601,-1.5278,-1.596,-1.681,-1.7327,-1.7499,-1.7214,-1.7626,-1.7819,-1.7582,-1.7704,-1.7529,-1.7063,-1.6874,-1.6864,-1.7078,-1.7211,-1.7555,-1.8045,-1.8646,-1.9379,-2.0263,-2.0937,-2.1277,-1.5384,0.0,0.0,0.0,0.0,0.0,0.0,0.0,0.0,0.0,0.0,0.0,0.0,0.0,0.0,0.0,0.0,-0.2254,-0.088,-0.0536,-0.0333,-0.0068,0.0,0.0,0.0,0.0,0.0,0.0,0.0,0.0,0.0,0.0,0.0,0.0,0.1879,0.3563,0.4982,0.5046,0.4998,0.4978,0.4298,0.3781,0.337,0.3077,0.2268,0.1168,0.1186,0.1183,0.1166,0.1166,0.1159,0.1075,0.0493,-0.0347,-0.1372,-0.2838,-0.3696,-0.4164,-0.4233,-0.43,-0.43,-0.43,-0.43,-0.4431,-0.4957,-0.5547,-0.6206,-0.6634,-0.7281,-0.7821,-0.7559,-0.7526,-0.7499,-0.735,-0.7154,-0.7152,-0.7697,-0.8229,-0.8829,-0.958,-1.0347,-1.1038,-1.1622,-1.1872,-1.1997,-1.2051,-1.2756,-1.3896,-1.5505,-1.5815,-1.6111,-1.6698,-1.7451,-1.7771,-1.7402,-1.8067,-1.8436,-1.8298,-1.8623,-1.8612,-1.8165,-1.7711,-1.7556,-1.7644,-1.7843,-1.8214,-1.8862,-1.941,-2.0238,-2.1248,-2.2004,-2.2359,0.0,0.0,0.0,0.0,0.0,0.0,0.0,0.0,0.0,0.0,0.0,0.0,0.0,0.0,0.0,0.0,-0.3086,-0.2046,-0.0321,-0.0643,-0.0772,-0.0193,-0.0064,0.0,0.0,0.0,0.0,0.0,0.0,0.0,0.0,0.0,0.0,0.0,0.0,0.1537,0.4712,0.5189,0.5315,0.5146,0.4319,0.3693,0.3273,0.2513,0.1844,0.1162,0.1159,0.1159,0.1162,0.1159,0.1142,0.1117,0.0907,0.0069,-0.1206,-0.2281,-0.3357,-0.43,-0.43,-0.43,-0.43,-0.43,-0.43,-0.4367,-0.4891,-0.555,-0.6207,-0.6662,-0.726,-0.7727,-0.7591,-0.7461,-0.733,-0.7587,-0.7652,-0.7771,-0.8642,-0.9236,-0.9841,-1.0758,-1.1432,-1.1802,-1.1802,-1.2112,-1.2417,-1.2463,-1.3239,-1.4272,-1.5696,-1.5986,-1.6198,-1.6498,-1.7511,-1.8062,-1.7648,-1.8768,-1.9543,-1.9536,-1.989,-1.9906,-1.9507,-1.8927,-1.8625,-1.8727,-1.8792,-1.9108,-1.9787,-2.0463,-2.1137,-2.1795,-2.2896,-2.3073,0.0,0.0,0.0,0.0,0.0,0.0,0.0,0.0,0.0,0.0,0.0,0.0,0.0,0.0,0.0,-0.4003,-0.3076,-0.2048,-0.0935,-0.0499,-0.0374,-0.0811,-0.0374,0.0,0.0,0.0,0.0,0.0,0.0,0.0,0.0,0.0,0.0,0.0,0.0,0.0852,0.2683,0.4509,0.4998,0.4266,0.4001,0.3389,0.237,0.2219,0.1758,0.1129,0.1106,0.1109,0.1129,0.1107,0.1094,0.0952,-0.0475,-0.108,-0.134,-0.322,-0.4097,-0.43,-0.43,-0.43,-0.43,-0.43,-0.43,-0.43,-0.4434,-0.5352,-0.6334,-0.6272,-0.7125,-0.8107,-0.8042,-0.8042,-0.8172,-0.8877,-0.8554,-0.8247,-0.8809,-0.9798,-1.0604,-1.0918,-1.1527,-1.2058,-1.2058,-1.2474,-1.3065,-1.3787,-1.3683,-1.4073,-1.5577,-1.5888,-1.6303,-1.7196,-1.792,-1.8441,-1.8573,-1.9271,-1.9652,-1.9667,-2.0409,-2.0592,-2.0051,-1.9516,-1.91,-1.8934,-1.8857,-1.9162,-1.9885,-2.0427,-2.1287,-2.2355,-2.2943,-2.3417,0.0,0.0,0.0,0.0,0.0,0.0,0.0,0.0,0.0,0.0,0.0,0.0,0.0,0.0,0.0,-0.4003,-0.3036,-0.2044,-0.1085,-0.0422,-0.0121,-0.0543,-0.0242,0.0,0.0,0.0,0.0,0.0,0.0,0.0,0.0,0.0,0.0,0.0,0.0,0.0779,0.2305,0.3495,0.382,0.3351,0.3162,0.2505,0.1582,0.1628,0.1434,0.1079,0.1076,0.1085,0.1031,0.061,0.0202,-0.0269,-0.1075,-0.1878,-0.275,-0.3894,-0.4498,-0.4758,-0.4758,-0.4957,-0.509,-0.4891,-0.4957,-0.509,-0.4891,-0.5745,-0.6736,-0.6671,-0.726,-0.7982,-0.8112,-0.8301,-0.8549,-0.9128,-0.9,-0.9005,-0.9894,-1.0521,-1.1024,-1.1469,-1.1864,-1.2182,-1.2182,-1.2617,-1.323,-1.3987,-1.3679,-1.3881,-1.5427,-1.5779,-1.6245,-1.7099,-1.7924,-1.8358,-1.8311,-1.9032,-1.9537,-1.9725,-2.0945,-2.121,-2.022,-2.0482,-2.037,-1.9745,-1.9512,-1.976,-2.0507,-2.1132,-2.1869,-2.277,-2.3267,-2.3662,0.0,0.0,0.0,0.0,0.0,0.0,0.0,0.0,0.0,0.0,0.0,0.0,0.0,0.0,-0.4627,-0.3943,-0.315,-0.2209,-0.1047,-0.0466,-0.0117,-0.0,0.0,0.0,0.0,0.0,0.0,0.0,0.0,0.0,0.0,0.0,0.0,0.0,0.0,0.0701,0.2112,0.2434,0.2622,0.2675,0.2173,0.1596,0.1019,0.1048,0.0982,0.0834,0.0853,0.0862,0.0664,-0.0133,-0.0933,-0.1736,-0.1674,-0.275,-0.43,-0.4431,-0.4821,-0.5342,-0.5408,-0.5741,-0.6075,-0.5609,-0.5741,-0.6075,-0.5606,-0.6334,-0.7265,-0.7134,-0.7466,-0.7922,-0.8177,-0.8554,-0.893,-0.9436,-0.964,-1.0034,-1.1108,-1.1288,-1.1406,-1.2058,-1.2258,-1.2411,-1.265,-1.2826,-1.3195,-1.4101,-1.3709,-1.3872,-1.5509,-1.597,-1.6402,-1.716,-1.8009,-1.8452,-1.8115,-1.8881,-1.9497,-1.9805,-2.1258,-2.1482,-2.0284,-2.1298,-2.1469,-2.0625,-2.0195,-2.036,-2.1134,-2.1719,-2.2307,-2.2867,-2.335,-2.3663,0.0,0.0,0.0,0.0,0.0,0.0,0.0,0.0,0.0,0.0,0.0,0.0,0.0,0.0,-0.4505,-0.3914,-0.3605,-0.2863,-0.1125,-0.0844,-0.0563,-0.0056,0.0,0.0,0.0,0.0,0.0,0.0,0.0,0.0,0.0,0.0,0.0,0.0,0.0,0.0121,0.0371,0.1864,0.2611,0.2606,0.1676,0.1164,0.1016,0.0986,0.0747,0.0186,0.0124,-0.0249,-0.0749,-0.0895,-0.1551,-0.2465,-0.3458,-0.403,-0.4367,-0.4951,-0.5209,-0.5342,-0.5807,-0.6141,-0.6334,-0.6075,-0.6141,-0.6334,-0.6075,-0.6793,-0.7512,-0.6933,-0.7526,-0.8511,-0.9017,-0.9268,-0.9767,-1.1219,-1.16,-1.16,-1.1337,-1.1725,-1.2236,-1.2498,-1.2546,-1.2941,-1.42,-1.3506,-1.347,-1.5334,-1.4489,-1.4366,-1.6273,-1.6564,-1.7185,-1.8698,-1.9188,-1.946,-1.9765,-1.9999,-2.0146,-2.0084,-2.0945,-2.1134,-2.0487,-2.0952,-2.1134,-2.0957,-2.0334,-2.0373,-2.1202,-2.1156,-2.1552,-2.2242,-2.2665,-2.3104,0.0,0.0,0.0,0.0,0.0,0.0,0.0,0.0,0.0,0.0,0.0,0.0,0.0,-0.4838,-0.4487,-0.421,-0.3831,-0.3347,-0.251,-0.1395,-0.0503,-0.028,-0.0112,0.0,0.0,0.0,0.0,0.0,0.0,0.0,0.0,0.0,0.0,0.0,0.0,0.0,0.0,0.0782,0.1203,0.1382,0.1203,0.0716,-0.0,0.0059,0.0059,-0.006,-0.0,-0.0615,-0.1602,-0.1746,-0.2382,-0.3277,-0.3957,-0.4347,-0.4607,-0.5,-0.5488,-0.6037,-0.6349,-0.6666,-0.6871,-0.6735,-0.6834,-0.7049,-0.6898,-0.7321,-0.7847,-0.7587,-0.8166,-0.8882,-0.9204,-0.9901,-1.071,-1.167,-1.2174,-1.2421,-1.229,-1.2421,-1.2736,-1.3139,-1.3237,-1.3703,-1.5119,-1.4615,-1.4444,-1.5608,-1.4952,-1.4836,-1.6321,-1.6648,-1.7158,-1.8431,-1.8924,-1.9229,-1.9469,-1.9697,-1.9846,-1.9952,-2.1087,-2.1522,-2.0836,-2.1747,-2.2175,-2.2046,-2.093,-2.0673,-2.1299,-2.1686,-2.1984,-2.2355,-2.2768,-2.3105,0.0,0.0,0.0,0.0,0.0,0.0,0.0,0.0,0.0,0.0,0.0,0.0,-0.6032,-0.5222,-0.4677,-0.4515,-0.4125,-0.3849,-0.3852,-0.2454,-0.1172,-0.0391,-0.0112,0.0,0.0,0.0,0.0,0.0,0.0,0.0,0.0,0.0,0.0,0.0,0.0,0.0,0.0,0.0,0.0116,0.0291,0.0058,-0.0407,-0.1044,-0.102,-0.0908,-0.0754,-0.0654,-0.1261,-0.2349,-0.2666,-0.3162,-0.3848,-0.4148,-0.4507,-0.485,-0.5213,-0.5863,-0.6593,-0.6768,-0.7131,-0.7459,-0.7267,-0.7489,-0.7751,-0.7654,-0.7872,-0.8182,-0.8172,-0.8678,-0.925,-0.9518,-1.0465,-1.1531,-1.1988,-1.2552,-1.2928,-1.2989,-1.2928,-1.3033,-1.3657,-1.3758,-1.4196,-1.5661,-1.5345,-1.5174,-1.5925,-1.5452,-1.544,-1.6623,-1.6931,-1.7399,-1.8261,-1.8817,-1.9159,-1.9174,-1.9389,-1.9679,-2.0064,-2.1285,-2.1783,-2.1394,-2.2285,-2.2862,-2.2859,-2.1648,-2.1237,-2.167,-2.2138,-2.2372,-2.2421,-2.2921,-2.3112,0.0,0.0,0.0,0.0,0.0,0.0,0.0,0.0,0.0,0.0,0.0,0.0,-0.6696,-0.5928,-0.5218,-0.4625,-0.446,-0.4467,-0.4477,-0.4366,-0.3239,-0.0335,-0.0,0.0,0.0,0.0,0.0,0.0,0.0,0.0,0.0,0.0,0.0,0.0,0.0,0.0,0.0,0.0,0.0,-0.0,-0.2255,-0.2765,-0.1745,-0.1962,-0.2127,-0.2406,-0.2354,-0.2751,-0.3327,-0.36,-0.3762,-0.3893,-0.4493,-0.4786,-0.4961,-0.6001,-0.6542,-0.6768,-0.7131,-0.7553,-0.7908,-0.7579,-0.7852,-0.8286,-0.798,-0.8265,-0.8641,-0.8182,-0.8877,-0.9837,-1.0148,-1.1038,-1.1988,-1.2736,-1.3119,-1.3241,-1.305,-1.2981,-1.3164,-1.3855,-1.3857,-1.4288,-1.582,-1.5259,-1.5137,-1.6727,-1.6085,-1.6026,-1.7535,-1.7944,-1.8353,-1.9007,-1.9651,-1.9909,-1.9689,-1.9874,-2.0205,-2.079,-2.1184,-2.1564,-2.2001,-2.2129,-2.2344,-2.2721,-2.2388,-2.2235,-2.237,-2.2119,-2.2085,-2.2226,-2.2704,-2.29,0.0,0.0,0.0,0.0,0.0,0.0,0.0,0.0,0.0,0.0,0.0,-0.8712,-0.7503,-0.6303,-0.5273,-0.4625,-0.4519,-0.4519,-0.4522,-0.4473,-0.4082,-0.3014,-0.1172,0.0,0.0,0.0,0.0,0.0,0.0,0.0,0.0,0.0,0.0,0.0,0.0,-0.0729,-0.2305,-0.2697,-0.2411,-0.14,-0.213,-0.2691,-0.314,-0.3081,-0.3132,-0.3188,-0.3188,-0.3357,-0.353,-0.3513,-0.3809,-0.4273,-0.4588,-0.5053,-0.5714,-0.6683,-0.6996,-0.6946,-0.7722,-0.7728,-0.7415,-0.7578,-0.7736,-0.7841,-0.8041,-0.8249,-0.8501,-0.8882,-0.9576,-1.0401,-1.1101,-1.1856,-1.2552,-1.305,-1.3649,-1.4052,-1.4094,-1.3855,-1.3855,-1.4442,-1.4916,-1.5444,-1.6518,-1.6287,-1.6297,-1.7158,-1.6943,-1.7011,-1.7865,-1.8071,-1.8361,-1.8958,-1.9372,-1.9691,-1.9744,-2.0355,-2.0808,-2.1,-2.2096,-2.2697,-2.2758,-2.3183,-2.347,-2.3543,-2.3062,-2.2814,-2.2843,-2.2752,-2.2706,-2.2661,-2.2902,-2.2992,0.0,0.0,0.0,0.0,0.0,0.0,0.0,0.0,0.0,0.0,0.0,-0.9392,-0.7984,-0.6902,-0.5923,-0.5003,-0.4625,-0.4519,-0.4519,-0.4525,-0.4473,-0.448,-0.2734,-0.1115,-0.0112,0.0,0.0,0.0,0.0,0.0,0.0,0.0,0.0,0.0,0.0,-0.1178,-0.3556,-0.4008,-0.3772,-0.2972,-0.2575,-0.291,-0.3869,-0.3697,-0.3585,-0.3585,-0.3585,-0.3585,-0.3638,-0.3744,-0.4073,-0.4529,-0.4964,-0.5553,-0.6228,-0.7175,-0.7471,-0.7515,-0.8262,-0.8203,-0.7806,-0.7764,-0.7824,-0.7826,-0.7925,-0.8014,-0.8258,-0.9066,-0.9867,-1.0684,-1.1507,-1.2342,-1.3111,-1.3597,-1.4172,-1.4628,-1.4972,-1.4737,-1.4619,-1.5255,-1.568,-1.6104,-1.6786,-1.6864,-1.692,-1.7387,-1.7382,-1.755,-1.8038,-1.8317,-1.8638,-1.9023,-1.946,-1.9772,-1.9862,-2.0462,-2.0913,-2.1171,-2.2378,-2.3097,-2.3067,-2.3666,-2.3937,-2.3816,-2.3362,-2.3112,-2.3082,-2.3127,-2.3068,-2.2978,-2.3112,-2.3068,0.0,0.0,0.0,0.0,0.0,0.0,0.0,0.0,0.0,0.0,-1.0305,-0.9399,-0.8037,-0.7723,-0.723,-0.576,-0.4948,-0.4515,-0.4519,-0.4519,-0.4522,-0.4477,-0.448,-0.335,-0.0391,-0.0112,-0.0056,-0.0,0.0,0.0,0.0,0.0,0.0,0.0,-0.0112,-0.1234,-0.3498,-0.3613,-0.3893,-0.4455,-0.3872,-0.3697,-0.3869,-0.3697,-0.3585,-0.3585,-0.3585,-0.3585,-0.3694,-0.4401,-0.4622,-0.4625,-0.5773,-0.6312,-0.6573,-0.7427,-0.8025,-0.8474,-0.8725,-0.8995,-0.9047,-0.8196,-0.8221,-0.8391,-0.7672,-0.767,-0.8032,-0.8663,-0.9616,-1.0562,-1.1353,-1.241,-1.3536,-1.4291,-1.4628,-1.4904,-1.5487,-1.5565,-1.5633,-1.6197,-1.6093,-1.6104,-1.6694,-1.6818,-1.691,-1.7259,-1.7402,-1.7656,-1.8063,-1.8768,-1.921,-1.9239,-1.9978,-2.0296,-2.0042,-2.0156,-2.0553,-2.1276,-2.1925,-2.2506,-2.2993,-2.3373,-2.3572,-2.3524,-2.326,-2.3082,-2.3127,-2.3098,-2.3083,-2.3083,-2.3231,-2.3187,-1.5028,0.0,0.0,0.0,0.0,0.0,0.0,0.0,0.0,-1.1855,-1.097,-1.0261,-0.9392,-0.8402,-0.7396,-0.6475,-0.571,-0.5054,-0.457,-0.4519,-0.4519,-0.4522,-0.4473,-0.4193,-0.335,-0.2232,-0.1172,0.0,0.0,0.0,0.0,0.0,0.0,0.0,-0.2132,-0.2921,-0.23,-0.3426,-0.4042,-0.3974,-0.3802,-0.3799,-0.3802,-0.3694,-0.3585,-0.3585,-0.3585,-0.3858,-0.4242,-0.446,-0.468,-0.5014,-0.5987,-0.6784,-0.7581,-0.8554,-0.8928,-0.9079,-0.9599,-0.9496,-0.8981,-0.8666,-0.8816,-0.8997,-0.8707,-0.8959,-0.9472,-1.0157,-1.0509,-1.098,-1.2065,-1.3287,-1.424,-1.4569,-1.5323,-1.613,-1.6539,-1.6842,-1.6955,-1.6549,-1.6775,-1.7134,-1.7301,-1.72,-1.7183,-1.7541,-1.7683,-1.8043,-1.8657,-1.9545,-2.0037,-1.9808,-2.054,-2.0811,-2.022,-2.0669,-2.1134,-2.1446,-2.2377,-2.2971,-2.3021,-2.3354,-2.354,-2.3581,-2.3246,-2.3216,-2.3378,-2.3275,-2.3187,-2.3112,-2.3246,-2.3466,0.0,0.0,0.0,0.0,0.0,0.0,-1.4838,-1.4586,-1.4082,0.0,-1.1438,-1.0618,-0.9917,-0.8666,-0.7456,-0.6696,-0.5982,-0.5273,-0.457,-0.4519,-0.4519,-0.4519,-0.4522,-0.4473,-0.448,-0.3688,-0.2792,-0.1955,-0.1283,-0.067,-0.0056,0.0,0.0,0.0,-0.1682,-0.2637,-0.2691,-0.3535,-0.3922,-0.3796,-0.3744,-0.3744,-0.3796,-0.3635,-0.3585,-0.3641,-0.3858,-0.4132,-0.4405,-0.5058,-0.5391,-0.5668,-0.6632,-0.7486,-0.8237,-0.919,-0.9607,-0.9695,-1.0226,-1.0131,-0.971,-0.9347,-0.9362,-0.951,-0.9234,-0.9357,-0.977,-1.0429,-1.0927,-1.1511,-1.2507,-1.3402,-1.4174,-1.483,-1.5721,-1.6575,-1.7235,-1.7634,-1.77,-1.7123,-1.7301,-1.7468,-1.7412,-1.7412,-1.7589,-1.8005,-1.8249,-1.8632,-1.9376,-2.0025,-2.0407,-2.022,-2.0746,-2.0964,-2.0474,-2.081,-2.1056,-2.1159,-2.2163,-2.274,-2.2628,-2.3145,-2.3447,-2.3581,-2.3246,-2.3216,-2.3509,-2.3422,-2.3378,-2.3334,-2.3407,-2.3555,0.0,0.0,0.0,0.0,0.0,0.0,-1.5413,-1.4845,-1.4144,0.0,0.0,-1.0797,-1.0285,-0.9054,-0.7899,-0.7125,-0.6362,-0.5529,-0.4625,-0.4519,-0.4519,-0.4519,-0.4519,-0.4522,-0.4477,-0.4477,-0.4484,-0.4494,-0.3244,-0.1729,-0.0112,0.0,0.0,0.0,0.0,-0.1232,-0.3713,-0.3655,-0.3702,-0.3796,-0.3635,-0.3635,-0.3796,-0.3635,-0.3585,-0.3638,-0.4242,-0.446,-0.445,-0.5814,-0.6312,-0.6317,-0.7498,-0.8196,-0.858,-0.9503,-1.002,-1.0277,-1.0608,-1.0769,-1.0769,-1.0131,-1.002,-1.0012,-0.9547,-0.9384,-0.954,-1.021,-1.1058,-1.2025,-1.268,-1.3177,-1.3841,-1.5117,-1.5806,-1.6535,-1.7596,-1.7993,-1.8015,-1.781,-1.7645,-1.7523,-1.7357,-1.759,-1.7968,-1.851,-1.8854,-1.9315,-1.9981,-2.0319,-2.05,-2.0524,-2.0791,-2.0904,-2.0712,-2.0699,-2.0699,-2.0699,-2.1595,-2.2105,-2.2081,-2.2872,-2.3378,-2.3657,-2.3408,-2.3364,-2.3509,-2.3509,-2.3538,-2.3595,-2.3595,-2.3436,0.0,0.0,0.0,0.0,0.0,0.0,-1.4862,-1.4334,-1.3898,0.0,-1.2733,-1.2063,-1.2438,-1.177,-1.0787,-0.9606,-0.8623,-0.7172,-0.4835,-0.4519,-0.4519,-0.4519,-0.4519,-0.4519,-0.4522,-0.4522,-0.4525,-0.448,-0.4206,-0.2852,-0.0168,0.0,0.0,0.0,0.0,-0.0727,-0.224,-0.3307,-0.3755,-0.3638,-0.3638,-0.3638,-0.3638,-0.3638,-0.3585,-0.3638,-0.4242,-0.4787,-0.5324,-0.5982,-0.6154,-0.6213,-0.7818,-0.862,-0.8981,-0.9806,-1.0336,-1.0608,-1.082,-1.082,-1.0718,-1.0565,-1.071,-1.0863,-1.0651,-1.0702,-1.0956,-1.1309,-1.1748,-1.2272,-1.2963,-1.3805,-1.4609,-1.5332,-1.5924,-1.6582,-1.7299,-1.7769,-1.8002,-1.8004,-1.7975,-1.7975,-1.792,-1.8302,-1.8553,-1.8363,-1.8887,-1.9393,-1.9664,-2.046,-2.0888,-2.0701,-2.1169,-2.1312,-2.0751,-2.0699,-2.0699,-2.0699,-2.1573,-2.2095,-2.2095,-2.2824,-2.3627,-2.4551,-2.4433,-2.4089,-2.3509,-2.3509,-2.3538,-2.3595,-2.3595,-2.3523,0.0,0.0,0.0,-1.6392,0.0,0.0,0.0,-1.4578,-1.3905,-1.3997,-1.3021,-1.233,-1.2733,0.0,-1.0909,-1.032,-0.8809,-0.7502,-0.7011,-0.5843,-0.5003,-0.5003,-0.5003,-0.5167,-0.55,-0.5222,-0.5003,-0.5011,-0.4698,-0.386,-0.2343,-0.1505,-0.0781,-0.0,0.0,-0.0559,-0.179,-0.3254,-0.3816,-0.3585,-0.3694,-0.3691,-0.3585,-0.3585,-0.3583,-0.3583,-0.4567,-0.5109,-0.5378,-0.6475,-0.681,-0.6766,-0.7824,-0.856,-0.9079,-0.9658,-1.0182,-1.0624,-1.0769,-1.0769,-1.0718,-1.0871,-1.1023,-1.1175,-1.1124,-1.1276,-1.1578,-1.1828,-1.2154,-1.2503,-1.2995,-1.3761,-1.4595,-1.5228,-1.5791,-1.6451,-1.7647,-1.8056,-1.8416,-1.9,-1.9016,-1.8815,-1.8518,-1.8786,-1.9105,-1.9121,-1.9488,-1.9811,-2.0105,-2.0579,-2.0861,-2.0738,-2.1011,-2.1064,-2.0725,-2.0799,-2.0947,-2.1131,-2.2248,-2.2963,-2.3155,-2.3705,-2.4117,-2.4294,-2.4353,-2.4143,-2.3769,-2.3769,-2.3668,-2.3581,-2.3824,-2.3978,0.0,0.0,0.0,0.0,0.0,-1.5749,0.0,0.0,0.0,-1.4159,-1.3283,0.0,0.0,0.0,0.0,0.0,0.0,0.0,0.0,-0.7806,0.0,-0.631,-0.5685,-0.5688,-0.66,-0.6289,-0.5824,-0.5534,-0.5317,-0.4996,-0.4529,-0.3294,-0.212,-0.0894,-0.0279,-0.0726,-0.2238,-0.3426,-0.3878,-0.3694,-0.3744,-0.3744,-0.3638,-0.3638,-0.3527,-0.3524,-0.4889,-0.5378,-0.5382,-0.7015,-0.7515,-0.7365,-0.783,-0.8402,-0.9033,-0.9451,-1.0035,-1.0573,-1.0667,-1.0769,-1.0871,-1.1074,-1.1226,-1.1377,-1.1377,-1.1578,-1.1877,-1.2166,-1.2491,-1.2783,-1.3308,-1.3963,-1.465,-1.5285,-1.5734,-1.6467,-1.7933,-1.8338,-1.8772,-1.9952,-2.0144,-1.985,-1.9105,-1.9251,-1.9604,-1.994,-2.0105,-2.0271,-2.0649,-2.0699,-2.0699,-2.0699,-2.0749,-2.0799,-2.0749,-2.0997,-2.1277,-2.1664,-2.2875,-2.3714,-2.3997,-2.4567,-2.4563,-2.3797,-2.4104,-2.4161,-2.3982,-2.4051,-2.3925,-2.3668,-2.4258,-2.4609,0.0,0.0,0.0,0.0,-1.637,0.0,0.0,0.0,-1.4417,-1.4381,0.0,0.0,0.0,0.0,0.0,0.0,0.0,0.0,-1.0946,-1.0096,-0.9393,-0.9145,-0.6457,-0.5234,-0.6873,-0.7467,-0.7081,-0.5617,-0.6812,-0.6707,-0.4625,-0.4311,-0.4144,-0.3984,-0.1396,-0.1284,-0.3925,-0.3993,-0.3987,-0.3968,-0.3852,-0.3796,-0.3796,-0.3635,-0.3583,-0.3638,-0.4944,-0.5601,-0.5828,-0.7025,-0.7521,-0.7521,-0.8256,-0.862,-0.8876,-0.9555,-1.0138,-1.0718,-1.082,-1.1023,-1.1226,-1.1276,-1.1427,-1.1669,-1.1669,-1.1828,-1.2166,-1.2735,-1.2919,-1.3288,-1.4682,-1.5274,-1.5584,-1.5782,-1.6209,-1.6821,-1.7508,-1.8157,-1.8913,-1.9976,-2.0746,-2.0871,-1.985,-1.9798,-1.994,-1.9991,-2.0372,-2.0649,-2.0699,-2.0699,-2.0699,-2.0699,-2.0997,-2.1082,-2.0997,-2.1423,-2.1793,-2.1949,-2.267,-2.3122,-2.3304,-2.4519,-2.4709,-2.3812,-2.4618,-2.4719,-2.3982,-2.4245,-2.4313,-2.4328,-2.504,-2.545,0.0,0.0,0.0,0.0,0.0,0.0,-1.5488,0.0,-1.3899,0.0,0.0,0.0,0.0,0.0,0.0,0.0,-1.3029,0.0,0.0,0.0,-0.943,0.0,0.0,0.0,-0.7205,-0.6768,-0.6233,-0.5525,-0.5795,-0.5514,-0.457,-0.4525,-0.4473,-0.4487,-0.3297,-0.313,-0.4209,-0.4265,-0.4147,-0.391,-0.391,-0.3855,-0.3691,-0.3638,-0.3747,-0.4122,-0.5218,-0.5878,-0.6204,-0.7182,-0.7568,-0.7521,-0.7836,-0.8355,-0.8928,-0.9242,-0.9925,-1.0718,-1.1023,-1.1175,-1.1226,-1.1477,-1.1678,-1.1828,-1.1977,-1.2363,-1.2832,-1.3218,-1.3684,-1.4251,-1.5277,-1.5795,-1.6091,-1.615,-1.6432,-1.7017,-1.8177,-1.8616,-1.9337,-2.1042,-2.1492,-2.1506,-2.1055,-2.0759,-2.061,-2.0809,-2.0736,-2.0749,-2.0848,-2.0947,-2.0898,-2.0612,-2.118,-2.1361,-2.0921,-2.1684,-2.2296,-2.2526,-2.3653,-2.4343,-2.4442,-2.4948,-2.4882,-2.4109,-2.4468,-2.4837,-2.5098,-2.4776,-2.5044,-2.5799,-2.5576,-2.5797,-1.931,0.0,0.0,0.0,0.0,0.0,0.0,0.0,0.0,0.0,0.0,0.0,0.0,0.0,0.0,0.0,0.0,-1.2922,0.0,0.0,0.0,0.0,0.0,0.0,0.0,-0.7336,-0.684,-0.6411,0.0,-0.5473,-0.4783,-0.4625,-0.4522,-0.4473,-0.4477,-0.4425,-0.4258,-0.4369,-0.4255,-0.391,-0.391,-0.3858,-0.3694,-0.3694,-0.3962,-0.4611,-0.5441,-0.6041,-0.6524,-0.7289,-0.7568,-0.7521,-0.7515,-0.8196,-0.9086,-0.9086,-0.9821,-1.0922,-1.1226,-1.1276,-1.1318,-1.1628,-1.1918,-1.2206,-1.2412,-1.2929,-1.3552,-1.38,-1.4356,-1.5034,-1.5875,-1.6454,-1.6848,-1.6896,-1.7181,-1.7797,-1.8956,-1.937,-2.0043,-2.1867,-2.2123,-2.203,-2.203,-2.1506,-2.118,-2.1375,-2.1082,-2.0997,-2.1229,-2.1375,-2.1326,-2.1019,-2.1684,-2.1921,-2.1334,-2.2175,-2.2889,-2.3113,-2.4321,-2.5041,-2.5041,-2.5041,-2.481,-2.4317,-2.4385,-2.4891,-2.5827,-2.5471,-2.579,-2.6737,-2.6146,-2.6301,0.0,0.0,0.0,-1.8311,0.0,0.0,0.0,0.0,-1.5905,0.0,0.0,0.0,0.0,0.0,0.0,0.0,0.0,0.0,0.0,0.0,0.0,0.0,0.0,0.0,0.0,-1.0236,-1.0172,0.0,-0.8845,-0.7937,-0.5571,-0.4838,-0.4519,-0.4519,-0.4473,-0.4473,-0.4463,-0.4314,-0.4203,-0.4193,-0.391,-0.3852,-0.3965,-0.3852,-0.4184,-0.4897,-0.5555,-0.61,-0.6642,-0.7246,-0.7521,-0.7515,-0.7616,-0.8408,-0.9361,-0.9263,-1.0087,-1.1276,-1.1326,-1.1477,-1.1678,-1.1728,-1.2246,-1.2967,-1.2812,-1.3447,-1.4222,-1.4477,-1.4901,-1.556,-1.6744,-1.7585,-1.8145,-1.8145,-1.8833,-1.9564,-1.9729,-2.0274,-2.1047,-2.2011,-2.2434,-2.2649,-2.2649,-2.1969,-2.1375,-2.1423,-2.1375,-2.152,-2.1949,-2.1996,-2.203,-2.2235,-2.274,-2.2889,-2.2466,-2.3083,-2.3538,-2.3754,-2.4109,-2.4333,-2.4333,-2.4333,-2.4333,-2.4302,-2.4614,-2.508,-2.5717,-2.6286,-2.6564,-2.6636,-2.672,-2.7173,0.0,0.0,-1.9292,-1.9515,0.0,0.0,0.0,0.0,0.0,0.0,0.0,0.0,0.0,0.0,0.0,0.0,0.0,0.0,0.0,0.0,0.0,0.0,0.0,0.0,0.0,0.0,0.0,0.0,-0.8032,0.0,-0.5588,-0.5269,-0.4948,-0.4519,-0.4522,-0.4522,-0.4519,-0.4411,-0.4304,-0.4079,-0.4079,-0.4021,-0.3852,-0.3796,-0.4453,-0.5655,-0.5769,-0.6372,-0.7343,-0.7563,-0.7616,-0.7616,-0.767,-0.8508,-0.9666,-0.951,-1.0285,-1.1477,-1.1628,-1.1977,-1.2382,-1.2382,-1.289,-1.3532,-1.3484,-1.4107,-1.4902,-1.5323,-1.5963,-1.6798,-1.8129,-1.8844,-1.9264,-1.9446,-1.976,-2.0059,-2.0408,-2.0653,-2.1075,-2.2011,-2.248,-2.2694,-2.2694,-2.2663,-2.2632,-2.2526,-2.2235,-2.2095,-2.2434,-2.2526,-2.248,-2.2175,-2.292,-2.3201,-2.2558,-2.3246,-2.3797,-2.4024,-2.4234,-2.4302,-2.4302,-2.4302,-2.4385,-2.4614,-2.4735,-2.5362,-2.6422,-2.6134,-2.6564,-2.7666,-2.7441,-2.7665,-2.0797,-2.0309,0.0,-1.9719,-1.8852,0.0,-1.8024,0.0,0.0,0.0,0.0,0.0,0.0,0.0,0.0,0.0,0.0,0.0,0.0,-1.3289,0.0,0.0,0.0,0.0,0.0,0.0,0.0,-0.8505,-0.8159,-0.7332,0.0,-0.5873,-0.5546,-0.4897,-0.5117,-0.5226,-0.5167,-0.5117,-0.4952,-0.4732,-0.4736,-0.468,-0.456,-0.456,-0.5218,-0.6367,-0.6258,-0.6745,-0.7723,-0.7723,-0.7723,-0.7723,-0.783,-0.862,-0.9718,-0.9666,-1.049,-1.1669,-1.2008,-1.2412,-1.2725,-1.291,-1.3457,-1.405,-1.4014,-1.4843,-1.5855,-1.6185,-1.7058,-1.8125,-1.9086,-1.971,-2.0158,-2.0337,-2.0542,-2.0759,-2.1041,-2.1213,-2.1523,-2.2225,-2.2663,-2.2934,-2.3068,-2.3392,-2.3538,-2.3216,-2.2844,-2.2694,-2.3068,-2.3113,-2.3054,-2.2875,-2.3421,-2.361,-2.3054,-2.3566,-2.394,-2.4124,-2.4548,-2.4689,-2.4467,-2.4782,-2.5111,-2.5417,-2.5218,-2.5878,-2.7461,-2.6602,-2.7033,-2.8619,-2.8372,-2.854]}]]